Wetterdaten: Mittwoch, 01.02.2023
Datum Zeit Temp. 2m Temp +5 cm Feuchte A. Luftdruck Regen Wind Richtung Richtung Sonnenschein UV Solar Taupunkt Windchill Windben
01.02.2023 00:00 3,1 C 2,2 C 93 % 1024,2 hPa 0,0 l/m 6,4 km/h (2 Bft) SW 225 0 min 0,0 UV-I 0 W/m 2,1 C 3,1 C 14,5 km/h (3 Bft)
01.02.2023 00:01 3,1 C 2,2 C 93 % 1024,2 hPa 0,0 l/m 6,4 km/h (2 Bft) SW 225 0 min 0,0 UV-I 0 W/m 2,1 C 3,1 C 12,9 km/h (3 Bft)
01.02.2023 00:02 3,2 C 2,2 C 93 % 1024,1 hPa 0,0 l/m 6,4 km/h (2 Bft) S-SW 202 0 min 0,0 UV-I 0 W/m 2,2 C 3,2 C 11,3 km/h (2 Bft)
01.02.2023 00:03 3,2 C 2,2 C 93 % 1024,3 hPa 0,0 l/m 9,7 km/h (2 Bft) S-SW 202 0 min 0,0 UV-I 0 W/m 2,2 C 0,3 C 16,1 km/h (3 Bft)
01.02.2023 00:04 3,2 C 2,8 C 93 % 1024,2 hPa 0,0 l/m 8,0 km/h (2 Bft) SW 225 0 min 0,0 UV-I 0 W/m 2,2 C 1,7 C 12,9 km/h (3 Bft)
01.02.2023 00:05 3,2 C 2,8 C 94 % 1024,1 hPa 0,0 l/m 8,0 km/h (2 Bft) W-SW 247 0 min 0,0 UV-I 0 W/m 2,3 C 1,7 C 12,9 km/h (3 Bft)
01.02.2023 00:06 3,2 C 2,8 C 94 % 1024,1 hPa 0,0 l/m 8,0 km/h (2 Bft) S 180 0 min 0,0 UV-I 0 W/m 2,3 C 1,7 C 12,9 km/h (3 Bft)
01.02.2023 00:07 3,2 C 2,8 C 94 % 1024,1 hPa 0,0 l/m 11,3 km/h (2 Bft) S-SW 202 0 min 0,0 UV-I 0 W/m 2,3 C -0,8 C 16,1 km/h (3 Bft)
01.02.2023 00:08 3,2 C 2,8 C 94 % 1024,0 hPa 0,0 l/m 6,4 km/h (2 Bft) SW 225 0 min 0,0 UV-I 0 W/m 2,3 C 3,2 C 8,0 km/h (2 Bft)
01.02.2023 00:09 3,2 C 2,8 C 94 % 1024,1 hPa 0,0 l/m 4,8 km/h (1 Bft) W-SW 247 0 min 0,0 UV-I 0 W/m 2,3 C 3,2 C 9,7 km/h (2 Bft)
01.02.2023 00:10 3,2 C 2,8 C 94 % 1024,1 hPa 0,0 l/m 3,2 km/h (1 Bft) W-SW 247 0 min 0,0 UV-I 0 W/m 2,3 C 3,2 C 6,4 km/h (2 Bft)
01.02.2023 00:11 3,3 C 2,8 C 94 % 1024,1 hPa 0,0 l/m 4,8 km/h (1 Bft) SW 225 0 min 0,0 UV-I 0 W/m 2,4 C 3,3 C 11,3 km/h (2 Bft)
01.02.2023 00:12 3,3 C 2,8 C 93 % 1024,0 hPa 0,0 l/m 4,8 km/h (1 Bft) SW 225 0 min 0,0 UV-I 0 W/m 2,3 C 3,3 C 12,9 km/h (3 Bft)
01.02.2023 00:13 3,3 C 2,8 C 93 % 1024,0 hPa 0,0 l/m 8,0 km/h (2 Bft) SW 225 0 min 0,0 UV-I 0 W/m 2,3 C 1,8 C 12,9 km/h (3 Bft)
01.02.2023 00:14 3,3 C 2,8 C 94 % 1024,0 hPa 0,0 l/m 6,4 km/h (2 Bft) W-SW 247 0 min 0,0 UV-I 0 W/m 2,4 C 3,3 C 8,0 km/h (2 Bft)
01.02.2023 00:15 3,3 C 2,8 C 94 % 1024,0 hPa 0,0 l/m 4,8 km/h (1 Bft) SW 225 0 min 0,0 UV-I 0 W/m 2,4 C 3,3 C 9,7 km/h (2 Bft)
01.02.2023 00:16 3,3 C 2,2 C 93 % 1023,9 hPa 0,0 l/m 8,0 km/h (2 Bft) SW 225 0 min 0,0 UV-I 0 W/m 2,3 C 1,8 C 12,9 km/h (3 Bft)
01.02.2023 00:17 3,3 C 2,2 C 93 % 1023,8 hPa 0,0 l/m 6,4 km/h (2 Bft) S-SW 202 0 min 0,0 UV-I 0 W/m 2,3 C 3,3 C 11,3 km/h (2 Bft)
01.02.2023 00:18 3,3 C 2,2 C 93 % 1023,8 hPa 0,0 l/m 8,0 km/h (2 Bft) S-SW 202 0 min 0,0 UV-I 0 W/m 2,3 C 1,8 C 9,7 km/h (2 Bft)
01.02.2023 00:19 3,2 C 2,2 C 93 % 1023,9 hPa 0,0 l/m 3,2 km/h (1 Bft) SW 225 0 min 0,0 UV-I 0 W/m 2,2 C 3,2 C 4,8 km/h (1 Bft)
01.02.2023 00:20 3,3 C 2,2 C 93 % 1023,8 hPa 0,0 l/m 6,4 km/h (2 Bft) S-SW 202 0 min 0,0 UV-I 0 W/m 2,3 C 3,3 C 8,0 km/h (2 Bft)
01.02.2023 00:21 3,3 C 2,2 C 93 % 1023,8 hPa 0,0 l/m 8,0 km/h (2 Bft) S-SW 202 0 min 0,0 UV-I 0 W/m 2,3 C 1,8 C 9,7 km/h (2 Bft)
01.02.2023 00:22 3,2 C 2,2 C 93 % 1023,9 hPa 0,0 l/m 8,0 km/h (2 Bft) S-SW 202 0 min 0,0 UV-I 0 W/m 2,2 C 1,7 C 11,3 km/h (2 Bft)
01.02.2023 00:23 3,2 C 2,2 C 93 % 1023,9 hPa 0,0 l/m 4,8 km/h (1 Bft) SW 225 0 min 0,0 UV-I 0 W/m 2,2 C 3,2 C 8,0 km/h (2 Bft)
01.02.2023 00:24 3,2 C 2,2 C 93 % 1023,9 hPa 0,0 l/m 4,8 km/h (1 Bft) SW 225 0 min 0,0 UV-I 0 W/m 2,2 C 3,2 C 6,4 km/h (2 Bft)
01.02.2023 00:25 3,2 C 2,2 C 93 % 1023,9 hPa 0,0 l/m 3,2 km/h (1 Bft) SW 225 0 min 0,0 UV-I 0 W/m 2,2 C 3,2 C 4,8 km/h (1 Bft)
01.02.2023 00:26 3,2 C 2,2 C 93 % 1023,9 hPa 0,0 l/m 3,2 km/h (1 Bft) SW 225 0 min 0,0 UV-I 0 W/m 2,2 C 3,2 C 4,8 km/h (1 Bft)
01.02.2023 00:27 3,2 C 2,2 C 93 % 1024,0 hPa 0,0 l/m 8,0 km/h (2 Bft) SW 225 0 min 0,0 UV-I 0 W/m 2,2 C 1,7 C 14,5 km/h (3 Bft)
01.02.2023 00:28 3,2 C 2,2 C 93 % 1023,9 hPa 0,0 l/m 6,4 km/h (2 Bft) S-SW 202 0 min 0,0 UV-I 0 W/m 2,2 C 3,2 C 9,7 km/h (2 Bft)
01.02.2023 00:29 3,2 C 2,2 C 93 % 1023,9 hPa 0,0 l/m 6,4 km/h (2 Bft) SW 225 0 min 0,0 UV-I 0 W/m 2,2 C 3,2 C 9,7 km/h (2 Bft)
01.02.2023 00:30 3,2 C 2,2 C 93 % 1024,0 hPa 0,0 l/m 6,4 km/h (2 Bft) SW 225 0 min 0,0 UV-I 0 W/m 2,2 C 3,2 C 8,0 km/h (2 Bft)
01.02.2023 00:31 3,2 C 2,2 C 93 % 1024,0 hPa 0,0 l/m 6,4 km/h (2 Bft) W-SW 247 0 min 0,0 UV-I 0 W/m 2,2 C 3,2 C 9,7 km/h (2 Bft)
01.02.2023 00:32 3,2 C 2,2 C 93 % 1024,0 hPa 0,0 l/m 4,8 km/h (1 Bft) SW 225 0 min 0,0 UV-I 0 W/m 2,2 C 3,2 C 8,0 km/h (2 Bft)
01.02.2023 00:33 3,2 C 2,2 C 93 % 1024,0 hPa 0,0 l/m 4,8 km/h (1 Bft) S-SW 202 0 min 0,0 UV-I 0 W/m 2,2 C 3,2 C 6,4 km/h (2 Bft)
01.02.2023 00:34 3,2 C 2,2 C 93 % 1024,0 hPa 0,0 l/m 3,2 km/h (1 Bft) S-SW 202 0 min 0,0 UV-I 0 W/m 2,2 C 3,2 C 6,4 km/h (2 Bft)
01.02.2023 00:35 3,2 C 2,2 C 93 % 1024,0 hPa 0,0 l/m 4,8 km/h (1 Bft) S-SW 202 0 min 0,0 UV-I 0 W/m 2,2 C 3,2 C 9,7 km/h (2 Bft)
01.02.2023 00:36 3,2 C 2,2 C 93 % 1024,0 hPa 0,0 l/m 4,8 km/h (1 Bft) SW 225 0 min 0,0 UV-I 0 W/m 2,2 C 3,2 C 8,0 km/h (2 Bft)
01.02.2023 00:37 3,2 C 2,2 C 93 % 1024,0 hPa 0,0 l/m 3,2 km/h (1 Bft) SW 225 0 min 0,0 UV-I 0 W/m 2,2 C 3,2 C 8,0 km/h (2 Bft)
01.02.2023 00:38 3,2 C 2,2 C 93 % 1023,9 hPa 0,0 l/m 4,8 km/h (1 Bft) S-SW 202 0 min 0,0 UV-I 0 W/m 2,2 C 3,2 C 8,0 km/h (2 Bft)
01.02.2023 00:39 3,2 C 2,2 C 93 % 1024,0 hPa 0,0 l/m 6,4 km/h (2 Bft) SW 225 0 min 0,0 UV-I 0 W/m 2,2 C 3,2 C 11,3 km/h (2 Bft)
01.02.2023 00:40 3,2 C 2,8 C 93 % 1024,0 hPa 0,0 l/m 3,2 km/h (1 Bft) S-SW 202 0 min 0,0 UV-I 0 W/m 2,2 C 3,2 C 9,7 km/h (2 Bft)
01.02.2023 00:41 3,2 C 2,2 C 93 % 1023,9 hPa 0,0 l/m 8,0 km/h (2 Bft) S-SW 202 0 min 0,0 UV-I 0 W/m 2,2 C 1,7 C 14,5 km/h (3 Bft)
01.02.2023 00:42 3,2 C 2,2 C 93 % 1023,9 hPa 0,0 l/m 4,8 km/h (1 Bft) W-SW 247 0 min 0,0 UV-I 0 W/m 2,2 C 3,2 C 11,3 km/h (2 Bft)
01.02.2023 00:43 3,2 C 2,8 C 93 % 1023,9 hPa 0,0 l/m 4,8 km/h (1 Bft) SW 225 0 min 0,0 UV-I 0 W/m 2,2 C 3,2 C 8,0 km/h (2 Bft)
01.02.2023 00:44 3,2 C 2,8 C 93 % 1023,9 hPa 0,0 l/m 8,0 km/h (2 Bft) W 270 0 min 0,0 UV-I 0 W/m 2,2 C 1,7 C 11,3 km/h (2 Bft)
01.02.2023 00:45 3,2 C 2,8 C 93 % 1023,9 hPa 0,0 l/m 3,2 km/h (1 Bft) W 270 0 min 0,0 UV-I 0 W/m 2,2 C 3,2 C 6,4 km/h (2 Bft)
01.02.2023 00:46 3,2 C 2,8 C 93 % 1023,9 hPa 0,0 l/m 6,4 km/h (2 Bft) W-SW 247 0 min 0,0 UV-I 0 W/m 2,2 C 3,2 C 12,9 km/h (3 Bft)
01.02.2023 00:47 3,2 C 2,8 C 93 % 1023,9 hPa 0,0 l/m 6,4 km/h (2 Bft) SW 225 0 min 0,0 UV-I 0 W/m 2,2 C 3,2 C 12,9 km/h (3 Bft)
01.02.2023 00:48 3,2 C 2,8 C 93 % 1023,9 hPa 0,0 l/m 8,0 km/h (2 Bft) W-SW 247 0 min 0,0 UV-I 0 W/m 2,2 C 1,7 C 12,9 km/h (3 Bft)
01.02.2023 00:49 3,2 C 2,8 C 93 % 1024,0 hPa 0,0 l/m 9,7 km/h (2 Bft) W-SW 247 0 min 0,0 UV-I 0 W/m 2,2 C 0,3 C 16,1 km/h (3 Bft)
01.02.2023 00:50 3,2 C 2,8 C 93 % 1023,9 hPa 0,0 l/m 9,7 km/h (2 Bft) W-SW 247 0 min 0,0 UV-I 0 W/m 2,2 C 0,3 C 14,5 km/h (3 Bft)
01.02.2023 00:51 3,2 C 2,8 C 93 % 1024,0 hPa 0,0 l/m 9,7 km/h (2 Bft) SW 225 0 min 0,0 UV-I 0 W/m 2,2 C 0,3 C 16,1 km/h (3 Bft)
01.02.2023 00:52 3,2 C 2,8 C 93 % 1024,0 hPa 0,0 l/m 9,7 km/h (2 Bft) W-SW 247 0 min 0,0 UV-I 0 W/m 2,2 C 0,3 C 17,7 km/h (3 Bft)
01.02.2023 00:53 3,2 C 2,8 C 93 % 1023,9 hPa 0,0 l/m 11,3 km/h (2 Bft) W-SW 247 0 min 0,0 UV-I 0 W/m 2,2 C -0,8 C 19,3 km/h (3 Bft)
01.02.2023 00:54 3,2 C 2,8 C 93 % 1024,0 hPa 0,0 l/m 9,7 km/h (2 Bft) W-SW 247 0 min 0,0 UV-I 0 W/m 2,2 C 0,3 C 19,3 km/h (3 Bft)
01.02.2023 00:55 3,2 C 2,8 C 93 % 1024,0 hPa 0,0 l/m 8,0 km/h (2 Bft) SW 225 0 min 0,0 UV-I 0 W/m 2,2 C 1,7 C 17,7 km/h (3 Bft)
01.02.2023 00:56 3,2 C 2,8 C 93 % 1023,9 hPa 0,0 l/m 11,3 km/h (2 Bft) W-SW 247 0 min 0,0 UV-I 0 W/m 2,2 C -0,8 C 17,7 km/h (3 Bft)
01.02.2023 00:57 3,2 C 2,8 C 93 % 1024,0 hPa 0,0 l/m 12,9 km/h (3 Bft) SW 225 0 min 0,0 UV-I 0 W/m 2,2 C -1,9 C 19,3 km/h (3 Bft)
01.02.2023 00:58 3,2 C 2,8 C 93 % 1024,0 hPa 0,0 l/m 11,3 km/h (2 Bft) SW 225 0 min 0,0 UV-I 0 W/m 2,2 C -0,8 C 16,1 km/h (3 Bft)
01.02.2023 00:59 3,2 C 2,8 C 93 % 1024,0 hPa 0,0 l/m 9,7 km/h (2 Bft) SW 225 0 min 0,0 UV-I 0 W/m 2,2 C 0,3 C 14,5 km/h (3 Bft)
01.02.2023 01:00 3,2 C 2,8 C 93 % 1023,9 hPa 0,0 l/m 8,0 km/h (2 Bft) W-SW 247 0 min 0,0 UV-I 0 W/m 2,2 C 1,7 C 12,9 km/h (3 Bft)
01.02.2023 01:01 3,3 C 2,8 C 93 % 1023,9 hPa 0,0 l/m 4,8 km/h (1 Bft) W-SW 247 0 min 0,0 UV-I 0 W/m 2,3 C 3,3 C 6,4 km/h (2 Bft)
01.02.2023 01:02 3,2 C 2,2 C 93 % 1023,9 hPa 0,0 l/m 11,3 km/h (2 Bft) W-SW 247 0 min 0,0 UV-I 0 W/m 2,2 C -0,8 C 17,7 km/h (3 Bft)
01.02.2023 01:03 3,2 C 2,8 C 93 % 1023,9 hPa 0,0 l/m 11,3 km/h (2 Bft) W-SW 247 0 min 0,0 UV-I 0 W/m 2,2 C -0,8 C 16,1 km/h (3 Bft)
01.02.2023 01:04 3,2 C 2,2 C 93 % 1023,8 hPa 0,0 l/m 4,8 km/h (1 Bft) W-SW 247 0 min 0,0 UV-I 0 W/m 2,2 C 3,2 C 11,3 km/h (2 Bft)
01.02.2023 01:05 3,2 C 2,8 C 93 % 1023,9 hPa 0,0 l/m 8,0 km/h (2 Bft) SW 225 0 min 0,0 UV-I 0 W/m 2,2 C 1,7 C 14,5 km/h (3 Bft)
01.02.2023 01:06 3,3 C 2,8 C 93 % 1023,9 hPa 0,0 l/m 9,7 km/h (2 Bft) W-SW 247 0 min 0,0 UV-I 0 W/m 2,3 C 0,4 C 12,9 km/h (3 Bft)
01.02.2023 01:07 3,2 C 2,8 C 93 % 1023,9 hPa 0,0 l/m 9,7 km/h (2 Bft) W-SW 247 0 min 0,0 UV-I 0 W/m 2,2 C 0,3 C 14,5 km/h (3 Bft)
01.02.2023 01:08 3,2 C 2,8 C 93 % 1023,9 hPa 0,0 l/m 14,5 km/h (3 Bft) W-SW 247 0 min 0,0 UV-I 0 W/m 2,2 C -2,8 C 19,3 km/h (3 Bft)
01.02.2023 01:09 3,2 C 2,8 C 93 % 1023,9 hPa 0,0 l/m 11,3 km/h (2 Bft) W 270 0 min 0,0 UV-I 0 W/m 2,2 C -0,8 C 17,7 km/h (3 Bft)
01.02.2023 01:10 3,3 C 2,8 C 93 % 1023,9 hPa 0,0 l/m 8,0 km/h (2 Bft) W-SW 247 0 min 0,0 UV-I 0 W/m 2,3 C 1,8 C 14,5 km/h (3 Bft)
01.02.2023 01:11 3,3 C 2,8 C 93 % 1023,8 hPa 0,0 l/m 9,7 km/h (2 Bft) W-SW 247 0 min 0,0 UV-I 0 W/m 2,3 C 0,4 C 12,9 km/h (3 Bft)
01.02.2023 01:12 3,2 C 2,8 C 93 % 1023,9 hPa 0,0 l/m 14,5 km/h (3 Bft) W-SW 247 0 min 0,0 UV-I 0 W/m 2,2 C -2,8 C 20,9 km/h (4 Bft)
01.02.2023 01:13 3,2 C 2,2 C 93 % 1024,0 hPa 0,0 l/m 12,9 km/h (3 Bft) W 270 0 min 0,0 UV-I 0 W/m 2,2 C -1,9 C 19,3 km/h (3 Bft)
01.02.2023 01:14 3,2 C 2,2 C 93 % 1023,9 hPa 0,0 l/m 16,1 km/h (3 Bft) W 270 0 min 0,0 UV-I 0 W/m 2,2 C -3,7 C 20,9 km/h (4 Bft)
01.02.2023 01:15 3,2 C 2,8 C 93 % 1024,0 hPa 0,0 l/m 8,0 km/h (2 Bft) W 270 0 min 0,0 UV-I 0 W/m 2,2 C 1,7 C 12,9 km/h (3 Bft)
01.02.2023 01:16 3,2 C 2,2 C 93 % 1024,1 hPa 0,0 l/m 11,3 km/h (2 Bft) W-SW 247 0 min 0,0 UV-I 0 W/m 2,2 C -0,8 C 16,1 km/h (3 Bft)
01.02.2023 01:17 3,2 C 2,2 C 93 % 1024,1 hPa 0,0 l/m 6,4 km/h (2 Bft) W-SW 247 0 min 0,0 UV-I 0 W/m 2,2 C 3,2 C 11,3 km/h (2 Bft)
01.02.2023 01:18 3,2 C 2,2 C 93 % 1024,0 hPa 0,0 l/m 12,9 km/h (3 Bft) W 270 0 min 0,0 UV-I 0 W/m 2,2 C -1,9 C 16,1 km/h (3 Bft)
01.02.2023 01:19 3,2 C 2,2 C 93 % 1024,0 hPa 0,0 l/m 14,5 km/h (3 Bft) W 270 0 min 0,0 UV-I 0 W/m 2,2 C -2,8 C 22,5 km/h (4 Bft)
01.02.2023 01:20 3,2 C 2,2 C 93 % 1024,0 hPa 0,0 l/m 6,4 km/h (2 Bft) W-SW 247 0 min 0,0 UV-I 0 W/m 2,2 C 3,2 C 22,5 km/h (4 Bft)
01.02.2023 01:21 3,2 C 2,2 C 93 % 1024,0 hPa 0,0 l/m 8,0 km/h (2 Bft) W 270 0 min 0,0 UV-I 0 W/m 2,2 C 1,7 C 12,9 km/h (3 Bft)
01.02.2023 01:22 3,2 C 2,2 C 93 % 1024,1 hPa 0,0 l/m 8,0 km/h (2 Bft) W 270 0 min 0,0 UV-I 0 W/m 2,2 C 1,7 C 12,9 km/h (3 Bft)
01.02.2023 01:23 3,2 C 2,2 C 93 % 1024,1 hPa 0,0 l/m 6,4 km/h (2 Bft) SW 225 0 min 0,0 UV-I 0 W/m 2,2 C 3,2 C 8,0 km/h (2 Bft)
01.02.2023 01:24 3,2 C 2,2 C 93 % 1024,1 hPa 0,0 l/m 9,7 km/h (2 Bft) W-SW 247 0 min 0,0 UV-I 0 W/m 2,2 C 0,3 C 14,5 km/h (3 Bft)
01.02.2023 01:25 3,2 C 2,2 C 93 % 1024,1 hPa 0,0 l/m 11,3 km/h (2 Bft) W-SW 247 0 min 0,0 UV-I 0 W/m 2,2 C -0,8 C 16,1 km/h (3 Bft)
01.02.2023 01:26 3,2 C 2,2 C 93 % 1024,0 hPa 0,0 l/m 6,4 km/h (2 Bft) W-SW 247 0 min 0,0 UV-I 0 W/m 2,2 C 3,2 C 12,9 km/h (3 Bft)
01.02.2023 01:27 3,2 C 2,2 C 93 % 1024,0 hPa 0,0 l/m 14,5 km/h (3 Bft) W 270 0 min 0,0 UV-I 0 W/m 2,2 C -2,8 C 22,5 km/h (4 Bft)
01.02.2023 01:28 3,2 C 2,2 C 93 % 1024,0 hPa 0,0 l/m 11,3 km/h (2 Bft) W-SW 247 0 min 0,0 UV-I 0 W/m 2,2 C -0,8 C 19,3 km/h (3 Bft)
01.02.2023 01:29 3,1 C 2,2 C 93 % 1023,9 hPa 0,0 l/m 12,9 km/h (3 Bft) W-SW 247 0 min 0,0 UV-I 0 W/m 2,1 C -2,0 C 25,7 km/h (4 Bft)
01.02.2023 01:30 3,1 C 2,2 C 93 % 1023,9 hPa 0,0 l/m 16,1 km/h (3 Bft) W-SW 247 0 min 0,0 UV-I 0 W/m 2,1 C -3,8 C 24,1 km/h (4 Bft)
01.02.2023 01:31 3,1 C 2,2 C 93 % 1024,0 hPa 0,0 l/m 14,5 km/h (3 Bft) W-SW 247 0 min 0,0 UV-I 0 W/m 2,1 C -2,9 C 25,7 km/h (4 Bft)
01.02.2023 01:32 3,1 C 2,2 C 93 % 1023,8 hPa 0,0 l/m 9,7 km/h (2 Bft) SW 225 0 min 0,0 UV-I 0 W/m 2,1 C 0,2 C 19,3 km/h (3 Bft)
01.02.2023 01:33 3,1 C 2,2 C 93 % 1023,9 hPa 0,0 l/m 11,3 km/h (2 Bft) W-SW 247 0 min 0,0 UV-I 0 W/m 2,1 C -1,0 C 14,5 km/h (3 Bft)
01.02.2023 01:34 3,1 C 2,2 C 93 % 1023,9 hPa 0,0 l/m 9,7 km/h (2 Bft) W 270 0 min 0,0 UV-I 0 W/m 2,1 C 0,2 C 16,1 km/h (3 Bft)
01.02.2023 01:35 3,1 C 2,2 C 93 % 1023,9 hPa 0,0 l/m 12,9 km/h (3 Bft) W 270 0 min 0,0 UV-I 0 W/m 2,1 C -2,0 C 17,7 km/h (3 Bft)
01.02.2023 01:36 3,1 C 2,2 C 93 % 1023,9 hPa 0,0 l/m 11,3 km/h (2 Bft) W-SW 247 0 min 0,0 UV-I 0 W/m 2,1 C -1,0 C 16,1 km/h (3 Bft)
01.02.2023 01:37 3,1 C 2,2 C 93 % 1023,9 hPa 0,0 l/m 9,7 km/h (2 Bft) SW 225 0 min 0,0 UV-I 0 W/m 2,1 C 0,2 C 12,9 km/h (3 Bft)
01.02.2023 01:38 3,1 C 2,2 C 93 % 1023,9 hPa 0,0 l/m 9,7 km/h (2 Bft) W-SW 247 0 min 0,0 UV-I 0 W/m 2,1 C 0,2 C 16,1 km/h (3 Bft)
01.02.2023 01:39 3,1 C 2,2 C 93 % 1024,0 hPa 0,0 l/m 9,7 km/h (2 Bft) W-SW 247 0 min 0,0 UV-I 0 W/m 2,1 C 0,2 C 16,1 km/h (3 Bft)
01.02.2023 01:40 3,1 C 2,2 C 93 % 1024,0 hPa 0,0 l/m 9,7 km/h (2 Bft) W-SW 247 0 min 0,0 UV-I 0 W/m 2,1 C 0,2 C 14,5 km/h (3 Bft)
01.02.2023 01:41 3,1 C 2,2 C 93 % 1023,9 hPa 0,0 l/m 6,4 km/h (2 Bft) SW 225 0 min 0,0 UV-I 0 W/m 2,1 C 3,1 C 12,9 km/h (3 Bft)
01.02.2023 01:42 3,1 C 2,2 C 93 % 1024,0 hPa 0,0 l/m 6,4 km/h (2 Bft) W-SW 247 0 min 0,0 UV-I 0 W/m 2,1 C 3,1 C 12,9 km/h (3 Bft)
01.02.2023 01:43 3,1 C 2,2 C 93 % 1024,0 hPa 0,0 l/m 11,3 km/h (2 Bft) W-SW 247 0 min 0,0 UV-I 0 W/m 2,1 C -1,0 C 17,7 km/h (3 Bft)
01.02.2023 01:44 3,1 C 2,2 C 93 % 1024,0 hPa 0,0 l/m 6,4 km/h (2 Bft) SW 225 0 min 0,0 UV-I 0 W/m 2,1 C 3,1 C 11,3 km/h (2 Bft)
01.02.2023 01:45 3,1 C 2,2 C 93 % 1023,9 hPa 0,0 l/m 6,4 km/h (2 Bft) W-SW 247 0 min 0,0 UV-I 0 W/m 2,1 C 3,1 C 11,3 km/h (2 Bft)
01.02.2023 01:46 3,1 C 2,2 C 93 % 1023,9 hPa 0,0 l/m 4,8 km/h (1 Bft) S-SW 202 0 min 0,0 UV-I 0 W/m 2,1 C 3,1 C 8,0 km/h (2 Bft)
01.02.2023 01:47 3,1 C 2,2 C 93 % 1024,0 hPa 0,0 l/m 6,4 km/h (2 Bft) W-SW 247 0 min 0,0 UV-I 0 W/m 2,1 C 3,1 C 8,0 km/h (2 Bft)
01.02.2023 01:48 3,1 C 2,2 C 93 % 1024,0 hPa 0,0 l/m 8,0 km/h (2 Bft) SW 225 0 min 0,0 UV-I 0 W/m 2,1 C 1,6 C 14,5 km/h (3 Bft)
01.02.2023 01:49 3,1 C 2,2 C 93 % 1024,0 hPa 0,0 l/m 9,7 km/h (2 Bft) SW 225 0 min 0,0 UV-I 0 W/m 2,1 C 0,2 C 14,5 km/h (3 Bft)
01.02.2023 01:50 3,1 C 2,2 C 93 % 1023,9 hPa 0,0 l/m 6,4 km/h (2 Bft) W-SW 247 0 min 0,0 UV-I 0 W/m 2,1 C 3,1 C 11,3 km/h (2 Bft)
01.02.2023 01:51 3,0 C 2,2 C 93 % 1024,1 hPa 0,0 l/m 11,3 km/h (2 Bft) W-SW 247 0 min 0,0 UV-I 0 W/m 2,0 C -1,1 C 14,5 km/h (3 Bft)
01.02.2023 01:52 3,1 C 2,2 C 93 % 1023,9 hPa 0,0 l/m 6,4 km/h (2 Bft) W-SW 247 0 min 0,0 UV-I 0 W/m 2,1 C 3,1 C 9,7 km/h (2 Bft)
01.02.2023 01:53 3,1 C 2,2 C 93 % 1024,0 hPa 0,0 l/m 4,8 km/h (1 Bft) W-SW 247 0 min 0,0 UV-I 0 W/m 2,1 C 3,1 C 8,0 km/h (2 Bft)
01.02.2023 01:54 3,1 C 2,2 C 93 % 1023,9 hPa 0,0 l/m 3,2 km/h (1 Bft) W-SW 247 0 min 0,0 UV-I 0 W/m 2,1 C 3,1 C 6,4 km/h (2 Bft)
01.02.2023 01:55 3,1 C 2,2 C 93 % 1023,9 hPa 0,0 l/m 6,4 km/h (2 Bft) W-SW 247 0 min 0,0 UV-I 0 W/m 2,1 C 3,1 C 14,5 km/h (3 Bft)
01.02.2023 01:56 3,1 C 2,2 C 93 % 1023,9 hPa 0,0 l/m 4,8 km/h (1 Bft) W-SW 247 0 min 0,0 UV-I 0 W/m 2,1 C 3,1 C 8,0 km/h (2 Bft)
01.02.2023 01:57 3,0 C 2,2 C 93 % 1023,9 hPa 0,0 l/m 6,4 km/h (2 Bft) W-SW 247 0 min 0,0 UV-I 0 W/m 2,0 C 3,0 C 11,3 km/h (2 Bft)
01.02.2023 01:58 3,0 C 2,2 C 93 % 1023,9 hPa 0,0 l/m 8,0 km/h (2 Bft) W-SW 247 0 min 0,0 UV-I 0 W/m 2,0 C 1,5 C 20,9 km/h (4 Bft)
01.02.2023 01:59 3,0 C 2,2 C 93 % 1024,0 hPa 0,0 l/m 9,7 km/h (2 Bft) W-SW 247 0 min 0,0 UV-I 0 W/m 2,0 C 0,1 C 17,7 km/h (3 Bft)
01.02.2023 02:00 3,0 C 2,2 C 93 % 1024,0 hPa 0,0 l/m 9,7 km/h (2 Bft) SW 225 0 min 0,0 UV-I 0 W/m 2,0 C 0,1 C 14,5 km/h (3 Bft)
01.02.2023 02:01 3,0 C 2,2 C 93 % 1024,1 hPa 0,0 l/m 9,7 km/h (2 Bft) W-SW 247 0 min 0,0 UV-I 0 W/m 2,0 C 0,1 C 16,1 km/h (3 Bft)
01.02.2023 02:02 3,0 C 2,2 C 93 % 1024,0 hPa 0,0 l/m 9,7 km/h (2 Bft) SW 225 0 min 0,0 UV-I 0 W/m 2,0 C 0,1 C 14,5 km/h (3 Bft)
01.02.2023 02:03 3,0 C 2,2 C 93 % 1024,1 hPa 0,0 l/m 8,0 km/h (2 Bft) W-SW 247 0 min 0,0 UV-I 0 W/m 2,0 C 1,5 C 12,9 km/h (3 Bft)
01.02.2023 02:04 3,0 C 2,2 C 93 % 1024,1 hPa 0,0 l/m 8,0 km/h (2 Bft) W-SW 247 0 min 0,0 UV-I 0 W/m 2,0 C 1,5 C 11,3 km/h (2 Bft)
01.02.2023 02:05 3,0 C 2,2 C 93 % 1024,0 hPa 0,0 l/m 11,3 km/h (2 Bft) SW 225 0 min 0,0 UV-I 0 W/m 2,0 C -1,1 C 16,1 km/h (3 Bft)
01.02.2023 02:06 2,9 C 2,2 C 93 % 1024,0 hPa 0,0 l/m 8,0 km/h (2 Bft) SW 225 0 min 0,0 UV-I 0 W/m 1,9 C 1,4 C 12,9 km/h (3 Bft)
01.02.2023 02:07 2,9 C 2,2 C 93 % 1024,0 hPa 0,0 l/m 8,0 km/h (2 Bft) W-SW 247 0 min 0,0 UV-I 0 W/m 1,9 C 1,4 C 16,1 km/h (3 Bft)
01.02.2023 02:08 2,9 C 2,2 C 93 % 1023,9 hPa 0,0 l/m 9,7 km/h (2 Bft) SW 225 0 min 0,0 UV-I 0 W/m 1,9 C -0,0 C 16,1 km/h (3 Bft)
01.02.2023 02:09 2,9 C 2,2 C 93 % 1024,0 hPa 0,0 l/m 9,7 km/h (2 Bft) SW 225 0 min 0,0 UV-I 0 W/m 1,9 C -0,0 C 14,5 km/h (3 Bft)
01.02.2023 02:10 2,9 C 2,2 C 93 % 1024,0 hPa 0,0 l/m 8,0 km/h (2 Bft) W-SW 247 0 min 0,0 UV-I 0 W/m 1,9 C 1,4 C 11,3 km/h (2 Bft)
01.02.2023 02:11 2,9 C 2,2 C 93 % 1024,0 hPa 0,0 l/m 8,0 km/h (2 Bft) SW 225 0 min 0,0 UV-I 0 W/m 1,9 C 1,4 C 20,9 km/h (4 Bft)
01.02.2023 02:12 2,9 C 2,2 C 93 % 1023,9 hPa 0,0 l/m 11,3 km/h (2 Bft) W-SW 247 0 min 0,0 UV-I 0 W/m 1,9 C -1,2 C 16,1 km/h (3 Bft)
01.02.2023 02:13 2,9 C 2,2 C 93 % 1023,9 hPa 0,0 l/m 8,0 km/h (2 Bft) W-SW 247 0 min 0,0 UV-I 0 W/m 1,9 C 1,4 C 14,5 km/h (3 Bft)
01.02.2023 02:14 2,9 C 2,2 C 93 % 1024,0 hPa 0,0 l/m 6,4 km/h (2 Bft) W 270 0 min 0,0 UV-I 0 W/m 1,9 C 2,9 C 11,3 km/h (2 Bft)
01.02.2023 02:15 2,9 C 2,2 C 93 % 1023,9 hPa 0,0 l/m 12,9 km/h (3 Bft) SW 225 0 min 0,0 UV-I 0 W/m 1,9 C -2,2 C 20,9 km/h (4 Bft)
01.02.2023 02:16 2,9 C 2,2 C 93 % 1024,0 hPa 0,0 l/m 12,9 km/h (3 Bft) W-SW 247 0 min 0,0 UV-I 0 W/m 1,9 C -2,2 C 20,9 km/h (4 Bft)
01.02.2023 02:17 2,9 C 2,2 C 92 % 1024,0 hPa 0,0 l/m 6,4 km/h (2 Bft) SW 225 0 min 0,0 UV-I 0 W/m 1,7 C 2,9 C 9,7 km/h (2 Bft)
01.02.2023 02:18 2,9 C 2,2 C 92 % 1024,0 hPa 0,0 l/m 6,4 km/h (2 Bft) SW 225 0 min 0,0 UV-I 0 W/m 1,7 C 2,9 C 12,9 km/h (3 Bft)
01.02.2023 02:19 2,9 C 2,2 C 92 % 1024,0 hPa 0,0 l/m 8,0 km/h (2 Bft) S-SW 202 0 min 0,0 UV-I 0 W/m 1,7 C 1,4 C 17,7 km/h (3 Bft)
01.02.2023 02:20 2,9 C 2,2 C 92 % 1023,9 hPa 0,0 l/m 9,7 km/h (2 Bft) SW 225 0 min 0,0 UV-I 0 W/m 1,7 C -0,0 C 11,3 km/h (2 Bft)
01.02.2023 02:21 2,9 C 2,2 C 92 % 1023,8 hPa 0,0 l/m 9,7 km/h (2 Bft) SW 225 0 min 0,0 UV-I 0 W/m 1,7 C -0,0 C 12,9 km/h (3 Bft)
01.02.2023 02:22 2,9 C 2,2 C 92 % 1023,8 hPa 0,0 l/m 6,4 km/h (2 Bft) W-SW 247 0 min 0,0 UV-I 0 W/m 1,7 C 2,9 C 9,7 km/h (2 Bft)
01.02.2023 02:23 2,9 C 2,2 C 92 % 1023,7 hPa 0,0 l/m 6,4 km/h (2 Bft) SW 225 0 min 0,0 UV-I 0 W/m 1,7 C 2,9 C 11,3 km/h (2 Bft)
01.02.2023 02:24 2,9 C 2,2 C 92 % 1023,8 hPa 0,0 l/m 4,8 km/h (1 Bft) W-SW 247 0 min 0,0 UV-I 0 W/m 1,7 C 2,9 C 8,0 km/h (2 Bft)
01.02.2023 02:25 2,9 C 1,7 C 92 % 1023,8 hPa 0,0 l/m 8,0 km/h (2 Bft) SW 225 0 min 0,0 UV-I 0 W/m 1,7 C 1,4 C 14,5 km/h (3 Bft)
01.02.2023 02:26 2,9 C 2,2 C 92 % 1023,8 hPa 0,0 l/m 9,7 km/h (2 Bft) SW 225 0 min 0,0 UV-I 0 W/m 1,7 C -0,0 C 14,5 km/h (3 Bft)
01.02.2023 02:27 2,9 C 2,2 C 92 % 1023,8 hPa 0,0 l/m 8,0 km/h (2 Bft) W-SW 247 0 min 0,0 UV-I 0 W/m 1,7 C 1,4 C 11,3 km/h (2 Bft)
01.02.2023 02:28 2,9 C 2,2 C 92 % 1023,8 hPa 0,0 l/m 6,4 km/h (2 Bft) W-SW 247 0 min 0,0 UV-I 0 W/m 1,7 C 2,9 C 9,7 km/h (2 Bft)
01.02.2023 02:29 2,8 C 2,2 C 92 % 1023,8 hPa 0,0 l/m 9,7 km/h (2 Bft) W-SW 247 0 min 0,0 UV-I 0 W/m 1,6 C -0,1 C 14,5 km/h (3 Bft)
01.02.2023 02:30 2,8 C 2,2 C 92 % 1023,8 hPa 0,0 l/m 8,0 km/h (2 Bft) SW 225 0 min 0,0 UV-I 0 W/m 1,6 C 1,3 C 17,7 km/h (3 Bft)
01.02.2023 02:31 2,9 C 2,2 C 92 % 1023,8 hPa 0,0 l/m 8,0 km/h (2 Bft) SW 225 0 min 0,0 UV-I 0 W/m 1,7 C 1,4 C 16,1 km/h (3 Bft)
01.02.2023 02:32 2,8 C 2,2 C 92 % 1023,7 hPa 0,0 l/m 8,0 km/h (2 Bft) W-SW 247 0 min 0,0 UV-I 0 W/m 1,6 C 1,3 C 14,5 km/h (3 Bft)
01.02.2023 02:33 2,8 C 2,2 C 92 % 1023,6 hPa 0,0 l/m 9,7 km/h (2 Bft) SW 225 0 min 0,0 UV-I 0 W/m 1,6 C -0,1 C 16,1 km/h (3 Bft)
01.02.2023 02:34 2,8 C 2,2 C 92 % 1023,6 hPa 0,0 l/m 6,4 km/h (2 Bft) W-SW 247 0 min 0,0 UV-I 0 W/m 1,6 C 2,8 C 12,9 km/h (3 Bft)
01.02.2023 02:35 2,8 C 2,2 C 92 % 1023,6 hPa 0,0 l/m 6,4 km/h (2 Bft) W-SW 247 0 min 0,0 UV-I 0 W/m 1,6 C 2,8 C 9,7 km/h (2 Bft)
01.02.2023 02:36 2,8 C 1,7 C 92 % 1023,7 hPa 0,0 l/m 6,4 km/h (2 Bft) SW 225 0 min 0,0 UV-I 0 W/m 1,6 C 2,8 C 11,3 km/h (2 Bft)
01.02.2023 02:37 2,8 C 2,2 C 92 % 1023,7 hPa 0,0 l/m 8,0 km/h (2 Bft) SW 225 0 min 0,0 UV-I 0 W/m 1,6 C 1,3 C 14,5 km/h (3 Bft)
01.02.2023 02:38 2,8 C 2,2 C 92 % 1023,6 hPa 0,0 l/m 9,7 km/h (2 Bft) W-SW 247 0 min 0,0 UV-I 0 W/m 1,6 C -0,1 C 16,1 km/h (3 Bft)
01.02.2023 02:39 2,8 C 2,2 C 92 % 1023,6 hPa 0,0 l/m 9,7 km/h (2 Bft) SW 225 0 min 0,0 UV-I 0 W/m 1,6 C -0,1 C 16,1 km/h (3 Bft)
01.02.2023 02:40 2,8 C 2,2 C 92 % 1023,6 hPa 0,0 l/m 6,4 km/h (2 Bft) SW 225 0 min 0,0 UV-I 0 W/m 1,6 C 2,8 C 9,7 km/h (2 Bft)
01.02.2023 02:41 2,8 C 2,2 C 92 % 1023,7 hPa 0,0 l/m 4,8 km/h (1 Bft) SW 225 0 min 0,0 UV-I 0 W/m 1,6 C 2,8 C 11,3 km/h (2 Bft)
01.02.2023 02:42 2,8 C 2,2 C 92 % 1023,5 hPa 0,0 l/m 9,7 km/h (2 Bft) W-SW 247 0 min 0,0 UV-I 0 W/m 1,6 C -0,1 C 17,7 km/h (3 Bft)
01.02.2023 02:43 2,8 C 2,2 C 92 % 1023,5 hPa 0,0 l/m 11,3 km/h (2 Bft) SW 225 0 min 0,0 UV-I 0 W/m 1,6 C -1,3 C 17,7 km/h (3 Bft)
01.02.2023 02:44 2,8 C 2,2 C 92 % 1023,5 hPa 0,0 l/m 8,0 km/h (2 Bft) W-SW 247 0 min 0,0 UV-I 0 W/m 1,6 C 1,3 C 16,1 km/h (3 Bft)
01.02.2023 02:45 2,8 C 2,2 C 92 % 1023,5 hPa 0,0 l/m 6,4 km/h (2 Bft) SW 225 0 min 0,0 UV-I 0 W/m 1,6 C 2,8 C 11,3 km/h (2 Bft)
01.02.2023 02:46 2,8 C 2,2 C 92 % 1023,6 hPa 0,0 l/m 12,9 km/h (3 Bft) S-SW 202 0 min 0,0 UV-I 0 W/m 1,6 C -2,4 C 19,3 km/h (3 Bft)
01.02.2023 02:47 2,8 C 2,2 C 92 % 1023,5 hPa 0,0 l/m 8,0 km/h (2 Bft) S-SW 202 0 min 0,0 UV-I 0 W/m 1,6 C 1,3 C 12,9 km/h (3 Bft)
01.02.2023 02:48 2,8 C 2,2 C 92 % 1023,4 hPa 0,0 l/m 6,4 km/h (2 Bft) SW 225 0 min 0,0 UV-I 0 W/m 1,6 C 2,8 C 8,0 km/h (2 Bft)
01.02.2023 02:49 2,8 C 2,2 C 92 % 1023,3 hPa 0,0 l/m 8,0 km/h (2 Bft) S-SW 202 0 min 0,0 UV-I 0 W/m 1,6 C 1,3 C 14,5 km/h (3 Bft)
01.02.2023 02:50 2,8 C 2,2 C 92 % 1023,3 hPa 0,0 l/m 9,7 km/h (2 Bft) SW 225 0 min 0,0 UV-I 0 W/m 1,6 C -0,1 C 16,1 km/h (3 Bft)
01.02.2023 02:51 2,8 C 2,2 C 92 % 1023,3 hPa 0,0 l/m 6,4 km/h (2 Bft) SW 225 0 min 0,0 UV-I 0 W/m 1,6 C 2,8 C 9,7 km/h (2 Bft)
01.02.2023 02:52 2,8 C 2,2 C 92 % 1023,3 hPa 0,0 l/m 9,7 km/h (2 Bft) W-SW 247 0 min 0,0 UV-I 0 W/m 1,6 C -0,1 C 14,5 km/h (3 Bft)
01.02.2023 02:53 2,8 C 2,2 C 92 % 1023,3 hPa 0,0 l/m 9,7 km/h (2 Bft) W-SW 247 0 min 0,0 UV-I 0 W/m 1,6 C -0,1 C 14,5 km/h (3 Bft)
01.02.2023 02:54 2,8 C 1,7 C 92 % 1023,2 hPa 0,0 l/m 8,0 km/h (2 Bft) W-SW 247 0 min 0,0 UV-I 0 W/m 1,6 C 1,3 C 12,9 km/h (3 Bft)
01.02.2023 02:55 2,8 C 1,7 C 92 % 1023,4 hPa 0,0 l/m 9,7 km/h (2 Bft) SW 225 0 min 0,0 UV-I 0 W/m 1,6 C -0,1 C 16,1 km/h (3 Bft)
01.02.2023 02:56 2,8 C 1,7 C 92 % 1023,3 hPa 0,0 l/m 9,7 km/h (2 Bft) SW 225 0 min 0,0 UV-I 0 W/m 1,6 C -0,1 C 16,1 km/h (3 Bft)
01.02.2023 02:57 2,8 C 1,7 C 92 % 1023,3 hPa 0,0 l/m 8,0 km/h (2 Bft) SW 225 0 min 0,0 UV-I 0 W/m 1,6 C 1,3 C 12,9 km/h (3 Bft)
01.02.2023 02:58 2,8 C 1,7 C 92 % 1023,4 hPa 0,0 l/m 6,4 km/h (2 Bft) SW 225 0 min 0,0 UV-I 0 W/m 1,6 C 2,8 C 9,7 km/h (2 Bft)
01.02.2023 02:59 2,8 C 1,7 C 92 % 1023,4 hPa 0,0 l/m 9,7 km/h (2 Bft) SW 225 0 min 0,0 UV-I 0 W/m 1,6 C -0,1 C 17,7 km/h (3 Bft)
01.02.2023 03:00 2,8 C 1,7 C 92 % 1023,4 hPa 0,0 l/m 9,7 km/h (2 Bft) SW 225 0 min 0,0 UV-I 0 W/m 1,6 C -0,1 C 14,5 km/h (3 Bft)
01.02.2023 03:01 2,8 C 1,7 C 92 % 1023,4 hPa 0,0 l/m 8,0 km/h (2 Bft) SW 225 0 min 0,0 UV-I 0 W/m 1,6 C 1,3 C 12,9 km/h (3 Bft)
01.02.2023 03:02 2,7 C 1,7 C 92 % 1023,5 hPa 0,0 l/m 9,7 km/h (2 Bft) SW 225 0 min 0,0 UV-I 0 W/m 1,5 C -0,2 C 14,5 km/h (3 Bft)
01.02.2023 03:03 2,8 C 1,7 C 92 % 1023,4 hPa 0,0 l/m 6,4 km/h (2 Bft) SW 225 0 min 0,0 UV-I 0 W/m 1,6 C 2,8 C 9,7 km/h (2 Bft)
01.02.2023 03:04 2,8 C 1,7 C 92 % 1023,5 hPa 0,0 l/m 8,0 km/h (2 Bft) SW 225 0 min 0,0 UV-I 0 W/m 1,6 C 1,3 C 12,9 km/h (3 Bft)
01.02.2023 03:05 2,8 C 1,7 C 92 % 1023,5 hPa 0,0 l/m 9,7 km/h (2 Bft) W-SW 247 0 min 0,0 UV-I 0 W/m 1,6 C -0,1 C 14,5 km/h (3 Bft)
01.02.2023 03:06 2,8 C 1,7 C 92 % 1023,5 hPa 0,0 l/m 6,4 km/h (2 Bft) SW 225 0 min 0,0 UV-I 0 W/m 1,6 C 2,8 C 11,3 km/h (2 Bft)
01.02.2023 03:07 2,8 C 1,7 C 92 % 1023,5 hPa 0,0 l/m 6,4 km/h (2 Bft) SW 225 0 min 0,0 UV-I 0 W/m 1,6 C 2,8 C 9,7 km/h (2 Bft)
01.02.2023 03:08 2,7 C 1,7 C 92 % 1023,6 hPa 0,0 l/m 8,0 km/h (2 Bft) SW 225 0 min 0,0 UV-I 0 W/m 1,5 C 1,2 C 12,9 km/h (3 Bft)
01.02.2023 03:09 2,8 C 1,7 C 92 % 1023,5 hPa 0,0 l/m 8,0 km/h (2 Bft) W 270 0 min 0,0 UV-I 0 W/m 1,6 C 1,3 C 14,5 km/h (3 Bft)
01.02.2023 03:10 2,8 C 1,7 C 92 % 1023,5 hPa 0,0 l/m 6,4 km/h (2 Bft) SW 225 0 min 0,0 UV-I 0 W/m 1,6 C 2,8 C 9,7 km/h (2 Bft)
01.02.2023 03:11 2,7 C 2,2 C 92 % 1023,7 hPa 0,0 l/m 8,0 km/h (2 Bft) W-SW 247 0 min 0,0 UV-I 0 W/m 1,5 C 1,2 C 14,5 km/h (3 Bft)
01.02.2023 03:12 2,8 C 2,2 C 92 % 1023,6 hPa 0,0 l/m 9,7 km/h (2 Bft) W-SW 247 0 min 0,0 UV-I 0 W/m 1,6 C -0,1 C 14,5 km/h (3 Bft)
01.02.2023 03:13 2,8 C 2,2 C 92 % 1023,6 hPa 0,0 l/m 12,9 km/h (3 Bft) W-SW 247 0 min 0,0 UV-I 0 W/m 1,6 C -2,4 C 22,5 km/h (4 Bft)
01.02.2023 03:14 2,8 C 2,2 C 92 % 1023,6 hPa 0,0 l/m 6,4 km/h (2 Bft) SW 225 0 min 0,0 UV-I 0 W/m 1,6 C 2,8 C 11,3 km/h (2 Bft)
01.02.2023 03:15 2,8 C 2,2 C 92 % 1023,6 hPa 0,0 l/m 11,3 km/h (2 Bft) S-SW 202 0 min 0,0 UV-I 0 W/m 1,6 C -1,3 C 20,9 km/h (4 Bft)
01.02.2023 03:16 2,8 C 2,2 C 92 % 1023,6 hPa 0,0 l/m 14,5 km/h (3 Bft) W-SW 247 0 min 0,0 UV-I 0 W/m 1,6 C -3,3 C 20,9 km/h (4 Bft)
01.02.2023 03:17 2,8 C 2,2 C 92 % 1023,6 hPa 0,0 l/m 9,7 km/h (2 Bft) SW 225 0 min 0,0 UV-I 0 W/m 1,6 C -0,1 C 16,1 km/h (3 Bft)
01.02.2023 03:18 2,8 C 2,2 C 92 % 1023,5 hPa 0,0 l/m 6,4 km/h (2 Bft) SW 225 0 min 0,0 UV-I 0 W/m 1,6 C 2,8 C 11,3 km/h (2 Bft)
01.02.2023 03:19 2,8 C 2,2 C 92 % 1023,6 hPa 0,0 l/m 9,7 km/h (2 Bft) W-SW 247 0 min 0,0 UV-I 0 W/m 1,6 C -0,1 C 16,1 km/h (3 Bft)
01.02.2023 03:20 2,8 C 2,2 C 92 % 1023,6 hPa 0,0 l/m 11,3 km/h (2 Bft) SW 225 0 min 0,0 UV-I 0 W/m 1,6 C -1,3 C 17,7 km/h (3 Bft)
01.02.2023 03:21 2,8 C 2,2 C 92 % 1023,5 hPa 0,0 l/m 8,0 km/h (2 Bft) W-SW 247 0 min 0,0 UV-I 0 W/m 1,6 C 1,3 C 12,9 km/h (3 Bft)
01.02.2023 03:22 2,8 C 2,2 C 92 % 1023,4 hPa 0,0 l/m 9,7 km/h (2 Bft) W-SW 247 0 min 0,0 UV-I 0 W/m 1,6 C -0,1 C 19,3 km/h (3 Bft)
01.02.2023 03:23 2,8 C 2,2 C 92 % 1023,5 hPa 0,0 l/m 9,7 km/h (2 Bft) SW 225 0 min 0,0 UV-I 0 W/m 1,6 C -0,1 C 16,1 km/h (3 Bft)
01.02.2023 03:24 2,8 C 2,2 C 92 % 1023,5 hPa 0,0 l/m 8,0 km/h (2 Bft) SW 225 0 min 0,0 UV-I 0 W/m 1,6 C 1,3 C 12,9 km/h (3 Bft)
01.02.2023 03:25 2,8 C 2,2 C 92 % 1023,5 hPa 0,0 l/m 12,9 km/h (3 Bft) W 270 0 min 0,0 UV-I 0 W/m 1,6 C -2,4 C 16,1 km/h (3 Bft)
01.02.2023 03:26 2,8 C 2,2 C 92 % 1023,5 hPa 0,0 l/m 14,5 km/h (3 Bft) SW 225 0 min 0,0 UV-I 0 W/m 1,6 C -3,3 C 22,5 km/h (4 Bft)
01.02.2023 03:27 2,8 C 2,2 C 92 % 1023,4 hPa 0,0 l/m 9,7 km/h (2 Bft) SW 225 0 min 0,0 UV-I 0 W/m 1,6 C -0,1 C 14,5 km/h (3 Bft)
01.02.2023 03:28 2,8 C 2,2 C 92 % 1023,4 hPa 0,0 l/m 11,3 km/h (2 Bft) SW 225 0 min 0,0 UV-I 0 W/m 1,6 C -1,3 C 16,1 km/h (3 Bft)
01.02.2023 03:29 2,8 C 2,2 C 92 % 1023,4 hPa 0,0 l/m 8,0 km/h (2 Bft) W-SW 247 0 min 0,0 UV-I 0 W/m 1,6 C 1,3 C 16,1 km/h (3 Bft)
01.02.2023 03:30 2,8 C 2,2 C 92 % 1023,4 hPa 0,0 l/m 8,0 km/h (2 Bft) W-SW 247 0 min 0,0 UV-I 0 W/m 1,6 C 1,3 C 12,9 km/h (3 Bft)
01.02.2023 03:31 2,8 C 2,2 C 92 % 1023,5 hPa 0,0 l/m 8,0 km/h (2 Bft) SW 225 0 min 0,0 UV-I 0 W/m 1,6 C 1,3 C 11,3 km/h (2 Bft)
01.02.2023 03:32 2,8 C 2,2 C 92 % 1023,4 hPa 0,0 l/m 4,8 km/h (1 Bft) SW 225 0 min 0,0 UV-I 0 W/m 1,6 C 2,8 C 9,7 km/h (2 Bft)
01.02.2023 03:33 2,8 C 2,2 C 92 % 1023,4 hPa 0,0 l/m 6,4 km/h (2 Bft) W-SW 247 0 min 0,0 UV-I 0 W/m 1,6 C 2,8 C 11,3 km/h (2 Bft)
01.02.2023 03:34 2,8 C 2,2 C 92 % 1023,4 hPa 0,0 l/m 6,4 km/h (2 Bft) W-SW 247 0 min 0,0 UV-I 0 W/m 1,6 C 2,8 C 12,9 km/h (3 Bft)
01.02.2023 03:35 2,8 C 2,2 C 92 % 1023,4 hPa 0,0 l/m 8,0 km/h (2 Bft) SW 225 0 min 0,0 UV-I 0 W/m 1,6 C 1,3 C 14,5 km/h (3 Bft)
01.02.2023 03:36 2,8 C 2,2 C 92 % 1023,4 hPa 0,0 l/m 11,3 km/h (2 Bft) SW 225 0 min 0,0 UV-I 0 W/m 1,6 C -1,3 C 19,3 km/h (3 Bft)
01.02.2023 03:37 2,8 C 2,2 C 92 % 1023,3 hPa 0,0 l/m 8,0 km/h (2 Bft) SW 225 0 min 0,0 UV-I 0 W/m 1,6 C 1,3 C 12,9 km/h (3 Bft)
01.02.2023 03:38 2,8 C 2,2 C 92 % 1023,3 hPa 0,0 l/m 8,0 km/h (2 Bft) W-SW 247 0 min 0,0 UV-I 0 W/m 1,6 C 1,3 C 14,5 km/h (3 Bft)
01.02.2023 03:39 2,8 C 2,2 C 92 % 1023,2 hPa 0,0 l/m 4,8 km/h (1 Bft) SW 225 0 min 0,0 UV-I 0 W/m 1,6 C 2,8 C 8,0 km/h (2 Bft)
01.02.2023 03:40 2,8 C 2,2 C 92 % 1023,2 hPa 0,0 l/m 8,0 km/h (2 Bft) SW 225 0 min 0,0 UV-I 0 W/m 1,6 C 1,3 C 16,1 km/h (3 Bft)
01.02.2023 03:41 2,8 C 2,2 C 92 % 1023,3 hPa 0,0 l/m 14,5 km/h (3 Bft) SW 225 0 min 0,0 UV-I 0 W/m 1,6 C -3,3 C 22,5 km/h (4 Bft)
01.02.2023 03:42 2,8 C 2,2 C 92 % 1023,3 hPa 0,0 l/m 8,0 km/h (2 Bft) W-SW 247 0 min 0,0 UV-I 0 W/m 1,6 C 1,3 C 16,1 km/h (3 Bft)
01.02.2023 03:43 2,8 C 2,2 C 92 % 1023,4 hPa 0,0 l/m 8,0 km/h (2 Bft) SW 225 0 min 0,0 UV-I 0 W/m 1,6 C 1,3 C 14,5 km/h (3 Bft)
01.02.2023 03:44 2,8 C 2,2 C 92 % 1023,4 hPa 0,0 l/m 6,4 km/h (2 Bft) SW 225 0 min 0,0 UV-I 0 W/m 1,6 C 2,8 C 12,9 km/h (3 Bft)
01.02.2023 03:45 2,8 C 2,2 C 92 % 1023,4 hPa 0,0 l/m 9,7 km/h (2 Bft) SW 225 0 min 0,0 UV-I 0 W/m 1,6 C -0,1 C 14,5 km/h (3 Bft)
01.02.2023 03:46 2,8 C 2,2 C 92 % 1023,5 hPa 0,0 l/m 8,0 km/h (2 Bft) SW 225 0 min 0,0 UV-I 0 W/m 1,6 C 1,3 C 14,5 km/h (3 Bft)
01.02.2023 03:47 2,8 C 2,2 C 92 % 1023,6 hPa 0,0 l/m 4,8 km/h (1 Bft) SW 225 0 min 0,0 UV-I 0 W/m 1,6 C 2,8 C 11,3 km/h (2 Bft)
01.02.2023 03:48 2,8 C 2,2 C 91 % 1023,5 hPa 0,0 l/m 6,4 km/h (2 Bft) SW 225 0 min 0,0 UV-I 0 W/m 1,5 C 2,8 C 11,3 km/h (2 Bft)
01.02.2023 03:49 2,8 C 2,2 C 91 % 1023,5 hPa 0,0 l/m 6,4 km/h (2 Bft) W-SW 247 0 min 0,0 UV-I 0 W/m 1,5 C 2,8 C 9,7 km/h (2 Bft)
01.02.2023 03:50 2,8 C 2,2 C 92 % 1023,5 hPa 0,0 l/m 8,0 km/h (2 Bft) W-SW 247 0 min 0,0 UV-I 0 W/m 1,6 C 1,3 C 17,7 km/h (3 Bft)
01.02.2023 03:51 2,8 C 2,2 C 91 % 1023,4 hPa 0,0 l/m 8,0 km/h (2 Bft) SW 225 0 min 0,0 UV-I 0 W/m 1,5 C 1,3 C 14,5 km/h (3 Bft)
01.02.2023 03:52 2,8 C 2,2 C 91 % 1023,4 hPa 0,0 l/m 6,4 km/h (2 Bft) W-SW 247 0 min 0,0 UV-I 0 W/m 1,5 C 2,8 C 11,3 km/h (2 Bft)
01.02.2023 03:53 2,8 C 2,2 C 92 % 1023,4 hPa 0,0 l/m 8,0 km/h (2 Bft) W-SW 247 0 min 0,0 UV-I 0 W/m 1,6 C 1,3 C 12,9 km/h (3 Bft)
01.02.2023 03:54 2,8 C 2,2 C 92 % 1023,4 hPa 0,0 l/m 8,0 km/h (2 Bft) SW 225 0 min 0,0 UV-I 0 W/m 1,6 C 1,3 C 16,1 km/h (3 Bft)
01.02.2023 03:55 2,8 C 2,2 C 92 % 1023,4 hPa 0,0 l/m 8,0 km/h (2 Bft) W-SW 247 0 min 0,0 UV-I 0 W/m 1,6 C 1,3 C 12,9 km/h (3 Bft)
01.02.2023 03:56 2,8 C 2,2 C 92 % 1023,5 hPa 0,0 l/m 6,4 km/h (2 Bft) W-SW 247 0 min 0,0 UV-I 0 W/m 1,6 C 2,8 C 14,5 km/h (3 Bft)
01.02.2023 03:57 2,8 C 2,2 C 92 % 1023,5 hPa 0,0 l/m 6,4 km/h (2 Bft) W-SW 247 0 min 0,0 UV-I 0 W/m 1,6 C 2,8 C 12,9 km/h (3 Bft)
01.02.2023 03:58 2,8 C 2,2 C 92 % 1023,4 hPa 0,0 l/m 6,4 km/h (2 Bft) W-SW 247 0 min 0,0 UV-I 0 W/m 1,6 C 2,8 C 12,9 km/h (3 Bft)
01.02.2023 03:59 2,8 C 2,2 C 92 % 1023,5 hPa 0,0 l/m 9,7 km/h (2 Bft) W-SW 247 0 min 0,0 UV-I 0 W/m 1,6 C -0,1 C 14,5 km/h (3 Bft)
01.02.2023 04:00 2,8 C 2,2 C 92 % 1023,5 hPa 0,0 l/m 11,3 km/h (2 Bft) W 270 0 min 0,0 UV-I 0 W/m 1,6 C -1,3 C 16,1 km/h (3 Bft)
01.02.2023 04:01 2,8 C 2,2 C 92 % 1023,4 hPa 0,0 l/m 9,7 km/h (2 Bft) W-SW 247 0 min 0,0 UV-I 0 W/m 1,6 C -0,1 C 17,7 km/h (3 Bft)
01.02.2023 04:02 2,8 C 2,2 C 92 % 1023,4 hPa 0,0 l/m 11,3 km/h (2 Bft) W-SW 247 0 min 0,0 UV-I 0 W/m 1,6 C -1,3 C 14,5 km/h (3 Bft)
01.02.2023 04:03 2,8 C 2,2 C 92 % 1023,4 hPa 0,0 l/m 11,3 km/h (2 Bft) W-SW 247 0 min 0,0 UV-I 0 W/m 1,6 C -1,3 C 24,1 km/h (4 Bft)
01.02.2023 04:04 2,8 C 2,2 C 92 % 1023,4 hPa 0,0 l/m 9,7 km/h (2 Bft) SW 225 0 min 0,0 UV-I 0 W/m 1,6 C -0,1 C 16,1 km/h (3 Bft)
01.02.2023 04:05 2,8 C 2,2 C 92 % 1023,3 hPa 0,0 l/m 9,7 km/h (2 Bft) W-SW 247 0 min 0,0 UV-I 0 W/m 1,6 C -0,1 C 16,1 km/h (3 Bft)
01.02.2023 04:06 2,8 C 2,2 C 92 % 1023,4 hPa 0,0 l/m 11,3 km/h (2 Bft) W-SW 247 0 min 0,0 UV-I 0 W/m 1,6 C -1,3 C 22,5 km/h (4 Bft)
01.02.2023 04:07 2,9 C 2,2 C 92 % 1023,3 hPa 0,0 l/m 8,0 km/h (2 Bft) SW 225 0 min 0,0 UV-I 0 W/m 1,7 C 1,4 C 11,3 km/h (2 Bft)
01.02.2023 04:08 2,9 C 2,2 C 92 % 1023,3 hPa 0,0 l/m 8,0 km/h (2 Bft) W-SW 247 0 min 0,0 UV-I 0 W/m 1,7 C 1,4 C 14,5 km/h (3 Bft)
01.02.2023 04:09 2,9 C 2,2 C 92 % 1023,3 hPa 0,0 l/m 14,5 km/h (3 Bft) W-SW 247 0 min 0,0 UV-I 0 W/m 1,7 C -3,2 C 20,9 km/h (4 Bft)
01.02.2023 04:10 2,9 C 2,2 C 92 % 1023,3 hPa 0,0 l/m 19,3 km/h (3 Bft) SW 225 0 min 0,0 UV-I 0 W/m 1,7 C -5,6 C 25,7 km/h (4 Bft)
01.02.2023 04:11 2,9 C 2,2 C 92 % 1023,4 hPa 0,0 l/m 8,0 km/h (2 Bft) W 270 0 min 0,0 UV-I 0 W/m 1,7 C 1,4 C 14,5 km/h (3 Bft)
01.02.2023 04:12 2,9 C 2,2 C 92 % 1023,4 hPa 0,0 l/m 12,9 km/h (3 Bft) W 270 0 min 0,0 UV-I 0 W/m 1,7 C -2,2 C 20,9 km/h (4 Bft)
01.02.2023 04:13 2,9 C 2,2 C 92 % 1023,3 hPa 0,0 l/m 16,1 km/h (3 Bft) W-SW 247 0 min 0,0 UV-I 0 W/m 1,7 C -4,1 C 22,5 km/h (4 Bft)
01.02.2023 04:14 2,9 C 2,2 C 92 % 1023,2 hPa 0,0 l/m 14,5 km/h (3 Bft) W-SW 247 0 min 0,0 UV-I 0 W/m 1,7 C -3,2 C 19,3 km/h (3 Bft)
01.02.2023 04:15 2,9 C 2,2 C 92 % 1023,4 hPa 0,0 l/m 11,3 km/h (2 Bft) W-SW 247 0 min 0,0 UV-I 0 W/m 1,7 C -1,2 C 19,3 km/h (3 Bft)
01.02.2023 04:16 2,9 C 2,2 C 92 % 1023,2 hPa 0,0 l/m 12,9 km/h (3 Bft) W 270 0 min 0,0 UV-I 0 W/m 1,7 C -2,2 C 17,7 km/h (3 Bft)
01.02.2023 04:17 2,9 C 2,2 C 92 % 1023,2 hPa 0,0 l/m 11,3 km/h (2 Bft) SW 225 0 min 0,0 UV-I 0 W/m 1,7 C -1,2 C 22,5 km/h (4 Bft)
01.02.2023 04:18 2,9 C 2,2 C 91 % 1023,2 hPa 0,0 l/m 17,7 km/h (3 Bft) W-SW 247 0 min 0,0 UV-I 0 W/m 1,6 C -4,8 C 22,5 km/h (4 Bft)
01.02.2023 04:19 2,9 C 2,2 C 92 % 1023,3 hPa 0,0 l/m 14,5 km/h (3 Bft) SW 225 0 min 0,0 UV-I 0 W/m 1,7 C -3,2 C 19,3 km/h (3 Bft)
01.02.2023 04:20 2,9 C 2,2 C 92 % 1023,2 hPa 0,0 l/m 11,3 km/h (2 Bft) SW 225 0 min 0,0 UV-I 0 W/m 1,7 C -1,2 C 19,3 km/h (3 Bft)
01.02.2023 04:21 2,9 C 2,2 C 92 % 1023,2 hPa 0,0 l/m 14,5 km/h (3 Bft) W 270 0 min 0,0 UV-I 0 W/m 1,7 C -3,2 C 25,7 km/h (4 Bft)
01.02.2023 04:22 2,9 C 2,2 C 92 % 1023,2 hPa 0,0 l/m 14,5 km/h (3 Bft) W-SW 247 0 min 0,0 UV-I 0 W/m 1,7 C -3,2 C 24,1 km/h (4 Bft)
01.02.2023 04:23 3,0 C 2,2 C 92 % 1023,3 hPa 0,0 l/m 16,1 km/h (3 Bft) W-SW 247 0 min 0,0 UV-I 0 W/m 1,8 C -3,9 C 22,5 km/h (4 Bft)
01.02.2023 04:24 3,0 C 2,2 C 92 % 1023,2 hPa 0,0 l/m 14,5 km/h (3 Bft) W-SW 247 0 min 0,0 UV-I 0 W/m 1,8 C -3,1 C 19,3 km/h (3 Bft)
01.02.2023 04:25 3,0 C 2,2 C 92 % 1023,2 hPa 0,0 l/m 17,7 km/h (3 Bft) W-SW 247 0 min 0,0 UV-I 0 W/m 1,8 C -4,7 C 27,4 km/h (4 Bft)
01.02.2023 04:26 3,0 C 2,2 C 92 % 1023,2 hPa 0,0 l/m 9,7 km/h (2 Bft) W-SW 247 0 min 0,0 UV-I 0 W/m 1,8 C 0,1 C 27,4 km/h (4 Bft)
01.02.2023 04:27 3,1 C 2,2 C 92 % 1023,3 hPa 0,0 l/m 8,0 km/h (2 Bft) SW 225 0 min 0,0 UV-I 0 W/m 1,9 C 1,6 C 17,7 km/h (3 Bft)
01.02.2023 04:28 3,1 C 2,2 C 92 % 1023,1 hPa 0,0 l/m 8,0 km/h (2 Bft) W 270 0 min 0,0 UV-I 0 W/m 1,9 C 1,6 C 14,5 km/h (3 Bft)
01.02.2023 04:29 3,1 C 2,2 C 91 % 1023,1 hPa 0,0 l/m 11,3 km/h (2 Bft) SW 225 0 min 0,0 UV-I 0 W/m 1,8 C -1,0 C 16,1 km/h (3 Bft)
01.02.2023 04:30 3,1 C 2,2 C 91 % 1023,2 hPa 0,0 l/m 14,5 km/h (3 Bft) W 270 0 min 0,0 UV-I 0 W/m 1,8 C -2,9 C 25,7 km/h (4 Bft)
01.02.2023 04:31 3,1 C 2,2 C 91 % 1023,1 hPa 0,0 l/m 12,9 km/h (3 Bft) W-SW 247 0 min 0,0 UV-I 0 W/m 1,8 C -2,0 C 19,3 km/h (3 Bft)
01.02.2023 04:32 3,0 C 2,2 C 91 % 1023,2 hPa 0,0 l/m 16,1 km/h (3 Bft) W-SW 247 0 min 0,0 UV-I 0 W/m 1,7 C -3,9 C 27,4 km/h (4 Bft)
01.02.2023 04:33 3,0 C 2,2 C 91 % 1023,2 hPa 0,0 l/m 16,1 km/h (3 Bft) W-SW 247 0 min 0,0 UV-I 0 W/m 1,7 C -3,9 C 25,7 km/h (4 Bft)
01.02.2023 04:34 3,0 C 2,2 C 91 % 1023,2 hPa 0,0 l/m 14,5 km/h (3 Bft) W 270 0 min 0,0 UV-I 0 W/m 1,7 C -3,1 C 19,3 km/h (3 Bft)
01.02.2023 04:35 3,0 C 2,2 C 91 % 1023,1 hPa 0,0 l/m 14,5 km/h (3 Bft) W-SW 247 0 min 0,0 UV-I 0 W/m 1,7 C -3,1 C 24,1 km/h (4 Bft)
01.02.2023 04:36 3,1 C 2,2 C 91 % 1023,2 hPa 0,0 l/m 11,3 km/h (2 Bft) SW 225 0 min 0,0 UV-I 0 W/m 1,8 C -1,0 C 17,7 km/h (3 Bft)
01.02.2023 04:37 3,1 C 2,2 C 91 % 1023,2 hPa 0,0 l/m 11,3 km/h (2 Bft) SW 225 0 min 0,0 UV-I 0 W/m 1,8 C -1,0 C 17,7 km/h (3 Bft)
01.02.2023 04:38 3,1 C 2,2 C 91 % 1023,3 hPa 0,0 l/m 11,3 km/h (2 Bft) W-SW 247 0 min 0,0 UV-I 0 W/m 1,8 C -1,0 C 16,1 km/h (3 Bft)
01.02.2023 04:39 3,1 C 2,2 C 91 % 1023,1 hPa 0,0 l/m 14,5 km/h (3 Bft) W 270 0 min 0,0 UV-I 0 W/m 1,8 C -2,9 C 24,1 km/h (4 Bft)
01.02.2023 04:40 3,1 C 2,2 C 91 % 1023,1 hPa 0,0 l/m 17,7 km/h (3 Bft) W-SW 247 0 min 0,0 UV-I 0 W/m 1,8 C -4,6 C 25,7 km/h (4 Bft)
01.02.2023 04:41 3,1 C 2,2 C 91 % 1023,1 hPa 0,0 l/m 9,7 km/h (2 Bft) SW 225 0 min 0,0 UV-I 0 W/m 1,8 C 0,2 C 19,3 km/h (3 Bft)
01.02.2023 04:42 3,1 C 2,2 C 91 % 1023,1 hPa 0,0 l/m 9,7 km/h (2 Bft) W-SW 247 0 min 0,0 UV-I 0 W/m 1,8 C 0,2 C 16,1 km/h (3 Bft)
01.02.2023 04:43 3,1 C 2,2 C 91 % 1023,1 hPa 0,0 l/m 16,1 km/h (3 Bft) W-SW 247 0 min 0,0 UV-I 0 W/m 1,8 C -3,8 C 22,5 km/h (4 Bft)
01.02.2023 04:44 3,1 C 2,2 C 91 % 1023,1 hPa 0,0 l/m 12,9 km/h (3 Bft) W 270 0 min 0,0 UV-I 0 W/m 1,8 C -2,0 C 19,3 km/h (3 Bft)
01.02.2023 04:45 3,1 C 2,2 C 91 % 1023,1 hPa 0,0 l/m 14,5 km/h (3 Bft) SW 225 0 min 0,0 UV-I 0 W/m 1,8 C -2,9 C 22,5 km/h (4 Bft)
01.02.2023 04:46 3,1 C 2,2 C 91 % 1023,1 hPa 0,0 l/m 16,1 km/h (3 Bft) W-SW 247 0 min 0,0 UV-I 0 W/m 1,8 C -3,8 C 24,1 km/h (4 Bft)
01.02.2023 04:47 3,1 C 2,2 C 91 % 1022,9 hPa 0,0 l/m 17,7 km/h (3 Bft) W-SW 247 0 min 0,0 UV-I 0 W/m 1,8 C -4,6 C 30,6 km/h (5 Bft)
01.02.2023 04:48 3,1 C 2,2 C 91 % 1023,0 hPa 0,0 l/m 17,7 km/h (3 Bft) W 270 0 min 0,0 UV-I 0 W/m 1,8 C -4,6 C 30,6 km/h (5 Bft)
01.02.2023 04:49 3,1 C 2,2 C 91 % 1023,1 hPa 0,0 l/m 19,3 km/h (3 Bft) W-SW 247 0 min 0,0 UV-I 0 W/m 1,8 C -5,3 C 29,0 km/h (5 Bft)
01.02.2023 04:50 3,1 C 2,2 C 91 % 1023,1 hPa 0,0 l/m 8,0 km/h (2 Bft) W-SW 247 0 min 0,0 UV-I 0 W/m 1,8 C 1,6 C 17,7 km/h (3 Bft)
01.02.2023 04:51 3,1 C 2,2 C 91 % 1023,0 hPa 0,0 l/m 14,5 km/h (3 Bft) W-SW 247 0 min 0,0 UV-I 0 W/m 1,8 C -2,9 C 24,1 km/h (4 Bft)
01.02.2023 04:52 3,1 C 2,2 C 91 % 1023,1 hPa 0,0 l/m 14,5 km/h (3 Bft) W 270 0 min 0,0 UV-I 0 W/m 1,8 C -2,9 C 19,3 km/h (3 Bft)
01.02.2023 04:53 3,1 C 2,2 C 91 % 1023,1 hPa 0,0 l/m 14,5 km/h (3 Bft) SW 225 0 min 0,0 UV-I 0 W/m 1,8 C -2,9 C 27,4 km/h (4 Bft)
01.02.2023 04:54 3,1 C 2,2 C 91 % 1023,1 hPa 0,0 l/m 22,5 km/h (4 Bft) W-SW 247 0 min 0,0 UV-I 0 W/m 1,8 C -6,6 C 32,2 km/h (5 Bft)
01.02.2023 04:55 3,1 C 2,2 C 91 % 1023,1 hPa 0,0 l/m 16,1 km/h (3 Bft) W-SW 247 0 min 0,0 UV-I 0 W/m 1,8 C -3,8 C 27,4 km/h (4 Bft)
01.02.2023 04:56 3,1 C 2,2 C 90 % 1023,1 hPa 0,0 l/m 20,9 km/h (4 Bft) W-SW 247 0 min 0,0 UV-I 0 W/m 1,6 C -6,0 C 32,2 km/h (5 Bft)
01.02.2023 04:57 3,1 C 2,2 C 90 % 1023,1 hPa 0,0 l/m 17,7 km/h (3 Bft) W-SW 247 0 min 0,0 UV-I 0 W/m 1,6 C -4,6 C 25,7 km/h (4 Bft)
01.02.2023 04:58 3,1 C 2,2 C 90 % 1023,2 hPa 0,0 l/m 16,1 km/h (3 Bft) W-SW 247 0 min 0,0 UV-I 0 W/m 1,6 C -3,8 C 25,7 km/h (4 Bft)
01.02.2023 04:59 3,1 C 2,2 C 90 % 1023,1 hPa 0,0 l/m 14,5 km/h (3 Bft) W-SW 247 0 min 0,0 UV-I 0 W/m 1,6 C -2,9 C 20,9 km/h (4 Bft)
01.02.2023 05:00 3,1 C 2,2 C 90 % 1023,2 hPa 0,0 l/m 19,3 km/h (3 Bft) W 270 0 min 0,0 UV-I 0 W/m 1,6 C -5,3 C 29,0 km/h (5 Bft)
01.02.2023 05:01 3,1 C 2,2 C 90 % 1023,2 hPa 0,0 l/m 16,1 km/h (3 Bft) W-SW 247 0 min 0,0 UV-I 0 W/m 1,6 C -3,8 C 22,5 km/h (4 Bft)
01.02.2023 05:02 3,1 C 2,2 C 90 % 1023,2 hPa 0,0 l/m 14,5 km/h (3 Bft) W-SW 247 0 min 0,0 UV-I 0 W/m 1,6 C -2,9 C 20,9 km/h (4 Bft)
01.02.2023 05:03 3,1 C 2,2 C 90 % 1023,1 hPa 0,0 l/m 19,3 km/h (3 Bft) W 270 0 min 0,0 UV-I 0 W/m 1,6 C -5,3 C 27,4 km/h (4 Bft)
01.02.2023 05:04 3,1 C 2,2 C 90 % 1023,1 hPa 0,0 l/m 19,3 km/h (3 Bft) W 270 0 min 0,0 UV-I 0 W/m 1,6 C -5,3 C 32,2 km/h (5 Bft)
01.02.2023 05:05 3,1 C 2,2 C 90 % 1023,1 hPa 0,0 l/m 14,5 km/h (3 Bft) W 270 0 min 0,0 UV-I 0 W/m 1,6 C -2,9 C 19,3 km/h (3 Bft)
01.02.2023 05:06 3,1 C 2,2 C 90 % 1023,3 hPa 0,0 l/m 17,7 km/h (3 Bft) W 270 0 min 0,0 UV-I 0 W/m 1,6 C -4,6 C 33,8 km/h (5 Bft)
01.02.2023 05:07 3,1 C 2,2 C 89 % 1023,1 hPa 0,0 l/m 19,3 km/h (3 Bft) W-SW 247 0 min 0,0 UV-I 0 W/m 1,5 C -5,3 C 30,6 km/h (5 Bft)
01.02.2023 05:08 3,1 C 2,2 C 89 % 1023,2 hPa 0,0 l/m 19,3 km/h (3 Bft) W-SW 247 0 min 0,0 UV-I 0 W/m 1,5 C -5,3 C 33,8 km/h (5 Bft)
01.02.2023 05:09 3,1 C 2,2 C 89 % 1023,2 hPa 0,0 l/m 17,7 km/h (3 Bft) W 270 0 min 0,0 UV-I 0 W/m 1,5 C -4,6 C 24,1 km/h (4 Bft)
01.02.2023 05:10 3,1 C 2,2 C 89 % 1023,2 hPa 0,0 l/m 20,9 km/h (4 Bft) W-SW 247 0 min 0,0 UV-I 0 W/m 1,5 C -6,0 C 29,0 km/h (5 Bft)
01.02.2023 05:11 3,0 C 2,2 C 89 % 1023,3 hPa 0,0 l/m 16,1 km/h (3 Bft) W-SW 247 0 min 0,0 UV-I 0 W/m 1,4 C -3,9 C 24,1 km/h (4 Bft)
01.02.2023 05:12 3,0 C 2,2 C 89 % 1023,4 hPa 0,0 l/m 14,5 km/h (3 Bft) W 270 0 min 0,0 UV-I 0 W/m 1,4 C -3,1 C 25,7 km/h (4 Bft)
01.02.2023 05:13 3,1 C 2,2 C 89 % 1023,4 hPa 0,0 l/m 19,3 km/h (3 Bft) W-SW 247 0 min 0,0 UV-I 0 W/m 1,5 C -5,3 C 30,6 km/h (5 Bft)
01.02.2023 05:14 3,0 C 2,2 C 89 % 1023,4 hPa 0,0 l/m 17,7 km/h (3 Bft) W 270 0 min 0,0 UV-I 0 W/m 1,4 C -4,7 C 24,1 km/h (4 Bft)
01.02.2023 05:15 3,0 C 2,2 C 89 % 1023,5 hPa 0,0 l/m 14,5 km/h (3 Bft) W-SW 247 0 min 0,0 UV-I 0 W/m 1,4 C -3,1 C 22,5 km/h (4 Bft)
01.02.2023 05:16 3,0 C 2,2 C 89 % 1023,4 hPa 0,0 l/m 22,5 km/h (4 Bft) W 270 0 min 0,0 UV-I 0 W/m 1,4 C -6,8 C 30,6 km/h (5 Bft)
01.02.2023 05:17 3,0 C 2,2 C 89 % 1023,4 hPa 0,0 l/m 16,1 km/h (3 Bft) W-SW 247 0 min 0,0 UV-I 0 W/m 1,4 C -3,9 C 27,4 km/h (4 Bft)
01.02.2023 05:18 2,9 C 2,2 C 88 % 1023,3 hPa 0,0 l/m 16,1 km/h (3 Bft) W-SW 247 0 min 0,0 UV-I 0 W/m 1,1 C -4,1 C 25,7 km/h (4 Bft)
01.02.2023 05:19 2,9 C 2,2 C 88 % 1023,4 hPa 0,0 l/m 17,7 km/h (3 Bft) W 270 0 min 0,0 UV-I 0 W/m 1,1 C -4,8 C 27,4 km/h (4 Bft)
01.02.2023 05:20 2,9 C 2,2 C 88 % 1023,4 hPa 0,0 l/m 16,1 km/h (3 Bft) W-SW 247 0 min 0,0 UV-I 0 W/m 1,1 C -4,1 C 25,7 km/h (4 Bft)
01.02.2023 05:21 2,9 C 2,2 C 88 % 1023,2 hPa 0,0 l/m 11,3 km/h (2 Bft) W-SW 247 0 min 0,0 UV-I 0 W/m 1,1 C -1,2 C 20,9 km/h (4 Bft)
01.02.2023 05:22 2,9 C 2,2 C 88 % 1023,2 hPa 0,0 l/m 16,1 km/h (3 Bft) W-SW 247 0 min 0,0 UV-I 0 W/m 1,1 C -4,1 C 25,7 km/h (4 Bft)
01.02.2023 05:23 2,9 C 2,2 C 88 % 1023,2 hPa 0,0 l/m 9,7 km/h (2 Bft) W-SW 247 0 min 0,0 UV-I 0 W/m 1,1 C -0,0 C 20,9 km/h (4 Bft)
01.02.2023 05:24 2,9 C 2,2 C 88 % 1023,3 hPa 0,0 l/m 20,9 km/h (4 Bft) W 270 0 min 0,0 UV-I 0 W/m 1,1 C -6,3 C 30,6 km/h (5 Bft)
01.02.2023 05:25 2,9 C 2,2 C 88 % 1023,2 hPa 0,0 l/m 16,1 km/h (3 Bft) W-SW 247 0 min 0,0 UV-I 0 W/m 1,1 C -4,1 C 25,7 km/h (4 Bft)
01.02.2023 05:26 2,9 C 2,2 C 88 % 1023,2 hPa 0,0 l/m 25,7 km/h (4 Bft) W-SW 247 0 min 0,0 UV-I 0 W/m 1,1 C -8,0 C 38,6 km/h (5 Bft)
01.02.2023 05:27 2,9 C 1,7 C 88 % 1023,2 hPa 0,0 l/m 17,7 km/h (3 Bft) W-SW 247 0 min 0,0 UV-I 0 W/m 1,1 C -4,8 C 38,6 km/h (5 Bft)
01.02.2023 05:28 2,8 C 1,7 C 88 % 1023,2 hPa 0,0 l/m 20,9 km/h (4 Bft) W 270 0 min 0,0 UV-I 0 W/m 1,0 C -6,4 C 27,4 km/h (4 Bft)
01.02.2023 05:29 2,9 C 1,7 C 88 % 1023,1 hPa 0,0 l/m 16,1 km/h (3 Bft) W-SW 247 0 min 0,0 UV-I 0 W/m 1,1 C -4,1 C 29,0 km/h (5 Bft)
01.02.2023 05:30 2,8 C 1,7 C 88 % 1023,1 hPa 0,0 l/m 12,9 km/h (3 Bft) SW 225 0 min 0,0 UV-I 0 W/m 1,0 C -2,4 C 22,5 km/h (4 Bft)
01.02.2023 05:31 2,8 C 1,7 C 88 % 1023,1 hPa 0,0 l/m 12,9 km/h (3 Bft) W-SW 247 0 min 0,0 UV-I 0 W/m 1,0 C -2,4 C 20,9 km/h (4 Bft)
01.02.2023 05:32 2,8 C 1,7 C 88 % 1023,2 hPa 0,0 l/m 19,3 km/h (3 Bft) W-SW 247 0 min 0,0 UV-I 0 W/m 1,0 C -5,7 C 25,7 km/h (4 Bft)
01.02.2023 05:33 2,8 C 1,7 C 88 % 1023,0 hPa 0,0 l/m 17,7 km/h (3 Bft) W-SW 247 0 min 0,0 UV-I 0 W/m 1,0 C -5,0 C 22,5 km/h (4 Bft)
01.02.2023 05:34 2,8 C 1,7 C 88 % 1023,1 hPa 0,0 l/m 11,3 km/h (2 Bft) W-SW 247 0 min 0,0 UV-I 0 W/m 1,0 C -1,3 C 19,3 km/h (3 Bft)
01.02.2023 05:35 2,8 C 1,7 C 88 % 1023,1 hPa 0,0 l/m 9,7 km/h (2 Bft) W-SW 247 0 min 0,0 UV-I 0 W/m 1,0 C -0,1 C 16,1 km/h (3 Bft)
01.02.2023 05:36 2,8 C 1,7 C 88 % 1023,1 hPa 0,0 l/m 14,5 km/h (3 Bft) W 270 0 min 0,0 UV-I 0 W/m 1,0 C -3,3 C 20,9 km/h (4 Bft)
01.02.2023 05:37 2,8 C 1,7 C 88 % 1023,1 hPa 0,0 l/m 16,1 km/h (3 Bft) W-SW 247 0 min 0,0 UV-I 0 W/m 1,0 C -4,2 C 22,5 km/h (4 Bft)
01.02.2023 05:38 2,8 C 1,7 C 88 % 1023,1 hPa 0,0 l/m 20,9 km/h (4 Bft) W 270 0 min 0,0 UV-I 0 W/m 1,0 C -6,4 C 29,0 km/h (5 Bft)
01.02.2023 05:39 2,8 C 1,7 C 88 % 1023,1 hPa 0,0 l/m 16,1 km/h (3 Bft) W 270 0 min 0,0 UV-I 0 W/m 1,0 C -4,2 C 25,7 km/h (4 Bft)
01.02.2023 05:40 2,8 C 1,7 C 88 % 1023,2 hPa 0,0 l/m 16,1 km/h (3 Bft) W 270 0 min 0,0 UV-I 0 W/m 1,0 C -4,2 C 20,9 km/h (4 Bft)
01.02.2023 05:41 2,8 C 1,7 C 88 % 1023,1 hPa 0,0 l/m 22,5 km/h (4 Bft) W-SW 247 0 min 0,0 UV-I 0 W/m 1,0 C -7,0 C 33,8 km/h (5 Bft)
01.02.2023 05:42 2,7 C 1,7 C 88 % 1023,0 hPa 0,0 l/m 14,5 km/h (3 Bft) W-SW 247 0 min 0,0 UV-I 0 W/m 0,9 C -3,4 C 24,1 km/h (4 Bft)
01.02.2023 05:43 2,7 C 1,7 C 87 % 1023,0 hPa 0,0 l/m 17,7 km/h (3 Bft) W-SW 247 0 min 0,0 UV-I 0 W/m 0,8 C -5,1 C 24,1 km/h (4 Bft)
01.02.2023 05:44 2,7 C 1,7 C 87 % 1023,0 hPa 0,0 l/m 16,1 km/h (3 Bft) W-SW 247 0 min 0,0 UV-I 0 W/m 0,8 C -4,3 C 22,5 km/h (4 Bft)
01.02.2023 05:45 2,7 C 1,7 C 87 % 1023,2 hPa 0,0 l/m 12,9 km/h (3 Bft) W-SW 247 0 min 0,0 UV-I 0 W/m 0,8 C -2,5 C 22,5 km/h (4 Bft)
01.02.2023 05:46 2,7 C 1,7 C 87 % 1023,1 hPa 0,0 l/m 12,9 km/h (3 Bft) W-SW 247 0 min 0,0 UV-I 0 W/m 0,8 C -2,5 C 19,3 km/h (3 Bft)
01.02.2023 05:47 2,7 C 1,7 C 87 % 1023,1 hPa 0,0 l/m 14,5 km/h (3 Bft) W-SW 247 0 min 0,0 UV-I 0 W/m 0,8 C -3,4 C 24,1 km/h (4 Bft)
01.02.2023 05:48 2,7 C 1,7 C 87 % 1023,0 hPa 0,0 l/m 19,3 km/h (3 Bft) W-SW 247 0 min 0,0 UV-I 0 W/m 0,8 C -5,8 C 29,0 km/h (5 Bft)
01.02.2023 05:49 2,7 C 1,7 C 87 % 1023,1 hPa 0,0 l/m 22,5 km/h (4 Bft) W-SW 247 0 min 0,0 UV-I 0 W/m 0,8 C -7,2 C 32,2 km/h (5 Bft)
01.02.2023 05:50 2,7 C 1,7 C 87 % 1023,0 hPa 0,0 l/m 12,9 km/h (3 Bft) SW 225 0 min 0,0 UV-I 0 W/m 0,8 C -2,5 C 16,1 km/h (3 Bft)
01.02.2023 05:51 2,7 C 1,7 C 87 % 1023,1 hPa 0,0 l/m 14,5 km/h (3 Bft) W-SW 247 0 min 0,0 UV-I 0 W/m 0,8 C -3,4 C 24,1 km/h (4 Bft)
01.02.2023 05:52 2,7 C 1,7 C 87 % 1023,1 hPa 0,0 l/m 12,9 km/h (3 Bft) W-SW 247 0 min 0,0 UV-I 0 W/m 0,8 C -2,5 C 19,3 km/h (3 Bft)
01.02.2023 05:53 2,6 C 1,7 C 88 % 1023,0 hPa 0,0 l/m 12,9 km/h (3 Bft) W-SW 247 0 min 0,0 UV-I 0 W/m 0,8 C -2,6 C 20,9 km/h (4 Bft)
01.02.2023 05:54 2,6 C 1,7 C 87 % 1023,2 hPa 0,0 l/m 14,5 km/h (3 Bft) W 270 0 min 0,0 UV-I 0 W/m 0,7 C -3,5 C 27,4 km/h (4 Bft)
01.02.2023 05:55 2,6 C 1,7 C 88 % 1023,2 hPa 0,0 l/m 14,5 km/h (3 Bft) W-SW 247 0 min 0,0 UV-I 0 W/m 0,8 C -3,5 C 19,3 km/h (3 Bft)
01.02.2023 05:56 2,6 C 1,7 C 88 % 1023,2 hPa 0,0 l/m 12,9 km/h (3 Bft) W-SW 247 0 min 0,0 UV-I 0 W/m 0,8 C -2,6 C 20,9 km/h (4 Bft)
01.02.2023 05:57 2,6 C 1,7 C 88 % 1023,2 hPa 0,0 l/m 16,1 km/h (3 Bft) W-SW 247 0 min 0,0 UV-I 0 W/m 0,8 C -4,4 C 20,9 km/h (4 Bft)
01.02.2023 05:58 2,6 C 1,7 C 88 % 1023,2 hPa 0,0 l/m 14,5 km/h (3 Bft) W-SW 247 0 min 0,0 UV-I 0 W/m 0,8 C -3,5 C 24,1 km/h (4 Bft)
01.02.2023 05:59 2,6 C 1,7 C 88 % 1023,3 hPa 0,0 l/m 19,3 km/h (3 Bft) W-SW 247 0 min 0,0 UV-I 0 W/m 0,8 C -6,0 C 30,6 km/h (5 Bft)
01.02.2023 06:00 2,6 C 1,7 C 88 % 1023,3 hPa 0,0 l/m 14,5 km/h (3 Bft) W 270 0 min 0,0 UV-I 0 W/m 0,8 C -3,5 C 22,5 km/h (4 Bft)
01.02.2023 06:01 2,6 C 1,7 C 88 % 1023,3 hPa 0,0 l/m 16,1 km/h (3 Bft) W 270 0 min 0,0 UV-I 0 W/m 0,8 C -4,4 C 29,0 km/h (5 Bft)
01.02.2023 06:02 2,6 C 1,7 C 88 % 1023,4 hPa 0,0 l/m 11,3 km/h (2 Bft) W-SW 247 0 min 0,0 UV-I 0 W/m 0,8 C -1,5 C 16,1 km/h (3 Bft)
01.02.2023 06:03 2,6 C 1,7 C 88 % 1023,5 hPa 0,0 l/m 11,3 km/h (2 Bft) W-SW 247 0 min 0,0 UV-I 0 W/m 0,8 C -1,5 C 22,5 km/h (4 Bft)
01.02.2023 06:04 2,6 C 1,7 C 88 % 1023,5 hPa 0,0 l/m 19,3 km/h (3 Bft) W-SW 247 0 min 0,0 UV-I 0 W/m 0,8 C -6,0 C 25,7 km/h (4 Bft)
01.02.2023 06:05 2,6 C 1,7 C 88 % 1023,5 hPa 0,0 l/m 12,9 km/h (3 Bft) W 270 0 min 0,0 UV-I 0 W/m 0,8 C -2,6 C 24,1 km/h (4 Bft)
01.02.2023 06:06 2,6 C 1,7 C 88 % 1023,4 hPa 0,0 l/m 11,3 km/h (2 Bft) SW 225 0 min 0,0 UV-I 0 W/m 0,8 C -1,5 C 20,9 km/h (4 Bft)
01.02.2023 06:07 2,6 C 1,7 C 88 % 1023,4 hPa 0,0 l/m 11,3 km/h (2 Bft) W-SW 247 0 min 0,0 UV-I 0 W/m 0,8 C -1,5 C 19,3 km/h (3 Bft)
01.02.2023 06:08 2,6 C 1,7 C 88 % 1023,4 hPa 0,0 l/m 12,9 km/h (3 Bft) W-SW 247 0 min 0,0 UV-I 0 W/m 0,8 C -2,6 C 20,9 km/h (4 Bft)
01.02.2023 06:09 2,6 C 1,7 C 88 % 1023,2 hPa 0,0 l/m 9,7 km/h (2 Bft) SW 225 0 min 0,0 UV-I 0 W/m 0,8 C -0,3 C 19,3 km/h (3 Bft)
01.02.2023 06:10 2,6 C 1,7 C 88 % 1023,2 hPa 0,0 l/m 9,7 km/h (2 Bft) W-SW 247 0 min 0,0 UV-I 0 W/m 0,8 C -0,3 C 20,9 km/h (4 Bft)
01.02.2023 06:11 2,6 C 1,7 C 88 % 1023,3 hPa 0,0 l/m 12,9 km/h (3 Bft) W-SW 247 0 min 0,0 UV-I 0 W/m 0,8 C -2,6 C 27,4 km/h (4 Bft)
01.02.2023 06:12 2,6 C 1,7 C 88 % 1023,1 hPa 0,0 l/m 14,5 km/h (3 Bft) SW 225 0 min 0,0 UV-I 0 W/m 0,8 C -3,5 C 29,0 km/h (5 Bft)
01.02.2023 06:13 2,6 C 1,7 C 88 % 1023,2 hPa 0,0 l/m 20,9 km/h (4 Bft) W 270 0 min 0,0 UV-I 0 W/m 0,8 C -6,7 C 40,2 km/h (6 Bft)
01.02.2023 06:14 2,6 C 1,7 C 88 % 1023,1 hPa 0,0 l/m 22,5 km/h (4 Bft) W-SW 247 0 min 0,0 UV-I 0 W/m 0,8 C -7,3 C 41,8 km/h (6 Bft)
01.02.2023 06:15 2,6 C 1,7 C 88 % 1023,3 hPa 0,0 l/m 16,1 km/h (3 Bft) W-SW 247 0 min 0,0 UV-I 0 W/m 0,8 C -4,4 C 40,2 km/h (6 Bft)
01.02.2023 06:16 2,6 C 1,7 C 88 % 1023,3 hPa 0,0 l/m 19,3 km/h (3 Bft) W 270 0 min 0,0 UV-I 0 W/m 0,8 C -6,0 C 32,2 km/h (5 Bft)
01.02.2023 06:17 2,6 C 1,7 C 88 % 1023,2 hPa 0,0 l/m 16,1 km/h (3 Bft) W 270 0 min 0,0 UV-I 0 W/m 0,8 C -4,4 C 20,9 km/h (4 Bft)
01.02.2023 06:18 2,6 C 1,7 C 88 % 1023,3 hPa 0,0 l/m 9,7 km/h (2 Bft) SW 225 0 min 0,0 UV-I 0 W/m 0,8 C -0,3 C 16,1 km/h (3 Bft)
01.02.2023 06:19 2,6 C 1,7 C 88 % 1023,3 hPa 0,0 l/m 14,5 km/h (3 Bft) W-SW 247 0 min 0,0 UV-I 0 W/m 0,8 C -3,5 C 22,5 km/h (4 Bft)
01.02.2023 06:20 2,6 C 1,7 C 88 % 1023,2 hPa 0,0 l/m 16,1 km/h (3 Bft) W-SW 247 0 min 0,0 UV-I 0 W/m 0,8 C -4,4 C 29,0 km/h (5 Bft)
01.02.2023 06:21 2,6 C 1,7 C 88 % 1023,1 hPa 0,0 l/m 17,7 km/h (3 Bft) W-SW 247 0 min 0,0 UV-I 0 W/m 0,8 C -5,2 C 25,7 km/h (4 Bft)
01.02.2023 06:22 2,6 C 1,7 C 88 % 1023,2 hPa 0,0 l/m 19,3 km/h (3 Bft) W-SW 247 0 min 0,0 UV-I 0 W/m 0,8 C -6,0 C 33,8 km/h (5 Bft)
01.02.2023 06:23 2,6 C 1,7 C 88 % 1023,2 hPa 0,0 l/m 17,7 km/h (3 Bft) SW 225 0 min 0,0 UV-I 0 W/m 0,8 C -5,2 C 27,4 km/h (4 Bft)
01.02.2023 06:24 2,6 C 1,7 C 88 % 1023,2 hPa 0,0 l/m 17,7 km/h (3 Bft) W-SW 247 0 min 0,0 UV-I 0 W/m 0,8 C -5,2 C 24,1 km/h (4 Bft)
01.02.2023 06:25 2,5 C 1,7 C 88 % 1023,2 hPa 0,0 l/m 16,1 km/h (3 Bft) W-SW 247 0 min 0,0 UV-I 0 W/m 0,7 C -4,5 C 32,2 km/h (5 Bft)
01.02.2023 06:26 2,6 C 1,7 C 88 % 1023,2 hPa 0,0 l/m 9,7 km/h (2 Bft) W-SW 247 0 min 0,0 UV-I 0 W/m 0,8 C -0,3 C 19,3 km/h (3 Bft)
01.02.2023 06:27 2,6 C 1,7 C 88 % 1023,1 hPa 0,0 l/m 16,1 km/h (3 Bft) W-SW 247 0 min 0,0 UV-I 0 W/m 0,8 C -4,4 C 24,1 km/h (4 Bft)
01.02.2023 06:28 2,6 C 1,7 C 88 % 1023,2 hPa 0,0 l/m 12,9 km/h (3 Bft) SW 225 0 min 0,0 UV-I 0 W/m 0,8 C -2,6 C 17,7 km/h (3 Bft)
01.02.2023 06:29 2,6 C 1,7 C 88 % 1023,2 hPa 0,0 l/m 12,9 km/h (3 Bft) W 270 0 min 0,0 UV-I 0 W/m 0,8 C -2,6 C 20,9 km/h (4 Bft)
01.02.2023 06:30 2,6 C 1,7 C 88 % 1023,1 hPa 0,0 l/m 17,7 km/h (3 Bft) W-SW 247 0 min 0,0 UV-I 0 W/m 0,8 C -5,2 C 29,0 km/h (5 Bft)
01.02.2023 06:31 2,6 C 1,7 C 88 % 1023,2 hPa 0,0 l/m 16,1 km/h (3 Bft) W-SW 247 0 min 0,0 UV-I 0 W/m 0,8 C -4,4 C 25,7 km/h (4 Bft)
01.02.2023 06:32 2,5 C 1,7 C 88 % 1023,1 hPa 0,0 l/m 16,1 km/h (3 Bft) W-SW 247 0 min 0,0 UV-I 0 W/m 0,7 C -4,5 C 24,1 km/h (4 Bft)
01.02.2023 06:33 2,6 C 1,7 C 88 % 1023,1 hPa 0,0 l/m 16,1 km/h (3 Bft) W-SW 247 0 min 0,0 UV-I 0 W/m 0,8 C -4,4 C 24,1 km/h (4 Bft)
01.02.2023 06:34 2,5 C 1,7 C 88 % 1023,0 hPa 0,0 l/m 12,9 km/h (3 Bft) SW 225 0 min 0,0 UV-I 0 W/m 0,7 C -2,7 C 22,5 km/h (4 Bft)
01.02.2023 06:35 2,5 C 1,7 C 88 % 1023,1 hPa 0,0 l/m 11,3 km/h (2 Bft) SW 225 0 min 0,0 UV-I 0 W/m 0,7 C -1,6 C 22,5 km/h (4 Bft)
01.02.2023 06:36 2,6 C 1,7 C 88 % 1023,1 hPa 0,0 l/m 19,3 km/h (3 Bft) W-SW 247 0 min 0,0 UV-I 0 W/m 0,8 C -6,0 C 29,0 km/h (5 Bft)
01.02.2023 06:37 2,5 C 1,7 C 88 % 1023,1 hPa 0,0 l/m 14,5 km/h (3 Bft) S-SW 202 0 min 0,0 UV-I 0 W/m 0,7 C -3,7 C 22,5 km/h (4 Bft)
01.02.2023 06:38 2,5 C 1,7 C 88 % 1023,0 hPa 0,0 l/m 12,9 km/h (3 Bft) SW 225 0 min 0,0 UV-I 0 W/m 0,7 C -2,7 C 17,7 km/h (3 Bft)
01.02.2023 06:39 2,5 C 1,7 C 88 % 1023,1 hPa 0,0 l/m 11,3 km/h (2 Bft) SW 225 0 min 0,0 UV-I 0 W/m 0,7 C -1,6 C 16,1 km/h (3 Bft)
01.02.2023 06:40 2,5 C 1,7 C 88 % 1023,1 hPa 0,0 l/m 16,1 km/h (3 Bft) SW 225 0 min 0,0 UV-I 0 W/m 0,7 C -4,5 C 22,5 km/h (4 Bft)
01.02.2023 06:41 2,4 C 1,7 C 88 % 1023,0 hPa 0,0 l/m 17,7 km/h (3 Bft) SW 225 0 min 0,0 UV-I 0 W/m 0,6 C -5,5 C 30,6 km/h (5 Bft)
01.02.2023 06:42 2,4 C 1,1 C 88 % 1023,0 hPa 0,0 l/m 12,9 km/h (3 Bft) W 270 0 min 0,0 UV-I 0 W/m 0,6 C -2,8 C 17,7 km/h (3 Bft)
01.02.2023 06:43 2,4 C 1,1 C 88 % 1023,0 hPa 0,0 l/m 12,9 km/h (3 Bft) SW 225 0 min 0,0 UV-I 0 W/m 0,6 C -2,8 C 27,4 km/h (4 Bft)
01.02.2023 06:44 2,4 C 1,1 C 88 % 1023,1 hPa 0,0 l/m 14,5 km/h (3 Bft) SW 225 0 min 0,0 UV-I 0 W/m 0,6 C -3,8 C 27,4 km/h (4 Bft)
01.02.2023 06:45 2,4 C 1,1 C 88 % 1023,0 hPa 0,0 l/m 11,3 km/h (2 Bft) W-SW 247 0 min 0,0 UV-I 0 W/m 0,6 C -1,8 C 20,9 km/h (4 Bft)
01.02.2023 06:46 2,4 C 1,1 C 88 % 1023,1 hPa 0,0 l/m 11,3 km/h (2 Bft) W-SW 247 0 min 0,0 UV-I 0 W/m 0,6 C -1,8 C 20,9 km/h (4 Bft)
01.02.2023 06:47 2,4 C 1,1 C 88 % 1023,1 hPa 0,0 l/m 16,1 km/h (3 Bft) W 270 0 min 0,0 UV-I 0 W/m 0,6 C -4,7 C 29,0 km/h (5 Bft)
01.02.2023 06:48 2,4 C 1,1 C 88 % 1023,1 hPa 0,0 l/m 20,9 km/h (4 Bft) W-SW 247 0 min 0,0 UV-I 0 W/m 0,6 C -6,9 C 30,6 km/h (5 Bft)
01.02.2023 06:49 2,3 C 1,1 C 88 % 1023,1 hPa 0,0 l/m 16,1 km/h (3 Bft) SW 225 0 min 0,0 UV-I 0 W/m 0,5 C -4,8 C 22,5 km/h (4 Bft)
01.02.2023 06:50 2,3 C 1,1 C 88 % 1023,0 hPa 0,0 l/m 19,3 km/h (3 Bft) W-SW 247 0 min 0,0 UV-I 0 W/m 0,5 C -6,4 C 30,6 km/h (5 Bft)
01.02.2023 06:51 2,3 C 1,1 C 88 % 1023,1 hPa 0,0 l/m 16,1 km/h (3 Bft) SW 225 0 min 0,0 UV-I 0 W/m 0,5 C -4,8 C 27,4 km/h (4 Bft)
01.02.2023 06:52 2,3 C 1,1 C 88 % 1023,0 hPa 0,0 l/m 14,5 km/h (3 Bft) W-SW 247 0 min 0,0 UV-I 0 W/m 0,5 C -3,9 C 22,5 km/h (4 Bft)
01.02.2023 06:53 2,3 C 1,1 C 88 % 1023,1 hPa 0,0 l/m 14,5 km/h (3 Bft) W-SW 247 0 min 0,0 UV-I 0 W/m 0,5 C -3,9 C 24,1 km/h (4 Bft)
01.02.2023 06:54 2,3 C 1,1 C 88 % 1023,1 hPa 0,0 l/m 12,9 km/h (3 Bft) W-SW 247 0 min 0,0 UV-I 0 W/m 0,5 C -2,9 C 22,5 km/h (4 Bft)
01.02.2023 06:55 2,3 C 1,1 C 88 % 1023,1 hPa 0,0 l/m 19,3 km/h (3 Bft) W-SW 247 0 min 0,0 UV-I 0 W/m 0,5 C -6,4 C 30,6 km/h (5 Bft)
01.02.2023 06:56 2,3 C 1,1 C 88 % 1023,0 hPa 0,0 l/m 12,9 km/h (3 Bft) W-SW 247 0 min 0,0 UV-I 0 W/m 0,5 C -2,9 C 22,5 km/h (4 Bft)
01.02.2023 06:57 2,3 C 1,1 C 88 % 1023,1 hPa 0,0 l/m 17,7 km/h (3 Bft) SW 225 0 min 0,0 UV-I 0 W/m 0,5 C -5,6 C 22,5 km/h (4 Bft)
01.02.2023 06:58 2,3 C 1,1 C 88 % 1023,1 hPa 0,0 l/m 19,3 km/h (3 Bft) W-SW 247 0 min 0,0 UV-I 0 W/m 0,5 C -6,4 C 27,4 km/h (4 Bft)
01.02.2023 06:59 2,3 C 1,1 C 88 % 1023,1 hPa 0,0 l/m 11,3 km/h (2 Bft) W-SW 247 0 min 0,0 UV-I 0 W/m 0,5 C -1,9 C 17,7 km/h (3 Bft)
01.02.2023 07:00 2,3 C 1,1 C 88 % 1023,1 hPa 0,0 l/m 14,5 km/h (3 Bft) W 270 0 min 0,0 UV-I 0 W/m 0,5 C -3,9 C 19,3 km/h (3 Bft)
01.02.2023 07:01 2,3 C 1,1 C 88 % 1023,1 hPa 0,0 l/m 11,3 km/h (2 Bft) W-SW 247 0 min 0,0 UV-I 0 W/m 0,5 C -1,9 C 19,3 km/h (3 Bft)
01.02.2023 07:02 2,3 C 1,1 C 88 % 1023,1 hPa 0,0 l/m 8,0 km/h (2 Bft) W-SW 247 0 min 0,0 UV-I 0 W/m 0,5 C 0,8 C 16,1 km/h (3 Bft)
01.02.2023 07:03 2,3 C 1,1 C 88 % 1023,2 hPa 0,0 l/m 17,7 km/h (3 Bft) W-SW 247 0 min 0,0 UV-I 0 W/m 0,5 C -5,6 C 27,4 km/h (4 Bft)
01.02.2023 07:04 2,2 C 1,7 C 88 % 1023,2 hPa 0,0 l/m 14,5 km/h (3 Bft) W-SW 247 0 min 0,0 UV-I 0 W/m 0,4 C -4,0 C 22,5 km/h (4 Bft)
01.02.2023 07:05 2,3 C 1,7 C 88 % 1023,3 hPa 0,0 l/m 12,9 km/h (3 Bft) SW 225 0 min 0,0 UV-I 0 W/m 0,5 C -2,9 C 19,3 km/h (3 Bft)
01.02.2023 07:06 2,3 C 1,7 C 88 % 1023,2 hPa 0,0 l/m 17,7 km/h (3 Bft) W-SW 247 0 min 0,0 UV-I 0 W/m 0,5 C -5,6 C 22,5 km/h (4 Bft)
01.02.2023 07:07 2,3 C 1,7 C 88 % 1023,1 hPa 0,0 l/m 19,3 km/h (3 Bft) W-SW 247 0 min 0,0 UV-I 0 W/m 0,5 C -6,4 C 33,8 km/h (5 Bft)
01.02.2023 07:08 2,3 C 1,7 C 88 % 1023,1 hPa 0,0 l/m 16,1 km/h (3 Bft) SW 225 0 min 0,0 UV-I 0 W/m 0,5 C -4,8 C 30,6 km/h (5 Bft)
01.02.2023 07:09 2,3 C 1,7 C 88 % 1023,1 hPa 0,0 l/m 14,5 km/h (3 Bft) W-SW 247 0 min 0,0 UV-I 0 W/m 0,5 C -3,9 C 20,9 km/h (4 Bft)
01.02.2023 07:10 2,3 C 1,7 C 88 % 1023,1 hPa 0,0 l/m 16,1 km/h (3 Bft) W-SW 247 0 min 0,0 UV-I 0 W/m 0,5 C -4,8 C 22,5 km/h (4 Bft)
01.02.2023 07:11 2,3 C 1,7 C 88 % 1022,9 hPa 0,0 l/m 17,7 km/h (3 Bft) W 270 0 min 0,0 UV-I 0 W/m 0,5 C -5,6 C 27,4 km/h (4 Bft)
01.02.2023 07:12 2,3 C 1,7 C 88 % 1023,0 hPa 0,0 l/m 14,5 km/h (3 Bft) SW 225 0 min 0,0 UV-I 0 W/m 0,5 C -3,9 C 24,1 km/h (4 Bft)
01.02.2023 07:13 2,3 C 1,7 C 88 % 1022,9 hPa 0,0 l/m 16,1 km/h (3 Bft) SW 225 0 min 0,0 UV-I 0 W/m 0,5 C -4,8 C 27,4 km/h (4 Bft)
01.02.2023 07:14 2,3 C 1,7 C 88 % 1022,9 hPa 0,0 l/m 12,9 km/h (3 Bft) SW 225 0 min 0,0 UV-I 0 W/m 0,5 C -2,9 C 24,1 km/h (4 Bft)
01.02.2023 07:15 2,3 C 1,7 C 88 % 1022,8 hPa 0,0 l/m 17,7 km/h (3 Bft) W-SW 247 0 min 0,0 UV-I 0 W/m 0,5 C -5,6 C 25,7 km/h (4 Bft)
01.02.2023 07:16 2,3 C 1,7 C 88 % 1023,0 hPa 0,0 l/m 12,9 km/h (3 Bft) SW 225 0 min 0,0 UV-I 0 W/m 0,5 C -2,9 C 20,9 km/h (4 Bft)
01.02.2023 07:17 2,3 C 1,7 C 88 % 1023,0 hPa 0,0 l/m 12,9 km/h (3 Bft) W-SW 247 0 min 0,0 UV-I 0 W/m 0,5 C -2,9 C 24,1 km/h (4 Bft)
01.02.2023 07:18 2,3 C 1,7 C 88 % 1022,9 hPa 0,0 l/m 19,3 km/h (3 Bft) SW 225 0 min 0,0 UV-I 0 W/m 0,5 C -6,4 C 29,0 km/h (5 Bft)
01.02.2023 07:19 2,3 C 1,7 C 88 % 1022,9 hPa 0,0 l/m 20,9 km/h (4 Bft) W-SW 247 0 min 0,0 UV-I 0 W/m 0,5 C -7,0 C 33,8 km/h (5 Bft)
01.02.2023 07:20 2,3 C 1,7 C 88 % 1022,9 hPa 0,0 l/m 14,5 km/h (3 Bft) W-SW 247 0 min 0,0 UV-I 0 W/m 0,5 C -3,9 C 27,4 km/h (4 Bft)
01.02.2023 07:21 2,3 C 1,7 C 88 % 1022,8 hPa 0,0 l/m 17,7 km/h (3 Bft) W-SW 247 0 min 0,0 UV-I 0 W/m 0,5 C -5,6 C 27,4 km/h (4 Bft)
01.02.2023 07:22 2,3 C 1,7 C 88 % 1022,9 hPa 0,0 l/m 14,5 km/h (3 Bft) SW 225 0 min 0,0 UV-I 0 W/m 0,5 C -3,9 C 20,9 km/h (4 Bft)
01.02.2023 07:23 2,3 C 1,7 C 88 % 1023,0 hPa 0,0 l/m 25,7 km/h (4 Bft) W-SW 247 0 min 0,0 UV-I 0 W/m 0,5 C -8,8 C 45,1 km/h (6 Bft)
01.02.2023 07:24 2,3 C 1,7 C 88 % 1022,8 hPa 0,0 l/m 19,3 km/h (3 Bft) W-SW 247 0 min 0,0 UV-I 0 W/m 0,5 C -6,4 C 45,1 km/h (6 Bft)
01.02.2023 07:25 2,3 C 1,7 C 88 % 1022,9 hPa 0,0 l/m 16,1 km/h (3 Bft) W-SW 247 0 min 0,0 UV-I 0 W/m 0,5 C -4,8 C 27,4 km/h (4 Bft)
01.02.2023 07:26 2,3 C 1,7 C 88 % 1022,9 hPa 0,0 l/m 14,5 km/h (3 Bft) W-SW 247 0 min 0,0 UV-I 0 W/m 0,5 C -3,9 C 32,2 km/h (5 Bft)
01.02.2023 07:27 2,3 C 1,7 C 88 % 1022,8 hPa 0,0 l/m 19,3 km/h (3 Bft) W-SW 247 0 min 0,0 UV-I 0 W/m 0,5 C -6,4 C 25,7 km/h (4 Bft)
01.02.2023 07:28 2,3 C 1,7 C 88 % 1022,7 hPa 0,0 l/m 22,5 km/h (4 Bft) W-SW 247 0 min 0,0 UV-I 0 W/m 0,5 C -7,7 C 30,6 km/h (5 Bft)
01.02.2023 07:29 2,3 C 1,7 C 88 % 1022,8 hPa 0,0 l/m 20,9 km/h (4 Bft) W 270 0 min 0,0 UV-I 0 W/m 0,5 C -7,0 C 27,4 km/h (4 Bft)
01.02.2023 07:30 2,3 C 1,7 C 88 % 1022,8 hPa 0,0 l/m 14,5 km/h (3 Bft) W-SW 247 0 min 0,0 UV-I 0 W/m 0,5 C -3,9 C 22,5 km/h (4 Bft)
01.02.2023 07:31 2,3 C 1,7 C 88 % 1022,8 hPa 0,0 l/m 12,9 km/h (3 Bft) SW 225 0 min 0,0 UV-I 0 W/m 0,5 C -2,9 C 17,7 km/h (3 Bft)
01.02.2023 07:32 2,3 C 1,7 C 88 % 1022,7 hPa 0,0 l/m 12,9 km/h (3 Bft) W-SW 247 0 min 0,0 UV-I 0 W/m 0,5 C -2,9 C 24,1 km/h (4 Bft)
01.02.2023 07:33 2,3 C 1,7 C 88 % 1022,7 hPa 0,0 l/m 22,5 km/h (4 Bft) W-SW 247 0 min 0,0 UV-I 0 W/m 0,5 C -7,7 C 29,0 km/h (5 Bft)
01.02.2023 07:34 2,3 C 1,7 C 88 % 1022,8 hPa 0,0 l/m 19,3 km/h (3 Bft) SW 225 0 min 0,0 UV-I 0 W/m 0,5 C -6,4 C 29,0 km/h (5 Bft)
01.02.2023 07:35 2,3 C 1,7 C 88 % 1022,7 hPa 0,0 l/m 25,7 km/h (4 Bft) SW 225 0 min 0,0 UV-I 0 W/m 0,5 C -8,8 C 37,0 km/h (5 Bft)
01.02.2023 07:36 2,3 C 1,7 C 88 % 1022,7 hPa 0,0 l/m 14,5 km/h (3 Bft) W-SW 247 0 min 0,0 UV-I 0 W/m 0,5 C -3,9 C 22,5 km/h (4 Bft)
01.02.2023 07:37 2,3 C 1,7 C 88 % 1022,7 hPa 0,0 l/m 16,1 km/h (3 Bft) W-SW 247 0 min 0,0 UV-I 0 W/m 0,5 C -4,8 C 22,5 km/h (4 Bft)
01.02.2023 07:38 2,3 C 1,7 C 88 % 1022,6 hPa 0,0 l/m 20,9 km/h (4 Bft) SW 225 0 min 0,0 UV-I 0 W/m 0,5 C -7,0 C 30,6 km/h (5 Bft)
01.02.2023 07:39 2,3 C 1,7 C 88 % 1022,6 hPa 0,0 l/m 16,1 km/h (3 Bft) W-SW 247 0 min 0,0 UV-I 0 W/m 0,5 C -4,8 C 24,1 km/h (4 Bft)
01.02.2023 07:42 2,3 C 1,7 C 88 % 1022,7 hPa 0,0 l/m 13,2 km/h (3 Bft) W-SW 257 0 min 0,0 UV-I 0 W/m 0,5 C -3,1 C 22,5 km/h (4 Bft)
01.02.2023 07:45 2,3 C 1,7 C 88 % 1022,6 hPa 0,0 l/m 17,6 km/h (3 Bft) W-SW 249 0 min 0,0 UV-I 0 W/m 0,5 C -5,6 C 35,4 km/h (5 Bft)
01.02.2023 07:48 2,3 C 1,7 C 88 % 1022,7 hPa 0,0 l/m 18,2 km/h (3 Bft) W-NW 285 0 min 0,0 UV-I 0 W/m 0,5 C -5,8 C 29,0 km/h (5 Bft)
01.02.2023 07:51 2,3 C 1,7 C 88 % 1022,7 hPa 0,0 l/m 17,5 km/h (3 Bft) SW 235 0 min 0,0 UV-I 0 W/m 0,5 C -5,5 C 35,4 km/h (5 Bft)
01.02.2023 07:54 2,3 C 1,7 C 88 % 1022,8 hPa 0,0 l/m 19,4 km/h (3 Bft) W-SW 241 0 min 0,0 UV-I 0 W/m 0,5 C -6,4 C 48,3 km/h (6 Bft)
01.02.2023 07:57 2,3 C 1,7 C 88 % 1022,8 hPa 0,0 l/m 16,5 km/h (3 Bft) SW 221 0 min 0,0 UV-I 0 W/m 0,5 C -5,0 C 33,8 km/h (5 Bft)
01.02.2023 08:00 2,3 C 1,7 C 88 % 1022,9 hPa 0,0 l/m 24,4 km/h (4 Bft) W 270 0 min 0,0 UV-I 0 W/m 0,5 C -8,4 C 45,1 km/h (6 Bft)
01.02.2023 08:03 2,3 C 1,7 C 88 % 1022,8 hPa 0,0 l/m 26,7 km/h (4 Bft) W-SW 246 0 min 0,0 UV-I 0 W/m 0,5 C -9,2 C 45,1 km/h (6 Bft)
01.02.2023 08:06 2,3 C 1,7 C 88 % 1022,8 hPa 0,0 l/m 22,5 km/h (4 Bft) SW 223 0 min 0,0 UV-I 0 W/m 0,5 C -7,7 C 35,4 km/h (5 Bft)
01.02.2023 08:09 2,3 C 1,7 C 88 % 1022,8 hPa 0,0 l/m 19,1 km/h (3 Bft) SW 221 0 min 0,0 UV-I 0 W/m 0,5 C -6,3 C 38,6 km/h (5 Bft)
01.02.2023 08:12 2,3 C 1,7 C 88 % 1022,9 hPa 0,0 l/m 20,0 km/h (4 Bft) W 271 0 min 0,0 UV-I 0 W/m 0,5 C -6,7 C 30,6 km/h (5 Bft)
01.02.2023 08:15 2,3 C 1,7 C 88 % 1023,0 hPa 0,0 l/m 20,6 km/h (4 Bft) SW 227 0 min 0,0 UV-I 0 W/m 0,5 C -6,9 C 38,6 km/h (5 Bft)
01.02.2023 08:18 2,3 C 1,7 C 88 % 1023,0 hPa 0,0 l/m 24,7 km/h (4 Bft) SW 230 0 min 0,0 UV-I 3 W/m 0,5 C -8,5 C 40,2 km/h (6 Bft)
01.02.2023 08:21 2,3 C 1,7 C 87 % 1023,0 hPa 0,0 l/m 19,0 km/h (3 Bft) W-SW 240 0 min 0,0 UV-I 6 W/m 0,4 C -6,2 C 29,0 km/h (5 Bft)
01.02.2023 08:24 2,3 C 1,7 C 87 % 1022,9 hPa 0,0 l/m 20,9 km/h (4 Bft) W-SW 240 0 min 0,0 UV-I 7 W/m 0,4 C -7,0 C 40,2 km/h (6 Bft)
01.02.2023 08:27 2,3 C 1,7 C 87 % 1023,0 hPa 0,0 l/m 24,2 km/h (4 Bft) S-SW 204 0 min 0,0 UV-I 10 W/m 0,4 C -8,3 C 40,2 km/h (6 Bft)
01.02.2023 08:30 2,3 C 1,7 C 87 % 1023,1 hPa 0,0 l/m 24,6 km/h (4 Bft) SW 228 0 min 0,0 UV-I 8 W/m 0,4 C -8,5 C 41,8 km/h (6 Bft)
01.02.2023 08:33 2,3 C 1,7 C 87 % 1023,0 hPa 0,0 l/m 22,7 km/h (4 Bft) SW 234 0 min 0,0 UV-I 9 W/m 0,4 C -7,8 C 43,5 km/h (6 Bft)
01.02.2023 08:36 2,3 C 1,7 C 87 % 1023,0 hPa 0,0 l/m 22,4 km/h (4 Bft) SW 236 0 min 0,0 UV-I 12 W/m 0,4 C -7,6 C 37,0 km/h (5 Bft)
01.02.2023 08:39 2,3 C 1,7 C 87 % 1023,1 hPa 0,0 l/m 23,3 km/h (4 Bft) W-SW 254 0 min 0,0 UV-I 13 W/m 0,4 C -8,0 C 37,0 km/h (5 Bft)
01.02.2023 08:42 2,3 C 1,7 C 87 % 1023,0 hPa 0,0 l/m 25,4 km/h (4 Bft) W 261 0 min 0,0 UV-I 18 W/m 0,4 C -8,7 C 41,8 km/h (6 Bft)
01.02.2023 08:45 2,3 C 1,7 C 87 % 1023,1 hPa 0,0 l/m 21,1 km/h (4 Bft) W 268 0 min 0,0 UV-I 18 W/m 0,4 C -7,1 C 33,8 km/h (5 Bft)
01.02.2023 08:48 2,3 C 1,7 C 87 % 1023,0 hPa 0,0 l/m 17,3 km/h (3 Bft) W-SW 257 0 min 0,0 UV-I 18 W/m 0,4 C -5,4 C 48,3 km/h (6 Bft)
01.02.2023 08:51 2,3 C 1,7 C 88 % 1023,2 hPa 0,0 l/m 21,6 km/h (4 Bft) SW 234 0 min 0,0 UV-I 19 W/m 0,5 C -7,3 C 46,7 km/h (6 Bft)
01.02.2023 08:54 2,2 C 1,7 C 88 % 1023,1 hPa 0,0 l/m 24,8 km/h (4 Bft) W-SW 250 0 min 0,0 UV-I 20 W/m 0,4 C -8,7 C 38,6 km/h (5 Bft)
01.02.2023 08:57 2,3 C 1,7 C 88 % 1023,2 hPa 0,0 l/m 21,6 km/h (4 Bft) W-SW 242 0 min 0,0 UV-I 26 W/m 0,5 C -7,3 C 48,3 km/h (6 Bft)
01.02.2023 09:00 2,3 C 1,7 C 88 % 1023,2 hPa 0,0 l/m 18,4 km/h (3 Bft) W-SW 247 0 min 0,0 UV-I 31 W/m 0,5 C -5,9 C 30,6 km/h (5 Bft)
01.02.2023 09:03 2,2 C 1,7 C 88 % 1023,2 hPa 0,0 l/m 19,9 km/h (4 Bft) W-SW 250 0 min 0,0 UV-I 29 W/m 0,4 C -6,7 C 40,2 km/h (6 Bft)
01.02.2023 09:06 2,2 C 1,7 C 88 % 1023,2 hPa 0,0 l/m 20,2 km/h (4 Bft) W-SW 257 0 min 0,0 UV-I 41 W/m 0,4 C -6,9 C 32,2 km/h (5 Bft)
01.02.2023 09:09 2,3 C 1,7 C 88 % 1023,3 hPa 0,0 l/m 19,4 km/h (3 Bft) SW 235 0 min 0,0 UV-I 51 W/m 0,5 C -6,4 C 48,3 km/h (6 Bft)
01.02.2023 09:12 2,3 C 1,7 C 88 % 1023,2 hPa 0,0 l/m 21,9 km/h (4 Bft) SW 225 0 min 0,0 UV-I 28 W/m 0,5 C -7,4 C 35,4 km/h (5 Bft)
01.02.2023 09:15 2,3 C 1,7 C 88 % 1023,3 hPa 0,0 l/m 17,5 km/h (3 Bft) W 263 0 min 0,0 UV-I 23 W/m 0,5 C -5,5 C 27,4 km/h (4 Bft)
01.02.2023 09:18 2,3 C 1,7 C 88 % 1023,2 hPa 0,0 l/m 18,8 km/h (3 Bft) W-SW 247 0 min 0,0 UV-I 18 W/m 0,5 C -6,1 C 33,8 km/h (5 Bft)
01.02.2023 09:21 2,3 C 1,7 C 88 % 1023,4 hPa 0,0 l/m 21,0 km/h (4 Bft) W 269 0 min 0,0 UV-I 23 W/m 0,5 C -7,1 C 37,0 km/h (5 Bft)
01.02.2023 09:24 2,2 C 1,7 C 88 % 1023,3 hPa 0,0 l/m 17,0 km/h (3 Bft) W-SW 242 0 min 0,0 UV-I 21 W/m 0,4 C -5,4 C 25,7 km/h (4 Bft)
01.02.2023 09:27 2,2 C 1,7 C 88 % 1023,2 hPa 0,0 l/m 18,4 km/h (3 Bft) SW 225 0 min 0,0 UV-I 27 W/m 0,4 C -6,1 C 33,8 km/h (5 Bft)
01.02.2023 09:30 2,2 C 1,7 C 88 % 1023,3 hPa 0,0 l/m 19,3 km/h (3 Bft) W-SW 237 0 min 0,0 UV-I 34 W/m 0,4 C -6,5 C 30,6 km/h (5 Bft)
01.02.2023 09:33 2,3 C 1,7 C 88 % 1023,2 hPa 0,0 l/m 20,3 km/h (4 Bft) W-SW 240 0 min 0,0 UV-I 39 W/m 0,5 C -6,8 C 35,4 km/h (5 Bft)
01.02.2023 09:36 2,3 C 1,7 C 88 % 1023,4 hPa 0,0 l/m 23,6 km/h (4 Bft) W 261 0 min 0,0 UV-I 47 W/m 0,5 C -8,1 C 41,8 km/h (6 Bft)
01.02.2023 09:39 2,3 C 2,2 C 88 % 1023,6 hPa 0,0 l/m 18,8 km/h (3 Bft) W-SW 252 0 min 0,0 UV-I 58 W/m 0,5 C -6,1 C 32,2 km/h (5 Bft)
01.02.2023 09:42 2,3 C 2,2 C 88 % 1023,5 hPa 0,0 l/m 19,2 km/h (3 Bft) SW 229 0 min 0,0 UV-I 54 W/m 0,5 C -6,3 C 41,8 km/h (6 Bft)
01.02.2023 09:45 2,3 C 2,2 C 88 % 1023,4 hPa 0,0 l/m 23,4 km/h (4 Bft) W-SW 255 0 min 0,0 UV-I 49 W/m 0,5 C -8,0 C 35,4 km/h (5 Bft)
01.02.2023 09:48 2,3 C 2,2 C 88 % 1023,5 hPa 0,0 l/m 20,4 km/h (4 Bft) W-NW 284 0 min 0,0 UV-I 51 W/m 0,5 C -6,8 C 35,4 km/h (5 Bft)
01.02.2023 09:51 2,3 C 1,7 C 88 % 1023,4 hPa 0,0 l/m 19,4 km/h (3 Bft) W 263 0 min 0,0 UV-I 41 W/m 0,5 C -6,4 C 30,6 km/h (5 Bft)
01.02.2023 09:54 2,3 C 2,2 C 88 % 1023,7 hPa 0,0 l/m 19,2 km/h (3 Bft) SW 235 0 min 0,0 UV-I 59 W/m 0,5 C -6,3 C 35,4 km/h (5 Bft)
01.02.2023 09:57 2,3 C 2,2 C 88 % 1023,7 hPa 0,0 l/m 24,0 km/h (4 Bft) W-SW 241 0 min 0,0 UV-I 59 W/m 0,5 C -8,2 C 45,1 km/h (6 Bft)
01.02.2023 10:00 2,3 C 2,2 C 88 % 1023,8 hPa 0,0 l/m 20,9 km/h (4 Bft) W 267 0 min 0,0 UV-I 50 W/m 0,5 C -7,0 C 41,8 km/h (6 Bft)
01.02.2023 10:03 2,3 C 2,2 C 88 % 1023,7 hPa 0,0 l/m 22,9 km/h (4 Bft) W 281 0 min 0,0 UV-I 60 W/m 0,5 C -7,8 C 41,8 km/h (6 Bft)
01.02.2023 10:06 2,3 C 2,2 C 88 % 1023,8 hPa 0,0 l/m 24,2 km/h (4 Bft) W 271 0 min 0,0 UV-I 54 W/m 0,5 C -8,3 C 40,2 km/h (6 Bft)
01.02.2023 10:09 2,3 C 2,2 C 88 % 1023,8 hPa 0,0 l/m 18,3 km/h (3 Bft) W-SW 255 0 min 0,0 UV-I 58 W/m 0,5 C -5,9 C 29,0 km/h (5 Bft)
01.02.2023 10:12 2,3 C 2,2 C 88 % 1023,9 hPa 0,0 l/m 22,8 km/h (4 Bft) W-SW 251 0 min 0,0 UV-I 53 W/m 0,5 C -7,8 C 40,2 km/h (6 Bft)
01.02.2023 10:15 2,3 C 2,2 C 88 % 1023,9 hPa 0,0 l/m 19,8 km/h (3 Bft) W 263 0 min 0,0 UV-I 68 W/m 0,5 C -6,6 C 30,6 km/h (5 Bft)
01.02.2023 10:18 2,3 C 2,2 C 88 % 1024,0 hPa 0,0 l/m 21,4 km/h (4 Bft) S-SW 205 0 min 0,0 UV-I 54 W/m 0,5 C -7,2 C 35,4 km/h (5 Bft)
01.02.2023 10:21 2,3 C 2,2 C 88 % 1023,9 hPa 0,0 l/m 19,8 km/h (3 Bft) W-SW 242 0 min 0,0 UV-I 66 W/m 0,5 C -6,6 C 35,4 km/h (5 Bft)
01.02.2023 10:24 2,3 C 2,2 C 88 % 1023,9 hPa 0,0 l/m 18,9 km/h (3 Bft) SW 223 0 min 0,0 UV-I 53 W/m 0,5 C -6,2 C 35,4 km/h (5 Bft)
01.02.2023 10:27 2,3 C 2,2 C 88 % 1024,0 hPa 0,0 l/m 17,3 km/h (3 Bft) SW 236 0 min 0,0 UV-I 55 W/m 0,5 C -5,4 C 32,2 km/h (5 Bft)
01.02.2023 10:30 2,3 C 2,2 C 88 % 1024,0 hPa 0,0 l/m 22,8 km/h (4 Bft) SW 226 0 min 0,0 UV-I 58 W/m 0,5 C -7,8 C 41,8 km/h (6 Bft)
01.02.2023 10:33 2,3 C 2,2 C 88 % 1024,0 hPa 0,0 l/m 22,0 km/h (4 Bft) W-NW 282 0 min 0,0 UV-I 47 W/m 0,5 C -7,5 C 45,1 km/h (6 Bft)
01.02.2023 10:36 2,3 C 2,2 C 88 % 1024,0 hPa 0,0 l/m 18,4 km/h (3 Bft) W 278 0 min 0,0 UV-I 53 W/m 0,5 C -5,9 C 29,0 km/h (5 Bft)
01.02.2023 10:39 2,3 C 2,2 C 88 % 1024,1 hPa 0,0 l/m 23,3 km/h (4 Bft) SW 223 0 min 0,0 UV-I 56 W/m 0,5 C -8,0 C 43,5 km/h (6 Bft)
01.02.2023 10:42 2,3 C 2,2 C 88 % 1024,1 hPa 0,0 l/m 17,6 km/h (3 Bft) SW 232 0 min 0,0 UV-I 54 W/m 0,5 C -5,6 C 32,2 km/h (5 Bft)
01.02.2023 10:45 2,3 C 2,2 C 88 % 1024,1 hPa 0,0 l/m 21,7 km/h (4 Bft) W 262 0 min 0,0 UV-I 51 W/m 0,5 C -7,4 C 46,7 km/h (6 Bft)
01.02.2023 10:48 2,3 C 2,2 C 88 % 1024,0 hPa 0,0 l/m 17,8 km/h (3 Bft) SW 230 0 min 0,0 UV-I 58 W/m 0,5 C -5,7 C 32,2 km/h (5 Bft)
01.02.2023 10:51 2,4 C 2,2 C 89 % 1023,9 hPa 0,0 l/m 14,3 km/h (3 Bft) S 187 0 min 0,0 UV-I 75 W/m 0,8 C -3,7 C 29,0 km/h (5 Bft)
01.02.2023 10:54 2,4 C 2,8 C 89 % 1023,9 hPa 0,0 l/m 20,9 km/h (4 Bft) W-SW 250 0 min 0,0 UV-I 87 W/m 0,8 C -6,9 C 37,0 km/h (5 Bft)
01.02.2023 10:57 2,4 C 2,8 C 89 % 1023,8 hPa 0,0 l/m 14,6 km/h (3 Bft) W-SW 252 0 min 0,0 UV-I 85 W/m 0,8 C -3,8 C 30,6 km/h (5 Bft)
01.02.2023 11:00 2,5 C 2,8 C 89 % 1023,8 hPa 0,0 l/m 17,5 km/h (3 Bft) W 272 0 min 0,0 UV-I 89 W/m 0,9 C -5,3 C 30,6 km/h (5 Bft)
01.02.2023 11:03 2,5 C 2,8 C 89 % 1023,7 hPa 0,0 l/m 13,7 km/h (3 Bft) W-SW 237 0 min 0,2 UV-I 86 W/m 0,9 C -3,2 C 25,7 km/h (4 Bft)
01.02.2023 11:06 2,6 C 2,8 C 89 % 1023,9 hPa 0,0 l/m 17,4 km/h (3 Bft) W 259 0 min 0,5 UV-I 107 W/m 1,0 C -5,1 C 32,2 km/h (5 Bft)
01.02.2023 11:09 2,7 C 2,8 C 88 % 1023,7 hPa 0,0 l/m 17,4 km/h (3 Bft) W 260 0 min 0,5 UV-I 94 W/m 0,9 C -5,0 C 27,4 km/h (4 Bft)
01.02.2023 11:12 2,7 C 2,8 C 88 % 1023,8 hPa 0,0 l/m 15,6 km/h (3 Bft) SW 226 0 min 0,6 UV-I 117 W/m 0,9 C -4,0 C 27,4 km/h (4 Bft)
01.02.2023 11:15 2,8 C 3,3 C 88 % 1023,8 hPa 0,0 l/m 14,8 km/h (3 Bft) W 276 0 min 0,7 UV-I 117 W/m 1,0 C -3,5 C 27,4 km/h (4 Bft)
01.02.2023 11:18 2,8 C 3,3 C 88 % 1023,7 hPa 0,0 l/m 17,2 km/h (3 Bft) S-SW 209 0 min 0,5 UV-I 103 W/m 1,0 C -4,7 C 30,6 km/h (5 Bft)
01.02.2023 11:21 2,8 C 2,8 C 88 % 1023,8 hPa 0,0 l/m 23,1 km/h (4 Bft) W 260 0 min 0,4 UV-I 92 W/m 1,0 C -7,2 C 35,4 km/h (5 Bft)
01.02.2023 11:24 2,8 C 2,8 C 88 % 1023,6 hPa 0,0 l/m 10,5 km/h (2 Bft) W-SW 245 0 min 0,5 UV-I 97 W/m 1,0 C -0,7 C 30,6 km/h (5 Bft)
01.02.2023 11:27 2,8 C 2,8 C 87 % 1023,7 hPa 0,0 l/m 19,6 km/h (3 Bft) W-SW 244 0 min 0,5 UV-I 94 W/m 0,9 C -5,8 C 33,8 km/h (5 Bft)
01.02.2023 11:30 2,8 C 2,8 C 87 % 1023,7 hPa 0,0 l/m 14,9 km/h (3 Bft) SW 234 0 min 0,3 UV-I 84 W/m 0,9 C -3,5 C 25,7 km/h (4 Bft)
01.02.2023 11:33 2,8 C 2,8 C 88 % 1023,8 hPa 0,0 l/m 17,3 km/h (3 Bft) SW 236 0 min 0,1 UV-I 78 W/m 1,0 C -4,8 C 40,2 km/h (6 Bft)
01.02.2023 11:36 2,8 C 2,8 C 87 % 1023,6 hPa 0,0 l/m 18,6 km/h (3 Bft) W 269 0 min 0,1 UV-I 76 W/m 0,9 C -5,4 C 38,6 km/h (5 Bft)
01.02.2023 11:39 2,8 C 2,8 C 87 % 1023,6 hPa 0,0 l/m 19,1 km/h (3 Bft) S-SW 211 0 min 0,1 UV-I 86 W/m 0,9 C -5,6 C 29,0 km/h (5 Bft)
01.02.2023 11:42 2,8 C 2,8 C 87 % 1023,8 hPa 0,0 l/m 18,6 km/h (3 Bft) SW 232 0 min 0,5 UV-I 99 W/m 0,9 C -5,4 C 41,8 km/h (6 Bft)
01.02.2023 11:45 2,8 C 2,8 C 87 % 1023,7 hPa 0,0 l/m 18,3 km/h (3 Bft) W 267 0 min 0,2 UV-I 85 W/m 0,9 C -5,3 C 35,4 km/h (5 Bft)
01.02.2023 11:48 2,8 C 2,8 C 87 % 1023,7 hPa 0,0 l/m 17,5 km/h (3 Bft) SW 223 0 min 0,0 UV-I 70 W/m 0,9 C -4,9 C 35,4 km/h (5 Bft)
01.02.2023 11:51 2,8 C 2,8 C 87 % 1023,7 hPa 0,0 l/m 16,2 km/h (3 Bft) SW 227 0 min 0,1 UV-I 79 W/m 0,9 C -4,2 C 30,6 km/h (5 Bft)
01.02.2023 11:54 2,8 C 2,8 C 87 % 1023,9 hPa 0,0 l/m 18,0 km/h (3 Bft) S-SW 195 0 min 0,0 UV-I 66 W/m 0,9 C -5,1 C 30,6 km/h (5 Bft)
01.02.2023 11:57 2,8 C 2,8 C 87 % 1023,8 hPa 0,0 l/m 21,0 km/h (4 Bft) SW 229 0 min 0,0 UV-I 83 W/m 0,9 C -6,4 C 37,0 km/h (5 Bft)
01.02.2023 12:00 2,8 C 2,8 C 87 % 1023,7 hPa 0,0 l/m 14,1 km/h (3 Bft) SW 225 0 min 0,3 UV-I 81 W/m 0,9 C -3,1 C 32,2 km/h (5 Bft)
01.02.2023 12:03 2,9 C 2,8 C 87 % 1023,8 hPa 0,0 l/m 20,7 km/h (4 Bft) SW 214 0 min 0,0 UV-I 85 W/m 1,0 C -6,2 C 43,5 km/h (6 Bft)
01.02.2023 12:06 2,9 C 2,8 C 87 % 1023,8 hPa 0,0 l/m 23,7 km/h (4 Bft) SW 217 0 min 0,1 UV-I 78 W/m 1,0 C -7,3 C 43,5 km/h (6 Bft)
01.02.2023 12:09 2,9 C 2,8 C 87 % 1023,8 hPa 0,0 l/m 21,3 km/h (4 Bft) W-SW 257 0 min 0,0 UV-I 74 W/m 1,0 C -6,4 C 32,2 km/h (5 Bft)
01.02.2023 12:12 2,9 C 2,8 C 87 % 1023,8 hPa 0,0 l/m 20,3 km/h (4 Bft) SW 221 0 min 0,0 UV-I 78 W/m 1,0 C -6,0 C 43,5 km/h (6 Bft)
01.02.2023 12:15 2,9 C 2,8 C 87 % 1023,7 hPa 0,0 l/m 16,3 km/h (3 Bft) SW 232 0 min 0,0 UV-I 82 W/m 1,0 C -4,2 C 35,4 km/h (5 Bft)
01.02.2023 12:18 2,9 C 3,3 C 87 % 1023,7 hPa 0,0 l/m 19,1 km/h (3 Bft) W-SW 242 0 min 0,5 UV-I 90 W/m 1,0 C -5,5 C 38,6 km/h (5 Bft)
01.02.2023 12:21 3,0 C 3,3 C 87 % 1023,8 hPa 0,0 l/m 15,0 km/h (3 Bft) SW 217 0 min 0,2 UV-I 90 W/m 1,1 C -3,3 C 27,4 km/h (4 Bft)
01.02.2023 12:24 3,1 C 3,3 C 87 % 1023,8 hPa 0,0 l/m 21,0 km/h (4 Bft) SW 222 0 min 0,5 UV-I 104 W/m 1,2 C -6,0 C 41,8 km/h (6 Bft)
01.02.2023 12:27 3,1 C 3,3 C 86 % 1023,7 hPa 0,0 l/m 15,3 km/h (3 Bft) W-SW 242 0 min 0,5 UV-I 104 W/m 1,0 C -3,4 C 32,2 km/h (5 Bft)
01.02.2023 12:30 3,2 C 3,3 C 86 % 1023,8 hPa 0,0 l/m 12,4 km/h (3 Bft) W-SW 254 0 min 0,5 UV-I 109 W/m 1,1 C -1,6 C 24,1 km/h (4 Bft)
01.02.2023 12:33 3,2 C 3,3 C 86 % 1023,7 hPa 0,0 l/m 17,7 km/h (3 Bft) W-SW 242 0 min 0,6 UV-I 121 W/m 1,1 C -4,5 C 30,6 km/h (5 Bft)
01.02.2023 12:36 3,2 C 3,3 C 86 % 1023,8 hPa 0,0 l/m 17,8 km/h (3 Bft) W 260 0 min 0,2 UV-I 86 W/m 1,1 C -4,5 C 32,2 km/h (5 Bft)
01.02.2023 12:39 3,2 C 3,3 C 86 % 1023,7 hPa 0,0 l/m 17,5 km/h (3 Bft) W 259 0 min 0,5 UV-I 99 W/m 1,1 C -4,4 C 30,6 km/h (5 Bft)
01.02.2023 12:42 3,2 C 3,3 C 86 % 1023,7 hPa 0,0 l/m 14,8 km/h (3 Bft) SW 225 0 min 0,4 UV-I 102 W/m 1,1 C -3,0 C 33,8 km/h (5 Bft)
01.02.2023 12:45 3,2 C 3,3 C 86 % 1023,5 hPa 0,0 l/m 20,5 km/h (4 Bft) W 259 0 min 0,5 UV-I 103 W/m 1,1 C -5,7 C 43,5 km/h (6 Bft)
01.02.2023 12:48 3,2 C 3,3 C 86 % 1023,4 hPa 0,0 l/m 16,3 km/h (3 Bft) S-SW 213 0 min 0,5 UV-I 96 W/m 1,1 C -3,8 C 32,2 km/h (5 Bft)
01.02.2023 12:51 3,3 C 3,3 C 85 % 1023,5 hPa 0,0 l/m 21,3 km/h (4 Bft) S-SW 209 0 min 0,3 UV-I 86 W/m 1,0 C -5,9 C 38,6 km/h (5 Bft)
01.02.2023 12:54 3,3 C 3,3 C 85 % 1023,5 hPa 0,0 l/m 18,5 km/h (3 Bft) SW 232 0 min 0,0 UV-I 65 W/m 1,0 C -4,7 C 30,6 km/h (5 Bft)
01.02.2023 12:57 3,3 C 3,3 C 85 % 1023,6 hPa 0,0 l/m 18,0 km/h (3 Bft) W-SW 247 0 min 0,2 UV-I 82 W/m 1,0 C -4,5 C 27,4 km/h (4 Bft)
01.02.2023 13:00 3,3 C 3,3 C 86 % 1023,4 hPa 0,0 l/m 15,6 km/h (3 Bft) SW 232 0 min 0,2 UV-I 81 W/m 1,2 C -3,3 C 29,0 km/h (5 Bft)
01.02.2023 13:03 3,3 C 3,3 C 86 % 1023,2 hPa 0,0 l/m 15,8 km/h (3 Bft) W-SW 246 0 min 0,6 UV-I 88 W/m 1,2 C -3,4 C 35,4 km/h (5 Bft)
01.02.2023 13:06 3,3 C 3,3 C 86 % 1023,2 hPa 0,0 l/m 17,3 km/h (3 Bft) S-SW 209 0 min 0,9 UV-I 102 W/m 1,2 C -4,2 C 32,2 km/h (5 Bft)
01.02.2023 13:09 3,3 C 3,3 C 86 % 1023,0 hPa 0,0 l/m 17,6 km/h (3 Bft) S-SW 205 0 min 0,9 UV-I 120 W/m 1,2 C -4,3 C 35,4 km/h (5 Bft)
01.02.2023 13:12 3,4 C 3,9 C 86 % 1022,9 hPa 0,0 l/m 17,0 km/h (3 Bft) SW 227 0 min 1,0 UV-I 169 W/m 1,3 C -3,9 C 33,8 km/h (5 Bft)
01.02.2023 13:15 3,6 C 4,4 C 86 % 1022,9 hPa 0,0 l/m 18,0 km/h (3 Bft) S-SW 204 0 min 0,9 UV-I 187 W/m 1,5 C -4,1 C 37,0 km/h (5 Bft)
01.02.2023 13:18 3,6 C 4,4 C 85 % 1022,8 hPa 0,0 l/m 20,8 km/h (4 Bft) W-SW 242 0 min 0,8 UV-I 160 W/m 1,3 C -5,3 C 40,2 km/h (6 Bft)
01.02.2023 13:21 3,6 C 3,9 C 85 % 1022,8 hPa 0,0 l/m 16,6 km/h (3 Bft) W-SW 237 0 min 0,6 UV-I 115 W/m 1,3 C -3,4 C 38,6 km/h (5 Bft)
01.02.2023 13:24 3,6 C 3,9 C 85 % 1023,0 hPa 0,0 l/m 14,7 km/h (3 Bft) W-SW 239 0 min 0,6 UV-I 107 W/m 1,3 C -2,5 C 25,7 km/h (4 Bft)
01.02.2023 13:27 3,6 C 3,9 C 85 % 1022,9 hPa 0,0 l/m 15,2 km/h (3 Bft) S-SW 209 0 min 0,5 UV-I 109 W/m 1,3 C -2,7 C 29,0 km/h (5 Bft)
01.02.2023 13:30 3,7 C 3,9 C 85 % 1022,9 hPa 0,0 l/m 15,0 km/h (3 Bft) W-SW 248 0 min 0,7 UV-I 123 W/m 1,4 C -2,5 C 30,6 km/h (5 Bft)
01.02.2023 13:33 3,7 C 3,9 C 85 % 1022,9 hPa 0,0 l/m 17,3 km/h (3 Bft) S-SW 213 0 min 0,7 UV-I 120 W/m 1,4 C -3,7 C 32,2 km/h (5 Bft)
01.02.2023 13:36 3,7 C 4,4 C 85 % 1022,7 hPa 0,0 l/m 16,7 km/h (3 Bft) W-SW 245 0 min 0,7 UV-I 153 W/m 1,4 C -3,4 C 37,0 km/h (5 Bft)
01.02.2023 13:39 3,8 C 3,9 C 85 % 1022,9 hPa 0,0 l/m 16,3 km/h (3 Bft) W-SW 241 0 min 0,6 UV-I 120 W/m 1,5 C -3,0 C 30,6 km/h (5 Bft)
01.02.2023 13:42 3,8 C 3,9 C 84 % 1022,9 hPa 0,0 l/m 19,7 km/h (3 Bft) W-SW 246 0 min 0,7 UV-I 112 W/m 1,4 C -4,6 C 29,0 km/h (5 Bft)
01.02.2023 13:45 3,8 C 4,4 C 85 % 1022,9 hPa 0,0 l/m 11,2 km/h (2 Bft) W-SW 237 0 min 0,7 UV-I 149 W/m 1,5 C -0,1 C 24,1 km/h (4 Bft)
01.02.2023 13:48 3,9 C 4,4 C 85 % 1023,0 hPa 0,0 l/m 17,6 km/h (3 Bft) S-SW 208 0 min 0,7 UV-I 171 W/m 1,6 C -3,5 C 33,8 km/h (5 Bft)
01.02.2023 13:51 4,1 C 4,4 C 85 % 1023,1 hPa 0,0 l/m 16,5 km/h (3 Bft) W-SW 247 0 min 0,7 UV-I 154 W/m 1,8 C -2,8 C 30,6 km/h (5 Bft)
01.02.2023 13:54 4,1 C 4,4 C 84 % 1023,0 hPa 0,0 l/m 16,4 km/h (3 Bft) W 267 0 min 0,6 UV-I 97 W/m 1,6 C -2,7 C 25,7 km/h (4 Bft)
01.02.2023 13:57 4,0 C 3,9 C 84 % 1023,1 hPa 0,0 l/m 15,7 km/h (3 Bft) SW 222 0 min 0,5 UV-I 92 W/m 1,5 C -2,5 C 33,8 km/h (5 Bft)
01.02.2023 14:00 4,0 C 4,4 C 84 % 1022,9 hPa 0,0 l/m 15,9 km/h (3 Bft) S-SW 213 0 min 0,6 UV-I 126 W/m 1,5 C -2,6 C 29,0 km/h (5 Bft)
01.02.2023 14:03 4,1 C 4,4 C 84 % 1023,0 hPa 0,0 l/m 18,3 km/h (3 Bft) SW 223 0 min 0,6 UV-I 126 W/m 1,6 C -3,6 C 41,8 km/h (6 Bft)
01.02.2023 14:06 4,1 C 4,4 C 84 % 1023,1 hPa 0,0 l/m 18,7 km/h (3 Bft) W 259 0 min 0,4 UV-I 102 W/m 1,6 C -3,8 C 30,6 km/h (5 Bft)
01.02.2023 14:09 4,1 C 4,4 C 84 % 1022,9 hPa 0,0 l/m 18,1 km/h (3 Bft) W-SW 246 0 min 0,6 UV-I 121 W/m 1,6 C -3,5 C 41,8 km/h (6 Bft)
01.02.2023 14:12 4,1 C 4,4 C 83 % 1023,0 hPa 0,0 l/m 19,2 km/h (3 Bft) SW 232 0 min 0,5 UV-I 98 W/m 1,5 C -4,0 C 37,0 km/h (5 Bft)
01.02.2023 14:15 4,1 C 4,4 C 83 % 1022,9 hPa 0,0 l/m 19,1 km/h (3 Bft) S-SW 196 0 min 0,7 UV-I 104 W/m 1,5 C -4,0 C 38,6 km/h (5 Bft)
01.02.2023 14:18 4,1 C 3,9 C 83 % 1022,9 hPa 0,0 l/m 17,7 km/h (3 Bft) SW 219 0 min 0,2 UV-I 79 W/m 1,5 C -3,3 C 33,8 km/h (5 Bft)
01.02.2023 14:21 4,1 C 4,4 C 84 % 1022,8 hPa 0,0 l/m 16,7 km/h (3 Bft) SW 219 0 min 0,4 UV-I 100 W/m 1,6 C -2,9 C 29,0 km/h (5 Bft)
01.02.2023 14:24 4,1 C 3,9 C 83 % 1023,0 hPa 0,0 l/m 21,9 km/h (4 Bft) W-SW 243 0 min 0,5 UV-I 84 W/m 1,5 C -5,1 C 32,2 km/h (5 Bft)
01.02.2023 14:27 4,1 C 3,9 C 83 % 1022,9 hPa 0,0 l/m 14,9 km/h (3 Bft) S-SW 207 0 min 0,5 UV-I 89 W/m 1,5 C -2,0 C 25,7 km/h (4 Bft)
01.02.2023 14:30 4,1 C 4,4 C 84 % 1022,9 hPa 0,0 l/m 16,1 km/h (3 Bft) SW 214 0 min 0,7 UV-I 119 W/m 1,6 C -2,6 C 32,2 km/h (5 Bft)
01.02.2023 14:33 4,1 C 4,4 C 84 % 1022,9 hPa 0,0 l/m 14,8 km/h (3 Bft) W 273 0 min 0,6 UV-I 97 W/m 1,6 C -1,9 C 29,0 km/h (5 Bft)
01.02.2023 14:36 4,2 C 4,4 C 83 % 1022,9 hPa 0,0 l/m 14,4 km/h (3 Bft) W 267 0 min 0,4 UV-I 96 W/m 1,6 C -1,6 C 30,6 km/h (5 Bft)
01.02.2023 14:39 4,3 C 4,4 C 83 % 1022,8 hPa 0,0 l/m 17,1 km/h (3 Bft) W-SW 257 0 min 0,6 UV-I 131 W/m 1,7 C -2,8 C 30,6 km/h (5 Bft)
01.02.2023 14:42 4,3 C 4,4 C 83 % 1022,8 hPa 0,0 l/m 17,7 km/h (3 Bft) SW 236 0 min 0,1 UV-I 90 W/m 1,7 C -3,1 C 32,2 km/h (5 Bft)
01.02.2023 14:45 4,3 C 4,4 C 83 % 1022,9 hPa 0,0 l/m 14,1 km/h (3 Bft) W 262 0 min 0,5 UV-I 99 W/m 1,7 C -1,3 C 25,7 km/h (4 Bft)
01.02.2023 14:48 4,3 C 4,4 C 82 % 1022,9 hPa 0,0 l/m 19,6 km/h (3 Bft) SW 219 0 min 0,2 UV-I 74 W/m 1,5 C -3,9 C 40,2 km/h (6 Bft)
01.02.2023 14:51 4,3 C 4,4 C 82 % 1023,1 hPa 0,0 l/m 21,4 km/h (4 Bft) W-SW 253 0 min 0,5 UV-I 84 W/m 1,5 C -4,6 C 41,8 km/h (6 Bft)
01.02.2023 14:54 4,3 C 4,4 C 82 % 1022,9 hPa 0,0 l/m 18,6 km/h (3 Bft) SW 232 0 min 0,7 UV-I 110 W/m 1,5 C -3,5 C 29,0 km/h (5 Bft)
01.02.2023 14:57 4,3 C 5,0 C 82 % 1022,9 hPa 0,0 l/m 17,0 km/h (3 Bft) W-SW 246 0 min 0,7 UV-I 144 W/m 1,5 C -2,8 C 29,0 km/h (5 Bft)
01.02.2023 15:00 4,4 C 5,0 C 82 % 1022,9 hPa 0,0 l/m 16,1 km/h (3 Bft) W-SW 239 0 min 0,7 UV-I 156 W/m 1,6 C -2,2 C 30,6 km/h (5 Bft)
01.02.2023 15:03 4,4 C 5,0 C 81 % 1022,8 hPa 0,0 l/m 21,9 km/h (4 Bft) SW 217 0 min 0,6 UV-I 128 W/m 1,4 C -4,7 C 35,4 km/h (5 Bft)
01.02.2023 15:06 4,4 C 4,4 C 81 % 1022,9 hPa 0,0 l/m 18,6 km/h (3 Bft) SW 222 0 min 0,0 UV-I 93 W/m 1,4 C -3,4 C 33,8 km/h (5 Bft)
01.02.2023 15:09 4,4 C 4,4 C 81 % 1022,9 hPa 0,0 l/m 18,8 km/h (3 Bft) S-SO 161 0 min 0,0 UV-I 57 W/m 1,4 C -3,4 C 32,2 km/h (5 Bft)
01.02.2023 15:12 4,4 C 3,9 C 81 % 1022,9 hPa 0,0 l/m 18,4 km/h (3 Bft) SW 227 0 min 0,0 UV-I 34 W/m 1,4 C -3,3 C 38,6 km/h (5 Bft)
01.02.2023 15:15 4,4 C 3,9 C 81 % 1022,9 hPa 0,0 l/m 18,8 km/h (3 Bft) S-SW 200 0 min 0,0 UV-I 37 W/m 1,4 C -3,4 C 30,6 km/h (5 Bft)
01.02.2023 15:18 4,3 C 3,9 C 81 % 1022,9 hPa 0,0 l/m 19,0 km/h (3 Bft) S-SW 213 0 min 0,0 UV-I 31 W/m 1,3 C -3,7 C 33,8 km/h (5 Bft)
01.02.2023 15:21 4,3 C 3,9 C 81 % 1022,9 hPa 0,0 l/m 17,3 km/h (3 Bft) W-SW 246 0 min 0,0 UV-I 26 W/m 1,3 C -2,9 C 27,4 km/h (4 Bft)
01.02.2023 15:24 4,3 C 3,9 C 81 % 1022,8 hPa 0,0 l/m 16,7 km/h (3 Bft) SW 229 0 min 0,0 UV-I 30 W/m 1,3 C -2,6 C 27,4 km/h (4 Bft)
01.02.2023 15:27 4,3 C 3,9 C 81 % 1023,0 hPa 0,0 l/m 20,0 km/h (4 Bft) W 260 0 min 0,0 UV-I 29 W/m 1,3 C -4,1 C 32,2 km/h (5 Bft)
01.02.2023 15:30 4,3 C 3,9 C 81 % 1022,9 hPa 0,0 l/m 15,7 km/h (3 Bft) SW 232 0 min 0,0 UV-I 22 W/m 1,3 C -2,1 C 27,4 km/h (4 Bft)
01.02.2023 15:33 4,3 C 3,9 C 82 % 1023,1 hPa 0,0 l/m 16,5 km/h (3 Bft) SW 234 0 min 0,0 UV-I 16 W/m 1,5 C -2,5 C 27,4 km/h (4 Bft)
01.02.2023 15:36 4,2 C 3,9 C 82 % 1023,0 hPa 0,0 l/m 13,1 km/h (3 Bft) SW 221 0 min 0,0 UV-I 15 W/m 1,4 C -0,8 C 24,1 km/h (4 Bft)
01.02.2023 15:39 4,2 C 3,9 C 82 % 1023,1 hPa 0,0 l/m 16,8 km/h (3 Bft) W 277 0 min 0,0 UV-I 15 W/m 1,4 C -2,8 C 27,4 km/h (4 Bft)
01.02.2023 15:42 4,2 C 3,9 C 82 % 1023,3 hPa 0,0 l/m 13,7 km/h (3 Bft) W-SW 250 0 min 0,0 UV-I 17 W/m 1,4 C -1,2 C 27,4 km/h (4 Bft)
01.02.2023 15:45 4,2 C 3,3 C 82 % 1023,2 hPa 0,0 l/m 17,8 km/h (3 Bft) SW 223 0 min 0,0 UV-I 16 W/m 1,4 C -3,3 C 29,0 km/h (5 Bft)
01.02.2023 15:48 4,2 C 3,3 C 82 % 1023,2 hPa 0,0 l/m 20,0 km/h (4 Bft) SW 227 0 min 0,0 UV-I 12 W/m 1,4 C -4,2 C 32,2 km/h (5 Bft)
01.02.2023 15:51 4,2 C 3,3 C 82 % 1023,2 hPa 0,0 l/m 17,0 km/h (3 Bft) W-SW 246 0 min 0,0 UV-I 15 W/m 1,4 C -2,9 C 25,7 km/h (4 Bft)
01.02.2023 15:54 4,2 C 3,9 C 82 % 1023,2 hPa 0,0 l/m 20,9 km/h (4 Bft) SW 236 0 min 0,0 UV-I 25 W/m 1,4 C -4,6 C 33,8 km/h (5 Bft)
01.02.2023 15:57 4,1 C 3,9 C 82 % 1023,2 hPa 0,0 l/m 18,6 km/h (3 Bft) S-SW 205 0 min 0,0 UV-I 34 W/m 1,3 C -3,7 C 30,6 km/h (5 Bft)
01.02.2023 16:00 4,1 C 3,9 C 83 % 1023,2 hPa 0,0 l/m 15,4 km/h (3 Bft) W-SW 253 0 min 0,0 UV-I 23 W/m 1,5 C -2,2 C 27,4 km/h (4 Bft)
01.02.2023 16:03 4,1 C 3,9 C 83 % 1023,3 hPa 0,0 l/m 15,1 km/h (3 Bft) SW 229 0 min 0,0 UV-I 13 W/m 1,5 C -2,1 C 22,5 km/h (4 Bft)
01.02.2023 16:06 4,1 C 3,9 C 83 % 1023,2 hPa 0,0 l/m 15,4 km/h (3 Bft) W-SW 238 0 min 0,0 UV-I 14 W/m 1,5 C -2,2 C 24,1 km/h (4 Bft)
01.02.2023 16:09 4,1 C 3,3 C 83 % 1023,3 hPa 0,0 l/m 11,0 km/h (2 Bft) W 270 0 min 0,0 UV-I 16 W/m 1,5 C 0,4 C 20,9 km/h (4 Bft)
01.02.2023 16:12 4,1 C 3,3 C 83 % 1023,4 hPa 0,0 l/m 13,3 km/h (3 Bft) SW 226 0 min 0,0 UV-I 11 W/m 1,5 C -1,1 C 24,1 km/h (4 Bft)
01.02.2023 16:15 4,1 C 3,3 C 83 % 1023,2 hPa 0,0 l/m 13,3 km/h (3 Bft) SW 215 0 min 0,0 UV-I 13 W/m 1,5 C -1,1 C 22,5 km/h (4 Bft)
01.02.2023 16:18 4,1 C 3,3 C 83 % 1023,2 hPa 0,0 l/m 16,7 km/h (3 Bft) S-SW 195 0 min 0,0 UV-I 16 W/m 1,5 C -2,9 C 27,4 km/h (4 Bft)
01.02.2023 16:21 4,1 C 3,9 C 83 % 1023,2 hPa 0,0 l/m 14,5 km/h (3 Bft) SW 233 0 min 0,0 UV-I 20 W/m 1,5 C -1,7 C 27,4 km/h (4 Bft)
01.02.2023 16:24 4,1 C 3,9 C 83 % 1023,2 hPa 0,0 l/m 17,1 km/h (3 Bft) SW 229 0 min 0,0 UV-I 20 W/m 1,5 C -3,1 C 25,7 km/h (4 Bft)
01.02.2023 16:27 4,1 C 3,9 C 83 % 1023,2 hPa 0,0 l/m 14,7 km/h (3 Bft) SW 227 0 min 0,0 UV-I 18 W/m 1,5 C -1,9 C 25,7 km/h (4 Bft)
01.02.2023 16:30 4,1 C 3,3 C 83 % 1023,1 hPa 0,0 l/m 12,7 km/h (3 Bft) SW 234 0 min 0,0 UV-I 12 W/m 1,5 C -0,7 C 22,5 km/h (4 Bft)
01.02.2023 16:33 4,1 C 3,3 C 83 % 1023,1 hPa 0,0 l/m 15,8 km/h (3 Bft) W-SW 237 0 min 0,0 UV-I 10 W/m 1,5 C -2,4 C 25,7 km/h (4 Bft)
01.02.2023 16:36 4,1 C 3,3 C 83 % 1023,2 hPa 0,0 l/m 15,2 km/h (3 Bft) W 259 0 min 0,0 UV-I 7 W/m 1,5 C -2,1 C 27,4 km/h (4 Bft)
01.02.2023 16:39 4,1 C 3,3 C 83 % 1023,1 hPa 0,0 l/m 16,8 km/h (3 Bft) W-SW 240 0 min 0,0 UV-I 6 W/m 1,5 C -2,9 C 33,8 km/h (5 Bft)
01.02.2023 16:42 4,1 C 3,3 C 84 % 1023,2 hPa 0,0 l/m 17,7 km/h (3 Bft) SW 228 0 min 0,0 UV-I 5 W/m 1,6 C -3,3 C 27,4 km/h (4 Bft)
01.02.2023 16:45 4,1 C 3,3 C 84 % 1023,2 hPa 0,0 l/m 16,6 km/h (3 Bft) W 263 0 min 0,0 UV-I 6 W/m 1,6 C -2,8 C 37,0 km/h (5 Bft)
01.02.2023 16:48 4,0 C 3,3 C 84 % 1023,1 hPa 0,0 l/m 15,2 km/h (3 Bft) SW 216 0 min 0,0 UV-I 6 W/m 1,5 C -2,2 C 27,4 km/h (4 Bft)
01.02.2023 16:51 4,0 C 3,3 C 84 % 1023,1 hPa 0,0 l/m 14,5 km/h (3 Bft) SW 228 0 min 0,0 UV-I 8 W/m 1,5 C -1,9 C 25,7 km/h (4 Bft)
01.02.2023 16:54 3,9 C 3,3 C 84 % 1023,1 hPa 0,0 l/m 15,4 km/h (3 Bft) SW 219 0 min 0,0 UV-I 11 W/m 1,4 C -2,5 C 33,8 km/h (5 Bft)
01.02.2023 16:57 4,0 C 3,3 C 84 % 1023,1 hPa 0,0 l/m 13,1 km/h (3 Bft) SW 232 0 min 0,0 UV-I 9 W/m 1,5 C -1,1 C 25,7 km/h (4 Bft)
01.02.2023 17:00 3,9 C 3,3 C 84 % 1023,1 hPa 0,0 l/m 16,2 km/h (3 Bft) S-SW 199 0 min 0,0 UV-I 5 W/m 1,4 C -2,9 C 27,4 km/h (4 Bft)
01.02.2023 17:03 3,9 C 3,3 C 85 % 1023,1 hPa 0,0 l/m 12,6 km/h (3 Bft) S-SW 211 0 min 0,0 UV-I 0 W/m 1,6 C -0,9 C 25,7 km/h (4 Bft)
01.02.2023 17:06 3,9 C 2,8 C 85 % 1023,0 hPa 0,0 l/m 16,1 km/h (3 Bft) SW 223 0 min 0,0 UV-I 0 W/m 1,6 C -2,8 C 27,4 km/h (4 Bft)
01.02.2023 17:09 3,9 C 2,8 C 85 % 1023,1 hPa 0,0 l/m 15,7 km/h (3 Bft) S-SW 203 0 min 0,0 UV-I 0 W/m 1,6 C -2,6 C 27,4 km/h (4 Bft)
01.02.2023 17:12 3,8 C 2,8 C 85 % 1023,1 hPa 0,0 l/m 11,3 km/h (2 Bft) W 275 0 min 0,0 UV-I 0 W/m 1,5 C -0,2 C 24,1 km/h (4 Bft)
01.02.2023 17:15 3,8 C 2,8 C 85 % 1023,1 hPa 0,0 l/m 14,1 km/h (3 Bft) S-SW 208 0 min 0,0 UV-I 0 W/m 1,5 C -1,9 C 20,9 km/h (4 Bft)
01.02.2023 17:18 3,8 C 3,3 C 85 % 1023,1 hPa 0,0 l/m 14,9 km/h (3 Bft) W-SW 237 0 min 0,0 UV-I 0 W/m 1,5 C -2,3 C 25,7 km/h (4 Bft)
01.02.2023 17:21 3,8 C 3,3 C 85 % 1023,0 hPa 0,0 l/m 14,5 km/h (3 Bft) W 272 0 min 0,0 UV-I 0 W/m 1,5 C -2,1 C 25,7 km/h (4 Bft)
01.02.2023 17:24 3,8 C 3,3 C 85 % 1023,1 hPa 0,0 l/m 15,9 km/h (3 Bft) W 271 0 min 0,0 UV-I 0 W/m 1,5 C -2,8 C 27,4 km/h (4 Bft)
01.02.2023 17:27 3,8 C 3,3 C 85 % 1023,3 hPa 0,0 l/m 15,5 km/h (3 Bft) W-SW 246 0 min 0,0 UV-I 0 W/m 1,5 C -2,6 C 27,4 km/h (4 Bft)
01.02.2023 17:30 3,8 C 3,3 C 85 % 1023,1 hPa 0,0 l/m 14,4 km/h (3 Bft) S-SW 201 0 min 0,0 UV-I 0 W/m 1,5 C -2,1 C 29,0 km/h (5 Bft)
01.02.2023 17:33 3,8 C 2,8 C 86 % 1023,2 hPa 0,0 l/m 13,3 km/h (3 Bft) W-SW 249 0 min 0,0 UV-I 0 W/m 1,7 C -1,4 C 24,1 km/h (4 Bft)
01.02.2023 17:36 3,8 C 2,8 C 86 % 1023,2 hPa 0,0 l/m 13,5 km/h (3 Bft) W-SW 250 0 min 0,0 UV-I 0 W/m 1,7 C -1,5 C 27,4 km/h (4 Bft)
01.02.2023 17:39 3,8 C 2,8 C 86 % 1023,2 hPa 0,0 l/m 13,5 km/h (3 Bft) W-SW 241 0 min 0,0 UV-I 0 W/m 1,7 C -1,5 C 24,1 km/h (4 Bft)
01.02.2023 17:42 3,8 C 2,8 C 86 % 1023,3 hPa 0,0 l/m 11,8 km/h (2 Bft) S-SW 204 0 min 0,0 UV-I 0 W/m 1,7 C -0,5 C 25,7 km/h (4 Bft)
01.02.2023 17:45 3,8 C 2,8 C 86 % 1023,2 hPa 0,0 l/m 13,4 km/h (3 Bft) W-SW 239 0 min 0,0 UV-I 0 W/m 1,7 C -1,5 C 33,8 km/h (5 Bft)
01.02.2023 17:48 3,7 C 2,8 C 86 % 1023,3 hPa 0,0 l/m 16,7 km/h (3 Bft) W-SW 244 0 min 0,0 UV-I 0 W/m 1,6 C -3,4 C 32,2 km/h (5 Bft)
01.02.2023 17:51 3,8 C 2,8 C 87 % 1023,2 hPa 0,0 l/m 13,6 km/h (3 Bft) SW 227 0 min 0,0 UV-I 0 W/m 1,8 C -1,6 C 22,5 km/h (4 Bft)
01.02.2023 17:54 3,7 C 2,8 C 87 % 1023,3 hPa 0,0 l/m 13,7 km/h (3 Bft) W-SW 244 0 min 0,0 UV-I 0 W/m 1,7 C -1,8 C 24,1 km/h (4 Bft)
01.02.2023 17:57 3,8 C 2,8 C 87 % 1023,3 hPa 0,0 l/m 18,3 km/h (3 Bft) W-SW 252 0 min 0,0 UV-I 0 W/m 1,8 C -4,0 C 35,4 km/h (5 Bft)
01.02.2023 18:00 3,8 C 2,8 C 87 % 1023,3 hPa 0,0 l/m 17,5 km/h (3 Bft) SW 233 0 min 0,0 UV-I 0 W/m 1,8 C -3,6 C 29,0 km/h (5 Bft)
01.02.2023 18:03 3,8 C 2,8 C 87 % 1023,2 hPa 0,0 l/m 14,2 km/h (3 Bft) W-SW 256 0 min 0,0 UV-I 0 W/m 1,8 C -1,9 C 27,4 km/h (4 Bft)
01.02.2023 18:06 3,8 C 2,8 C 87 % 1023,4 hPa 0,0 l/m 13,5 km/h (3 Bft) W-SW 239 0 min 0,0 UV-I 0 W/m 1,8 C -1,5 C 32,2 km/h (5 Bft)
01.02.2023 18:09 3,8 C 2,8 C 87 % 1023,4 hPa 0,0 l/m 13,6 km/h (3 Bft) S 188 0 min 0,0 UV-I 0 W/m 1,8 C -1,6 C 22,5 km/h (4 Bft)
01.02.2023 18:12 3,8 C 2,8 C 87 % 1023,5 hPa 0,0 l/m 13,7 km/h (3 Bft) W-SW 237 0 min 0,0 UV-I 0 W/m 1,8 C -1,7 C 25,7 km/h (4 Bft)
01.02.2023 18:15 3,7 C 2,8 C 87 % 1023,4 hPa 0,0 l/m 11,4 km/h (2 Bft) SW 226 0 min 0,0 UV-I 0 W/m 1,7 C -0,3 C 22,5 km/h (4 Bft)
01.02.2023 18:18 3,7 C 2,8 C 87 % 1023,5 hPa 0,0 l/m 13,1 km/h (3 Bft) SW 227 0 min 0,0 UV-I 0 W/m 1,7 C -1,4 C 20,9 km/h (4 Bft)
01.02.2023 18:21 3,7 C 2,8 C 87 % 1023,5 hPa 0,0 l/m 13,2 km/h (3 Bft) SW 218 0 min 0,0 UV-I 0 W/m 1,7 C -1,5 C 25,7 km/h (4 Bft)
01.02.2023 18:24 3,7 C 2,8 C 87 % 1023,6 hPa 0,0 l/m 11,2 km/h (2 Bft) W 265 0 min 0,0 UV-I 0 W/m 1,7 C -0,2 C 22,5 km/h (4 Bft)
01.02.2023 18:27 3,7 C 2,8 C 87 % 1023,6 hPa 0,0 l/m 14,6 km/h (3 Bft) W-SW 252 0 min 0,0 UV-I 0 W/m 1,7 C -2,3 C 32,2 km/h (5 Bft)
01.02.2023 18:30 3,7 C 2,8 C 88 % 1023,6 hPa 0,0 l/m 13,5 km/h (3 Bft) W 265 0 min 0,0 UV-I 0 W/m 1,9 C -1,7 C 27,4 km/h (4 Bft)
01.02.2023 18:33 3,7 C 2,8 C 88 % 1023,6 hPa 0,2 l/m 11,1 km/h (2 Bft) S-SW 200 0 min 0,0 UV-I 0 W/m 1,9 C -0,1 C 22,5 km/h (4 Bft)
01.02.2023 18:36 3,7 C 2,8 C 88 % 1023,6 hPa 0,0 l/m 13,1 km/h (3 Bft) S-SW 200 0 min 0,0 UV-I 0 W/m 1,9 C -1,4 C 30,6 km/h (5 Bft)
01.02.2023 18:39 3,6 C 2,8 C 88 % 1023,6 hPa 0,0 l/m 16,8 km/h (3 Bft) W-SW 242 0 min 0,0 UV-I 0 W/m 1,8 C -3,5 C 33,8 km/h (5 Bft)
01.02.2023 18:42 3,6 C 2,8 C 88 % 1023,8 hPa 0,0 l/m 12,4 km/h (3 Bft) SW 223 0 min 0,0 UV-I 0 W/m 1,8 C -1,1 C 22,5 km/h (4 Bft)
01.02.2023 18:45 3,6 C 2,8 C 88 % 1023,8 hPa 0,0 l/m 13,6 km/h (3 Bft) SW 215 0 min 0,0 UV-I 0 W/m 1,8 C -1,8 C 22,5 km/h (4 Bft)
01.02.2023 18:48 3,5 C 2,8 C 88 % 1023,9 hPa 0,0 l/m 14,9 km/h (3 Bft) W-SW 250 0 min 0,0 UV-I 0 W/m 1,7 C -2,7 C 30,6 km/h (5 Bft)
01.02.2023 18:51 3,4 C 2,8 C 89 % 1023,8 hPa 0,0 l/m 14,6 km/h (3 Bft) W-SW 251 0 min 0,0 UV-I 0 W/m 1,8 C -2,6 C 30,6 km/h (5 Bft)
01.02.2023 18:54 3,5 C 2,8 C 88 % 1023,9 hPa 0,2 l/m 14,0 km/h (3 Bft) W-SW 240 0 min 0,0 UV-I 0 W/m 1,7 C -2,2 C 22,5 km/h (4 Bft)
01.02.2023 18:57 3,4 C 2,8 C 89 % 1024,0 hPa 0,0 l/m 15,0 km/h (3 Bft) W-SW 255 0 min 0,0 UV-I 0 W/m 1,8 C -2,9 C 27,4 km/h (4 Bft)
01.02.2023 19:00 3,4 C 2,8 C 89 % 1024,1 hPa 0,0 l/m 14,6 km/h (3 Bft) W 269 0 min 0,0 UV-I 0 W/m 1,8 C -2,6 C 27,4 km/h (4 Bft)
01.02.2023 19:03 3,5 C 2,8 C 89 % 1023,9 hPa 0,0 l/m 12,4 km/h (3 Bft) SW 223 0 min 0,0 UV-I 0 W/m 1,9 C -1,2 C 29,0 km/h (5 Bft)
01.02.2023 19:06 3,4 C 2,8 C 89 % 1024,0 hPa 0,0 l/m 15,3 km/h (3 Bft) W-SW 250 0 min 0,0 UV-I 0 W/m 1,8 C -3,0 C 25,7 km/h (4 Bft)
01.02.2023 19:09 3,4 C 2,8 C 89 % 1023,9 hPa 0,2 l/m 13,2 km/h (3 Bft) W 274 0 min 0,0 UV-I 0 W/m 1,8 C -1,8 C 29,0 km/h (5 Bft)
01.02.2023 19:12 3,4 C 2,2 C 89 % 1023,8 hPa 0,0 l/m 15,9 km/h (3 Bft) W-SW 251 0 min 0,0 UV-I 0 W/m 1,8 C -3,3 C 24,1 km/h (4 Bft)
01.02.2023 19:15 3,3 C 2,2 C 89 % 1024,0 hPa 0,0 l/m 15,3 km/h (3 Bft) W-SW 240 0 min 0,0 UV-I 0 W/m 1,7 C -3,1 C 27,4 km/h (4 Bft)
01.02.2023 19:18 3,3 C 2,2 C 89 % 1023,9 hPa 0,0 l/m 11,1 km/h (2 Bft) W-SW 253 0 min 0,0 UV-I 0 W/m 1,7 C -0,6 C 20,9 km/h (4 Bft)
01.02.2023 19:21 3,2 C 2,2 C 89 % 1024,1 hPa 0,0 l/m 11,6 km/h (2 Bft) W 262 0 min 0,0 UV-I 0 W/m 1,6 C -1,1 C 29,0 km/h (5 Bft)
01.02.2023 19:24 3,2 C 2,2 C 89 % 1024,0 hPa 0,2 l/m 19,7 km/h (3 Bft) SW 236 0 min 0,0 UV-I 0 W/m 1,6 C -5,4 C 32,2 km/h (5 Bft)
01.02.2023 19:27 3,1 C 2,2 C 89 % 1024,0 hPa 0,0 l/m 19,7 km/h (3 Bft) SW 216 0 min 0,0 UV-I 0 W/m 1,5 C -5,5 C 30,6 km/h (5 Bft)
01.02.2023 19:30 3,1 C 2,2 C 89 % 1024,0 hPa 0,0 l/m 11,8 km/h (2 Bft) W-SW 250 0 min 0,0 UV-I 0 W/m 1,5 C -1,3 C 20,9 km/h (4 Bft)
01.02.2023 19:33 3,0 C 2,2 C 89 % 1024,1 hPa 0,0 l/m 13,4 km/h (3 Bft) SW 225 0 min 0,0 UV-I 0 W/m 1,4 C -2,4 C 25,7 km/h (4 Bft)
01.02.2023 19:36 2,9 C 2,2 C 89 % 1024,2 hPa 0,0 l/m 12,1 km/h (2 Bft) W-SW 238 0 min 0,0 UV-I 0 W/m 1,3 C -1,7 C 25,7 km/h (4 Bft)
01.02.2023 19:39 2,9 C 2,2 C 90 % 1024,1 hPa 0,0 l/m 17,0 km/h (3 Bft) SW 228 0 min 0,0 UV-I 0 W/m 1,4 C -4,5 C 27,4 km/h (4 Bft)
01.02.2023 19:42 2,9 C 2,2 C 90 % 1024,3 hPa 0,0 l/m 11,7 km/h (2 Bft) W-SW 247 0 min 0,0 UV-I 0 W/m 1,4 C -1,5 C 22,5 km/h (4 Bft)
01.02.2023 19:45 2,9 C 2,2 C 90 % 1024,2 hPa 0,0 l/m 11,1 km/h (2 Bft) W 264 0 min 0,0 UV-I 0 W/m 1,4 C -1,0 C 20,9 km/h (4 Bft)
01.02.2023 19:48 2,9 C 2,2 C 90 % 1024,0 hPa 0,0 l/m 9,6 km/h (2 Bft) W 259 0 min 0,0 UV-I 0 W/m 1,4 C 0,1 C 17,7 km/h (3 Bft)
01.02.2023 19:51 2,9 C 2,2 C 90 % 1024,2 hPa 0,0 l/m 13,9 km/h (3 Bft) SW 227 0 min 0,0 UV-I 0 W/m 1,4 C -2,8 C 24,1 km/h (4 Bft)
01.02.2023 19:54 2,9 C 2,2 C 90 % 1024,2 hPa 0,0 l/m 10,8 km/h (2 Bft) W-SW 242 0 min 0,0 UV-I 0 W/m 1,4 C -0,8 C 17,7 km/h (3 Bft)
01.02.2023 19:57 2,9 C 2,2 C 90 % 1024,3 hPa 0,2 l/m 12,9 km/h (3 Bft) W-SW 252 0 min 0,0 UV-I 0 W/m 1,4 C -2,2 C 19,3 km/h (3 Bft)
01.02.2023 20:00 3,0 C 2,2 C 90 % 1024,2 hPa 0,0 l/m 13,5 km/h (3 Bft) W-SW 240 0 min 0,0 UV-I 0 W/m 1,5 C -2,5 C 25,7 km/h (4 Bft)
01.02.2023 20:03 3,1 C 2,2 C 90 % 1024,2 hPa 0,0 l/m 12,5 km/h (3 Bft) W 269 0 min 0,0 UV-I 0 W/m 1,6 C -1,8 C 25,7 km/h (4 Bft)
01.02.2023 20:06 3,1 C 2,2 C 91 % 1024,3 hPa 0,0 l/m 10,7 km/h (2 Bft) SW 235 0 min 0,0 UV-I 0 W/m 1,8 C -0,5 C 30,6 km/h (5 Bft)
01.02.2023 20:09 3,1 C 2,2 C 91 % 1024,2 hPa 0,0 l/m 12,3 km/h (3 Bft) W-SW 240 0 min 0,0 UV-I 0 W/m 1,8 C -1,6 C 22,5 km/h (4 Bft)
01.02.2023 20:12 3,1 C 2,8 C 91 % 1024,2 hPa 0,0 l/m 10,3 km/h (2 Bft) W 263 0 min 0,0 UV-I 0 W/m 1,8 C -0,2 C 19,3 km/h (3 Bft)
01.02.2023 20:15 3,2 C 2,8 C 91 % 1024,2 hPa 0,0 l/m 13,9 km/h (3 Bft) S-SW 211 0 min 0,0 UV-I 0 W/m 1,9 C -2,5 C 22,5 km/h (4 Bft)
01.02.2023 20:18 3,2 C 2,8 C 91 % 1024,2 hPa 0,0 l/m 14,1 km/h (3 Bft) W-SW 258 0 min 0,0 UV-I 0 W/m 1,9 C -2,6 C 24,1 km/h (4 Bft)
01.02.2023 20:21 3,2 C 2,8 C 91 % 1024,2 hPa 0,0 l/m 15,8 km/h (3 Bft) S 191 0 min 0,0 UV-I 0 W/m 1,9 C -3,5 C 29,0 km/h (5 Bft)
01.02.2023 20:24 3,3 C 2,8 C 91 % 1024,3 hPa 0,0 l/m 14,0 km/h (3 Bft) S-SW 209 0 min 0,0 UV-I 0 W/m 2,0 C -2,4 C 20,9 km/h (4 Bft)
01.02.2023 20:27 3,3 C 2,8 C 91 % 1024,3 hPa 0,0 l/m 11,7 km/h (2 Bft) W-SW 240 0 min 0,0 UV-I 0 W/m 2,0 C -1,0 C 17,7 km/h (3 Bft)
01.02.2023 20:30 3,3 C 2,8 C 91 % 1024,2 hPa 0,0 l/m 11,6 km/h (2 Bft) W-SW 250 0 min 0,0 UV-I 0 W/m 2,0 C -0,9 C 20,9 km/h (4 Bft)
01.02.2023 20:33 3,3 C 2,8 C 91 % 1024,2 hPa 0,0 l/m 11,2 km/h (2 Bft) W-SW 239 0 min 0,0 UV-I 0 W/m 2,0 C -0,7 C 17,7 km/h (3 Bft)
01.02.2023 20:36 3,3 C 2,8 C 91 % 1024,2 hPa 0,0 l/m 17,4 km/h (3 Bft) SW 217 0 min 0,0 UV-I 0 W/m 2,0 C -4,2 C 30,6 km/h (5 Bft)
01.02.2023 20:39 3,3 C 2,8 C 91 % 1024,2 hPa 0,0 l/m 14,3 km/h (3 Bft) SW 220 0 min 0,0 UV-I 0 W/m 2,0 C -2,6 C 30,6 km/h (5 Bft)
01.02.2023 20:42 3,3 C 2,8 C 91 % 1024,1 hPa 0,0 l/m 15,8 km/h (3 Bft) SW 230 0 min 0,0 UV-I 0 W/m 2,0 C -3,4 C 29,0 km/h (5 Bft)
01.02.2023 20:45 3,3 C 2,8 C 91 % 1024,1 hPa 0,0 l/m 13,8 km/h (3 Bft) W-SW 242 0 min 0,0 UV-I 0 W/m 2,0 C -2,3 C 24,1 km/h (4 Bft)
01.02.2023 20:48 3,3 C 2,8 C 91 % 1024,1 hPa 0,0 l/m 14,4 km/h (3 Bft) W-SW 248 0 min 0,0 UV-I 0 W/m 2,0 C -2,7 C 27,4 km/h (4 Bft)
01.02.2023 20:51 3,3 C 2,8 C 91 % 1024,2 hPa 0,0 l/m 19,5 km/h (3 Bft) W 271 0 min 0,0 UV-I 0 W/m 2,0 C -5,2 C 30,6 km/h (5 Bft)
01.02.2023 20:54 3,3 C 2,8 C 91 % 1024,1 hPa 0,0 l/m 16,6 km/h (3 Bft) W-SW 252 0 min 0,0 UV-I 0 W/m 2,0 C -3,8 C 32,2 km/h (5 Bft)
01.02.2023 20:57 3,3 C 2,8 C 91 % 1024,1 hPa 0,0 l/m 18,0 km/h (3 Bft) W 261 0 min 0,0 UV-I 0 W/m 2,0 C -4,5 C 29,0 km/h (5 Bft)
01.02.2023 21:00 3,3 C 2,8 C 91 % 1024,1 hPa 0,0 l/m 13,5 km/h (3 Bft) W-SW 257 0 min 0,0 UV-I 0 W/m 2,0 C -2,1 C 24,1 km/h (4 Bft)
01.02.2023 21:03 3,4 C 2,8 C 91 % 1024,2 hPa 0,0 l/m 13,1 km/h (3 Bft) SW 232 0 min 0,0 UV-I 0 W/m 2,1 C -1,8 C 24,1 km/h (4 Bft)
01.02.2023 21:06 3,4 C 2,8 C 91 % 1024,2 hPa 0,0 l/m 12,0 km/h (2 Bft) W-SW 237 0 min 0,0 UV-I 0 W/m 2,1 C -1,1 C 22,5 km/h (4 Bft)
01.02.2023 21:09 3,4 C 2,8 C 91 % 1024,2 hPa 0,0 l/m 16,9 km/h (3 Bft) W-SW 254 0 min 0,0 UV-I 0 W/m 2,1 C -3,8 C 24,1 km/h (4 Bft)
01.02.2023 21:12 3,4 C 2,8 C 91 % 1024,1 hPa 0,0 l/m 16,0 km/h (3 Bft) S-SW 209 0 min 0,0 UV-I 0 W/m 2,1 C -3,4 C 25,7 km/h (4 Bft)
01.02.2023 21:15 3,4 C 2,8 C 91 % 1024,2 hPa 0,0 l/m 12,7 km/h (3 Bft) W 263 0 min 0,0 UV-I 0 W/m 2,1 C -1,5 C 29,0 km/h (5 Bft)
01.02.2023 21:18 3,4 C 2,8 C 91 % 1024,2 hPa 0,0 l/m 12,3 km/h (3 Bft) W-SW 252 0 min 0,0 UV-I 0 W/m 2,1 C -1,3 C 19,3 km/h (3 Bft)
01.02.2023 21:21 3,4 C 2,8 C 91 % 1024,3 hPa 0,0 l/m 15,2 km/h (3 Bft) SW 229 0 min 0,0 UV-I 0 W/m 2,1 C -3,0 C 29,0 km/h (5 Bft)
01.02.2023 21:24 3,4 C 2,8 C 91 % 1024,2 hPa 0,0 l/m 12,8 km/h (3 Bft) W 269 0 min 0,0 UV-I 0 W/m 2,1 C -1,6 C 27,4 km/h (4 Bft)
01.02.2023 21:27 3,4 C 2,8 C 91 % 1024,2 hPa 0,0 l/m 12,8 km/h (3 Bft) SW 229 0 min 0,0 UV-I 0 W/m 2,1 C -1,6 C 20,9 km/h (4 Bft)
01.02.2023 21:30 3,4 C 2,8 C 91 % 1024,3 hPa 0,0 l/m 12,4 km/h (3 Bft) W 269 0 min 0,0 UV-I 0 W/m 2,1 C -1,3 C 22,5 km/h (4 Bft)
01.02.2023 21:33 3,4 C 2,8 C 91 % 1024,2 hPa 0,0 l/m 15,4 km/h (3 Bft) SW 221 0 min 0,0 UV-I 0 W/m 2,1 C -3,1 C 27,4 km/h (4 Bft)
01.02.2023 21:36 3,4 C 2,8 C 91 % 1024,3 hPa 0,0 l/m 15,0 km/h (3 Bft) W-NW 290 0 min 0,0 UV-I 0 W/m 2,1 C -2,9 C 25,7 km/h (4 Bft)
01.02.2023 21:39 3,4 C 2,8 C 91 % 1024,4 hPa 0,0 l/m 14,3 km/h (3 Bft) SW 221 0 min 0,0 UV-I 0 W/m 2,1 C -2,5 C 30,6 km/h (5 Bft)
01.02.2023 21:42 3,4 C 2,8 C 91 % 1024,3 hPa 0,0 l/m 12,4 km/h (3 Bft) W 261 0 min 0,0 UV-I 0 W/m 2,1 C -1,3 C 22,5 km/h (4 Bft)
01.02.2023 21:45 3,3 C 2,8 C 91 % 1024,4 hPa 0,0 l/m 14,9 km/h (3 Bft) W 274 0 min 0,0 UV-I 0 W/m 2,0 C -2,9 C 37,0 km/h (5 Bft)
01.02.2023 21:48 3,4 C 2,8 C 91 % 1024,3 hPa 0,2 l/m 16,3 km/h (3 Bft) W-SW 242 0 min 0,0 UV-I 0 W/m 2,1 C -3,5 C 32,2 km/h (5 Bft)
01.02.2023 21:51 3,4 C 2,8 C 91 % 1024,3 hPa 0,0 l/m 12,6 km/h (3 Bft) W-SW 258 0 min 0,0 UV-I 0 W/m 2,1 C -1,5 C 24,1 km/h (4 Bft)
01.02.2023 21:54 3,4 C 2,8 C 91 % 1024,2 hPa 0,0 l/m 10,6 km/h (2 Bft) W 265 0 min 0,0 UV-I 0 W/m 2,1 C -0,1 C 19,3 km/h (3 Bft)
01.02.2023 21:57 3,4 C 2,8 C 91 % 1024,1 hPa 0,0 l/m 11,5 km/h (2 Bft) S-SW 209 0 min 0,0 UV-I 0 W/m 2,1 C -0,8 C 29,0 km/h (5 Bft)
01.02.2023 22:00 3,4 C 2,8 C 91 % 1024,1 hPa 0,0 l/m 13,9 km/h (3 Bft) W-SW 246 0 min 0,0 UV-I 0 W/m 2,1 C -2,2 C 25,7 km/h (4 Bft)
01.02.2023 22:03 3,5 C 2,8 C 91 % 1024,1 hPa 0,0 l/m 10,0 km/h (2 Bft) S-SW 212 0 min 0,0 UV-I 0 W/m 2,2 C 0,4 C 19,3 km/h (3 Bft)
01.02.2023 22:06 3,5 C 2,8 C 91 % 1024,1 hPa 0,0 l/m 11,3 km/h (2 Bft) W-SW 252 0 min 0,0 UV-I 0 W/m 2,2 C -0,5 C 19,3 km/h (3 Bft)
01.02.2023 22:09 3,5 C 2,8 C 91 % 1024,1 hPa 0,0 l/m 15,1 km/h (3 Bft) W-SW 242 0 min 0,0 UV-I 0 W/m 2,2 C -2,8 C 24,1 km/h (4 Bft)
01.02.2023 22:12 3,6 C 2,8 C 91 % 1024,1 hPa 0,0 l/m 13,2 km/h (3 Bft) S-SW 213 0 min 0,0 UV-I 0 W/m 2,3 C -1,6 C 27,4 km/h (4 Bft)
01.02.2023 22:15 3,7 C 2,8 C 91 % 1024,0 hPa 0,0 l/m 18,0 km/h (3 Bft) W-SW 251 0 min 0,0 UV-I 0 W/m 2,4 C -4,0 C 35,4 km/h (5 Bft)
01.02.2023 22:18 3,7 C 2,8 C 91 % 1024,1 hPa 0,0 l/m 15,3 km/h (3 Bft) S-SW 196 0 min 0,0 UV-I 0 W/m 2,4 C -2,7 C 25,7 km/h (4 Bft)
01.02.2023 22:21 3,7 C 2,8 C 92 % 1024,1 hPa 0,0 l/m 12,4 km/h (3 Bft) W 259 0 min 0,0 UV-I 0 W/m 2,5 C -1,0 C 25,7 km/h (4 Bft)
01.02.2023 22:24 3,7 C 2,8 C 92 % 1024,1 hPa 0,0 l/m 15,7 km/h (3 Bft) W-NW 284 0 min 0,0 UV-I 0 W/m 2,5 C -2,9 C 27,4 km/h (4 Bft)
01.02.2023 22:27 3,7 C 2,8 C 92 % 1024,1 hPa 0,0 l/m 9,2 km/h (2 Bft) W 259 0 min 0,0 UV-I 0 W/m 2,5 C 1,2 C 22,5 km/h (4 Bft)
01.02.2023 22:30 3,7 C 2,8 C 92 % 1024,1 hPa 0,0 l/m 12,1 km/h (2 Bft) SW 217 0 min 0,0 UV-I 0 W/m 2,5 C -0,8 C 19,3 km/h (3 Bft)
01.02.2023 22:33 3,7 C 2,8 C 92 % 1024,1 hPa 0,0 l/m 13,3 km/h (3 Bft) W-SW 254 0 min 0,0 UV-I 0 W/m 2,5 C -1,5 C 29,0 km/h (5 Bft)
01.02.2023 22:36 3,7 C 2,8 C 92 % 1024,0 hPa 0,2 l/m 19,5 km/h (3 Bft) SW 223 0 min 0,0 UV-I 0 W/m 2,5 C -4,6 C 38,6 km/h (5 Bft)
01.02.2023 22:39 3,7 C 2,8 C 92 % 1024,0 hPa 0,0 l/m 11,2 km/h (2 Bft) W-SW 248 0 min 0,0 UV-I 0 W/m 2,5 C -0,2 C 19,3 km/h (3 Bft)
01.02.2023 22:42 3,7 C 2,8 C 92 % 1024,0 hPa 0,0 l/m 16,2 km/h (3 Bft) W-SW 250 0 min 0,0 UV-I 0 W/m 2,5 C -3,1 C 27,4 km/h (4 Bft)
01.02.2023 22:45 3,7 C 2,8 C 91 % 1024,0 hPa 0,0 l/m 19,0 km/h (3 Bft) W 261 0 min 0,0 UV-I 0 W/m 2,4 C -4,4 C 38,6 km/h (5 Bft)
01.02.2023 22:48 3,7 C 3,3 C 91 % 1024,1 hPa 0,0 l/m 18,4 km/h (3 Bft) W-SW 249 0 min 0,0 UV-I 0 W/m 2,4 C -4,2 C 37,0 km/h (5 Bft)
01.02.2023 22:51 3,8 C 3,3 C 91 % 1024,0 hPa 0,0 l/m 15,4 km/h (3 Bft) SW 216 0 min 0,0 UV-I 0 W/m 2,5 C -2,6 C 25,7 km/h (4 Bft)
01.02.2023 22:54 3,8 C 3,3 C 91 % 1024,1 hPa 0,0 l/m 15,1 km/h (3 Bft) SW 223 0 min 0,0 UV-I 0 W/m 2,5 C -2,4 C 24,1 km/h (4 Bft)
01.02.2023 22:57 3,8 C 3,3 C 91 % 1024,2 hPa 0,2 l/m 13,3 km/h (3 Bft) W 262 0 min 0,0 UV-I 0 W/m 2,5 C -1,4 C 22,5 km/h (4 Bft)
01.02.2023 23:00 3,8 C 3,3 C 91 % 1024,2 hPa 0,0 l/m 17,5 km/h (3 Bft) W 262 0 min 0,0 UV-I 0 W/m 2,5 C -3,6 C 32,2 km/h (5 Bft)
01.02.2023 23:03 3,8 C 3,3 C 91 % 1024,2 hPa 0,0 l/m 17,2 km/h (3 Bft) W-NW 282 0 min 0,0 UV-I 0 W/m 2,5 C -3,5 C 29,0 km/h (5 Bft)
01.02.2023 23:06 3,8 C 3,3 C 91 % 1024,3 hPa 0,0 l/m 18,7 km/h (3 Bft) W-SW 240 0 min 0,0 UV-I 0 W/m 2,5 C -4,2 C 29,0 km/h (5 Bft)
01.02.2023 23:09 3,8 C 2,8 C 91 % 1024,3 hPa 0,0 l/m 12,3 km/h (3 Bft) W 271 0 min 0,0 UV-I 0 W/m 2,5 C -0,8 C 19,3 km/h (3 Bft)
01.02.2023 23:12 3,8 C 2,8 C 91 % 1024,4 hPa 0,2 l/m 16,7 km/h (3 Bft) SW 231 0 min 0,0 UV-I 0 W/m 2,5 C -3,2 C 37,0 km/h (5 Bft)
01.02.2023 23:15 3,8 C 2,8 C 91 % 1024,4 hPa 0,0 l/m 13,5 km/h (3 Bft) S-SW 213 0 min 0,0 UV-I 0 W/m 2,5 C -1,5 C 25,7 km/h (4 Bft)
01.02.2023 23:18 3,8 C 3,3 C 91 % 1024,4 hPa 0,0 l/m 15,8 km/h (3 Bft) W 270 0 min 0,0 UV-I 0 W/m 2,5 C -2,8 C 27,4 km/h (4 Bft)
01.02.2023 23:21 3,8 C 3,3 C 91 % 1024,4 hPa 0,0 l/m 13,1 km/h (3 Bft) SW 228 0 min 0,0 UV-I 0 W/m 2,5 C -1,3 C 22,5 km/h (4 Bft)
01.02.2023 23:24 3,8 C 3,3 C 91 % 1024,3 hPa 0,0 l/m 12,6 km/h (3 Bft) W-SW 250 0 min 0,0 UV-I 0 W/m 2,5 C -1,0 C 33,8 km/h (5 Bft)
01.02.2023 23:27 3,8 C 3,3 C 91 % 1024,4 hPa 0,0 l/m 14,3 km/h (3 Bft) W-SW 239 0 min 0,0 UV-I 0 W/m 2,5 C -2,0 C 24,1 km/h (4 Bft)
01.02.2023 23:30 3,8 C 3,3 C 91 % 1024,3 hPa 0,0 l/m 15,6 km/h (3 Bft) W-NW 292 0 min 0,0 UV-I 0 W/m 2,5 C -2,7 C 25,7 km/h (4 Bft)
01.02.2023 23:33 3,8 C 3,3 C 91 % 1024,4 hPa 0,0 l/m 16,8 km/h (3 Bft) W-SW 251 0 min 0,0 UV-I 0 W/m 2,5 C -3,3 C 29,0 km/h (5 Bft)
01.02.2023 23:36 3,8 C 3,3 C 91 % 1024,5 hPa 0,2 l/m 13,0 km/h (3 Bft) W-SW 255 0 min 0,0 UV-I 0 W/m 2,5 C -1,2 C 22,5 km/h (4 Bft)
01.02.2023 23:39 3,9 C 3,3 C 91 % 1024,5 hPa 0,0 l/m 14,1 km/h (3 Bft) W 271 0 min 0,0 UV-I 0 W/m 2,6 C -1,8 C 24,1 km/h (4 Bft)
01.02.2023 23:42 3,9 C 3,3 C 91 % 1024,4 hPa 0,0 l/m 16,5 km/h (3 Bft) W 266 0 min 0,0 UV-I 0 W/m 2,6 C -3,0 C 25,7 km/h (4 Bft)
01.02.2023 23:45 3,9 C 3,3 C 91 % 1024,5 hPa 0,0 l/m 20,7 km/h (4 Bft) W-SW 246 0 min 0,0 UV-I 0 W/m 2,6 C -4,9 C 32,2 km/h (5 Bft)
01.02.2023 23:48 3,9 C 3,3 C 91 % 1024,5 hPa 0,0 l/m 18,8 km/h (3 Bft) W 261 0 min 0,0 UV-I 0 W/m 2,6 C -4,1 C 33,8 km/h (5 Bft)
01.02.2023 23:51 4,0 C 3,3 C 92 % 1024,5 hPa 0,0 l/m 16,0 km/h (3 Bft) SW 230 0 min 0,0 UV-I 0 W/m 2,8 C -2,7 C 29,0 km/h (5 Bft)
01.02.2023 23:54 4,0 C 3,3 C 92 % 1024,4 hPa 0,0 l/m 13,4 km/h (3 Bft) SW 235 0 min 0,0 UV-I 0 W/m 2,8 C -1,2 C 25,7 km/h (4 Bft)
01.02.2023 23:57 4,0 C 3,3 C 92 % 1024,5 hPa 0,0 l/m 10,7 km/h (2 Bft) W-SW 246 0 min 0,0 UV-I 0 W/m 2,8 C 0,5 C 24,1 km/h (4 Bft)
01.02.2023 23:58 4,0 C 3,3 C 92 % 1024,4 hPa 0,0 l/m 12,9 km/h (3 Bft) W-SW 247 0 min 0,0 UV-I 0 W/m 2,8 C -1,0 C 20,9 km/h (4 Bft)
01.02.2023 23:59 4,0 C 3,3 C 92 % 1024,5 hPa 0,2 l/m 16,1 km/h (3 Bft) W 270 0 min 0,0 UV-I 0 W/m 2,8 C -2,7 C 20,9 km/h (4 Bft)
_ Min-Zeit 07:03 06:42 15:03 07:38 - 00:10 - - - - - 08:21 08:03 00:19
Minimum _ 2,2 C 1,1 C 81 % 1022,6 hPa - 3,2 km/h (1 Bft) - - - - - 0,4 C -9,2 C 4,8 km/h (1 Bft)
_ Max-Zeit 15:06 14:57 00:05 23:36 18:33 08:03 - - 00:00 13:12 13:15 23:51 00:14 07:54
Maximum _ 4,5 C 5,0 C 94 % 1024,5 hPa 0,2 l/m 26,7 km/h
W-SW (4 Bft)
- - 0 min 1,0 UV-I 187 W/m 2,8 C 3,3 C 48,3 km/h
W-SW (6 Bft)
Durchschnitt _ 3,2 C 2,7 C 88 % 1023,5 hPa #2,2 l/m 14,9 km/h (3 Bft) W-SW - #0 min. 0,5 UV-I 65 W/m 1,5 C -2,8 C 26,7 km/h (4 Bft)